<?xml version="1.0" encoding="UTF-8" standalone="no" ?>
<gpx xmlns="http://www.topografix.com/GPX/1/1" xmlns:xsi="http://www.w3.org/2001/XMLSchema-instance" xsi:schemaLocation="http://www.topografix.com/GPX/1/1 http://www.topografix.com/GPX/1/1/gpx.xsd" version="1.1" creator="VisuGPX - https://www.visugpx.com">
  <metadata>
    <name>lundi 2015 08</name>
    <desc><![CDATA[cumul parcours aout 2015]]></desc>
  </metadata>
  <trk>
    <name><![CDATA[lundi 2015 08 03]]></name>
    <extensions>
      <line xmlns="http://www.topografix.com/GPX/gpx_style/0/2">
        <color>000000</color>
      </line>
    </extensions>
    <trkseg>
      <trkpt lat="48.83481" lon="2.33268">
        <ele>63.79999923706</ele>
        <time>2015-08-03T17:56:44Z</time>
      </trkpt>
      <trkpt lat="48.835" lon="2.33282">
        <ele>61.20000076294</ele>
        <time>2015-08-03T17:56:50Z</time>
      </trkpt>
      <trkpt lat="48.83519" lon="2.33299">
        <ele>58.400001525879</ele>
        <time>2015-08-03T17:56:55Z</time>
      </trkpt>
      <trkpt lat="48.83536" lon="2.33312">
        <ele>56.20000076294</ele>
        <time>2015-08-03T17:56:59Z</time>
      </trkpt>
      <trkpt lat="48.83551" lon="2.33328">
        <ele>53.20000076294</ele>
        <time>2015-08-03T17:57:03Z</time>
      </trkpt>
      <trkpt lat="48.83569" lon="2.33342">
        <ele>49.20000076294</ele>
        <time>2015-08-03T17:57:07Z</time>
      </trkpt>
      <trkpt lat="48.83589" lon="2.33354">
        <ele>45.20000076294</ele>
        <time>2015-08-03T17:57:11Z</time>
      </trkpt>
      <trkpt lat="48.83593" lon="2.33359">
        <ele>44.79999923706</ele>
        <time>2015-08-03T17:57:12Z</time>
      </trkpt>
      <trkpt lat="48.83606" lon="2.3338">
        <ele>43.400001525879</ele>
        <time>2015-08-03T17:57:16Z</time>
      </trkpt>
      <trkpt lat="48.83626" lon="2.33398">
        <ele>44</ele>
        <time>2015-08-03T17:57:20Z</time>
      </trkpt>
      <trkpt lat="48.83641" lon="2.33417">
        <ele>44.599998474121</ele>
        <time>2015-08-03T17:57:24Z</time>
      </trkpt>
      <trkpt lat="48.83658" lon="2.33435">
        <ele>46.599998474121</ele>
        <time>2015-08-03T17:57:28Z</time>
      </trkpt>
      <trkpt lat="48.83674" lon="2.33448">
        <ele>45.400001525879</ele>
        <time>2015-08-03T17:57:32Z</time>
      </trkpt>
      <trkpt lat="48.83689" lon="2.33464">
        <ele>47</ele>
        <time>2015-08-03T17:57:36Z</time>
      </trkpt>
      <trkpt lat="48.83706" lon="2.33483">
        <ele>49.79999923706</ele>
        <time>2015-08-03T17:57:40Z</time>
      </trkpt>
      <trkpt lat="48.83723" lon="2.33501">
        <ele>49.599998474121</ele>
        <time>2015-08-03T17:57:44Z</time>
      </trkpt>
      <trkpt lat="48.83728" lon="2.33505">
        <ele>49.599998474121</ele>
        <time>2015-08-03T17:57:45Z</time>
      </trkpt>
      <trkpt lat="48.83746" lon="2.33521">
        <ele>49</ele>
        <time>2015-08-03T17:57:49Z</time>
      </trkpt>
      <trkpt lat="48.83763" lon="2.33543">
        <ele>50.400001525879</ele>
        <time>2015-08-03T17:57:54Z</time>
      </trkpt>
      <trkpt lat="48.83783" lon="2.3356">
        <ele>54</ele>
        <time>2015-08-03T17:57:58Z</time>
      </trkpt>
      <trkpt lat="48.83798" lon="2.33582">
        <ele>54</ele>
        <time>2015-08-03T17:58:02Z</time>
      </trkpt>
      <trkpt lat="48.83814" lon="2.33604">
        <ele>54.599998474121</ele>
        <time>2015-08-03T17:58:06Z</time>
      </trkpt>
      <trkpt lat="48.83831" lon="2.33621">
        <ele>54.599998474121</ele>
        <time>2015-08-03T17:58:10Z</time>
      </trkpt>
      <trkpt lat="48.83848" lon="2.33636">
        <ele>53.79999923706</ele>
        <time>2015-08-03T17:58:14Z</time>
      </trkpt>
      <trkpt lat="48.83866" lon="2.33653">
        <ele>52.20000076294</ele>
        <time>2015-08-03T17:58:19Z</time>
      </trkpt>
      <trkpt lat="48.83873" lon="2.33657">
        <ele>51.400001525879</ele>
        <time>2015-08-03T17:58:21Z</time>
      </trkpt>
      <trkpt lat="48.83895" lon="2.33656">
        <ele>50.400001525879</ele>
        <time>2015-08-03T17:58:26Z</time>
      </trkpt>
      <trkpt lat="48.83907" lon="2.33659">
        <ele>50.599998474121</ele>
        <time>2015-08-03T17:58:29Z</time>
      </trkpt>
      <trkpt lat="48.83921" lon="2.33661">
        <ele>50.79999923706</ele>
        <time>2015-08-03T17:58:33Z</time>
      </trkpt>
      <trkpt lat="48.83941" lon="2.33664">
        <ele>52.20000076294</ele>
        <time>2015-08-03T17:58:38Z</time>
      </trkpt>
      <trkpt lat="48.83945" lon="2.33668">
        <ele>52.20000076294</ele>
        <time>2015-08-03T17:58:40Z</time>
      </trkpt>
      <trkpt lat="48.83947" lon="2.33679">
        <ele>51.599998474121</ele>
        <time>2015-08-03T17:58:45Z</time>
      </trkpt>
      <trkpt lat="48.83949" lon="2.33693">
        <ele>50.400001525879</ele>
        <time>2015-08-03T17:58:51Z</time>
      </trkpt>
      <trkpt lat="48.83959" lon="2.33694">
        <ele>49.79999923706</ele>
        <time>2015-08-03T17:58:56Z</time>
      </trkpt>
      <trkpt lat="48.83978" lon="2.33688">
        <ele>48.599998474121</ele>
        <time>2015-08-03T17:59:02Z</time>
      </trkpt>
      <trkpt lat="48.83997" lon="2.33689">
        <ele>48.20000076294</ele>
        <time>2015-08-03T17:59:06Z</time>
      </trkpt>
      <trkpt lat="48.84002" lon="2.3369">
        <ele>48.400001525879</ele>
        <time>2015-08-03T17:59:07Z</time>
      </trkpt>
      <trkpt lat="48.84024" lon="2.33701">
        <ele>47.79999923706</ele>
        <time>2015-08-03T17:59:11Z</time>
      </trkpt>
      <trkpt lat="48.84041" lon="2.3371">
        <ele>47.20000076294</ele>
        <time>2015-08-03T17:59:14Z</time>
      </trkpt>
      <trkpt lat="48.84059" lon="2.33719">
        <ele>46.79999923706</ele>
        <time>2015-08-03T17:59:17Z</time>
      </trkpt>
      <trkpt lat="48.84078" lon="2.33728">
        <ele>46.20000076294</ele>
        <time>2015-08-03T17:59:20Z</time>
      </trkpt>
      <trkpt lat="48.84097" lon="2.33738">
        <ele>45.599998474121</ele>
        <time>2015-08-03T17:59:23Z</time>
      </trkpt>
      <trkpt lat="48.84117" lon="2.33749">
        <ele>44.599998474121</ele>
        <time>2015-08-03T17:59:26Z</time>
      </trkpt>
      <trkpt lat="48.84137" lon="2.3376">
        <ele>43.79999923706</ele>
        <time>2015-08-03T17:59:29Z</time>
      </trkpt>
      <trkpt lat="48.84157" lon="2.33771">
        <ele>43</ele>
        <time>2015-08-03T17:59:32Z</time>
      </trkpt>
      <trkpt lat="48.84177" lon="2.33782">
        <ele>41.79999923706</ele>
        <time>2015-08-03T17:59:35Z</time>
      </trkpt>
      <trkpt lat="48.84196" lon="2.33794">
        <ele>41</ele>
        <time>2015-08-03T17:59:38Z</time>
      </trkpt>
      <trkpt lat="48.84208" lon="2.33796">
        <ele>41.79999923706</ele>
        <time>2015-08-03T17:59:40Z</time>
      </trkpt>
      <trkpt lat="48.84229" lon="2.33801">
        <ele>42</ele>
        <time>2015-08-03T17:59:44Z</time>
      </trkpt>
      <trkpt lat="48.84242" lon="2.33805">
        <ele>44</ele>
        <time>2015-08-03T17:59:48Z</time>
      </trkpt>
      <trkpt lat="48.84248" lon="2.33811">
        <ele>45.599998474121</ele>
        <time>2015-08-03T17:59:51Z</time>
      </trkpt>
      <trkpt lat="48.84254" lon="2.33816">
        <ele>46.400001525879</ele>
        <time>2015-08-03T17:59:53Z</time>
      </trkpt>
      <trkpt lat="48.84274" lon="2.33824">
        <ele>49.20000076294</ele>
        <time>2015-08-03T17:59:57Z</time>
      </trkpt>
      <trkpt lat="48.84283" lon="2.33828">
        <ele>51.599998474121</ele>
        <time>2015-08-03T17:59:59Z</time>
      </trkpt>
      <trkpt lat="48.84304" lon="2.33836">
        <ele>58.79999923706</ele>
        <time>2015-08-03T18:00:03Z</time>
      </trkpt>
      <trkpt lat="48.84314" lon="2.33838">
        <ele>62.599998474121</ele>
        <time>2015-08-03T18:00:05Z</time>
      </trkpt>
      <trkpt lat="48.84332" lon="2.33847">
        <ele>67.199996948242</ele>
        <time>2015-08-03T18:00:08Z</time>
      </trkpt>
      <trkpt lat="48.84352" lon="2.33856">
        <ele>73</ele>
        <time>2015-08-03T18:00:12Z</time>
      </trkpt>
      <trkpt lat="48.84355" lon="2.33856">
        <ele>74.800003051758</ele>
        <time>2015-08-03T18:00:13Z</time>
      </trkpt>
      <trkpt lat="48.84368" lon="2.33864">
        <ele>80.599998474121</ele>
        <time>2015-08-03T18:00:17Z</time>
      </trkpt>
      <trkpt lat="48.84373" lon="2.33863">
        <ele>83.800003051758</ele>
        <time>2015-08-03T18:00:19Z</time>
      </trkpt>
      <trkpt lat="48.84379" lon="2.33862">
        <ele>81.199996948242</ele>
        <time>2015-08-03T18:00:21Z</time>
      </trkpt>
      <trkpt lat="48.84388" lon="2.3386">
        <ele>79</ele>
        <time>2015-08-03T18:00:24Z</time>
      </trkpt>
      <trkpt lat="48.84404" lon="2.3387">
        <ele>76.800003051758</ele>
        <time>2015-08-03T18:00:29Z</time>
      </trkpt>
      <trkpt lat="48.84414" lon="2.33878">
        <ele>74.800003051758</ele>
        <time>2015-08-03T18:00:31Z</time>
      </trkpt>
      <trkpt lat="48.84432" lon="2.33892">
        <ele>74</ele>
        <time>2015-08-03T18:00:34Z</time>
      </trkpt>
      <trkpt lat="48.8445" lon="2.33905">
        <ele>74</ele>
        <time>2015-08-03T18:00:37Z</time>
      </trkpt>
      <trkpt lat="48.84469" lon="2.33918">
        <ele>73.800003051758</ele>
        <time>2015-08-03T18:00:40Z</time>
      </trkpt>
      <trkpt lat="48.84475" lon="2.33922">
        <ele>73.800003051758</ele>
        <time>2015-08-03T18:00:41Z</time>
      </trkpt>
      <trkpt lat="48.84494" lon="2.33932">
        <ele>73</ele>
        <time>2015-08-03T18:00:44Z</time>
      </trkpt>
      <trkpt lat="48.84514" lon="2.33944">
        <ele>71.800003051758</ele>
        <time>2015-08-03T18:00:47Z</time>
      </trkpt>
      <trkpt lat="48.84528" lon="2.33953">
        <ele>71.800003051758</ele>
        <time>2015-08-03T18:00:49Z</time>
      </trkpt>
      <trkpt lat="48.84549" lon="2.33964">
        <ele>71.800003051758</ele>
        <time>2015-08-03T18:00:52Z</time>
      </trkpt>
      <trkpt lat="48.84564" lon="2.33972">
        <ele>71.800003051758</ele>
        <time>2015-08-03T18:00:54Z</time>
      </trkpt>
      <trkpt lat="48.84585" lon="2.33984">
        <ele>72.199996948242</ele>
        <time>2015-08-03T18:00:57Z</time>
      </trkpt>
      <trkpt lat="48.84606" lon="2.33997">
        <ele>71.599998474121</ele>
        <time>2015-08-03T18:01:00Z</time>
      </trkpt>
      <trkpt lat="48.84627" lon="2.3401">
        <ele>68.800003051758</ele>
        <time>2015-08-03T18:01:03Z</time>
      </trkpt>
      <trkpt lat="48.84645" lon="2.3402">
        <ele>69.199996948242</ele>
        <time>2015-08-03T18:01:06Z</time>
      </trkpt>
      <trkpt lat="48.84663" lon="2.3403">
        <ele>67.400001525879</ele>
        <time>2015-08-03T18:01:09Z</time>
      </trkpt>
      <trkpt lat="48.84675" lon="2.34036">
        <ele>66</ele>
        <time>2015-08-03T18:01:11Z</time>
      </trkpt>
      <trkpt lat="48.84692" lon="2.3405">
        <ele>61.79999923706</ele>
        <time>2015-08-03T18:01:14Z</time>
      </trkpt>
      <trkpt lat="48.84709" lon="2.34059">
        <ele>58.599998474121</ele>
        <time>2015-08-03T18:01:17Z</time>
      </trkpt>
      <trkpt lat="48.84732" lon="2.3407">
        <ele>57.400001525879</ele>
        <time>2015-08-03T18:01:21Z</time>
      </trkpt>
      <trkpt lat="48.84748" lon="2.34078">
        <ele>56.599998474121</ele>
        <time>2015-08-03T18:01:24Z</time>
      </trkpt>
      <trkpt lat="48.84769" lon="2.34092">
        <ele>57.79999923706</ele>
        <time>2015-08-03T18:01:28Z</time>
      </trkpt>
      <trkpt lat="48.84787" lon="2.34102">
        <ele>59.599998474121</ele>
        <time>2015-08-03T18:01:31Z</time>
      </trkpt>
      <trkpt lat="48.84806" lon="2.34114">
        <ele>60.599998474121</ele>
        <time>2015-08-03T18:01:34Z</time>
      </trkpt>
      <trkpt lat="48.84825" lon="2.34126">
        <ele>62.599998474121</ele>
        <time>2015-08-03T18:01:37Z</time>
      </trkpt>
      <trkpt lat="48.84837" lon="2.34135">
        <ele>63.599998474121</ele>
        <time>2015-08-03T18:01:39Z</time>
      </trkpt>
      <trkpt lat="48.84857" lon="2.34147">
        <ele>64.199996948242</ele>
        <time>2015-08-03T18:01:42Z</time>
      </trkpt>
      <trkpt lat="48.84877" lon="2.34158">
        <ele>64.400001525879</ele>
        <time>2015-08-03T18:01:45Z</time>
      </trkpt>
      <trkpt lat="48.84897" lon="2.3417">
        <ele>65.800003051758</ele>
        <time>2015-08-03T18:01:48Z</time>
      </trkpt>
      <trkpt lat="48.84918" lon="2.34184">
        <ele>66.599998474121</ele>
        <time>2015-08-03T18:01:51Z</time>
      </trkpt>
      <trkpt lat="48.8494" lon="2.34198">
        <ele>67.800003051758</ele>
        <time>2015-08-03T18:01:54Z</time>
      </trkpt>
      <trkpt lat="48.84962" lon="2.34213">
        <ele>67.800003051758</ele>
        <time>2015-08-03T18:01:57Z</time>
      </trkpt>
      <trkpt lat="48.84982" lon="2.34227">
        <ele>67.400001525879</ele>
        <time>2015-08-03T18:02:00Z</time>
      </trkpt>
      <trkpt lat="48.85002" lon="2.34239">
        <ele>66</ele>
        <time>2015-08-03T18:02:04Z</time>
      </trkpt>
      <trkpt lat="48.85007" lon="2.34241">
        <ele>66</ele>
        <time>2015-08-03T18:02:06Z</time>
      </trkpt>
      <trkpt lat="48.85016" lon="2.34251">
        <ele>62.400001525879</ele>
        <time>2015-08-03T18:02:10Z</time>
      </trkpt>
      <trkpt lat="48.85019" lon="2.34253">
        <ele>62.20000076294</ele>
        <time>2015-08-03T18:02:11Z</time>
      </trkpt>
      <trkpt lat="48.85026" lon="2.34258">
        <ele>59.79999923706</ele>
        <time>2015-08-03T18:02:13Z</time>
      </trkpt>
      <trkpt lat="48.85045" lon="2.34265">
        <ele>56.599998474121</ele>
        <time>2015-08-03T18:02:17Z</time>
      </trkpt>
      <trkpt lat="48.85061" lon="2.34277">
        <ele>49.599998474121</ele>
        <time>2015-08-03T18:02:20Z</time>
      </trkpt>
      <trkpt lat="48.85078" lon="2.34288">
        <ele>47.400001525879</ele>
        <time>2015-08-03T18:02:23Z</time>
      </trkpt>
      <trkpt lat="48.851" lon="2.34303">
        <ele>45.400001525879</ele>
        <time>2015-08-03T18:02:27Z</time>
      </trkpt>
      <trkpt lat="48.85119" lon="2.34311">
        <ele>44</ele>
        <time>2015-08-03T18:02:31Z</time>
      </trkpt>
      <trkpt lat="48.8513" lon="2.34316">
        <ele>40.599998474121</ele>
        <time>2015-08-03T18:02:36Z</time>
      </trkpt>
      <trkpt lat="48.85131" lon="2.34318">
        <ele>39</ele>
        <time>2015-08-03T18:02:38Z</time>
      </trkpt>
      <trkpt lat="48.85151" lon="2.34322">
        <ele>38.20000076294</ele>
        <time>2015-08-03T18:03:02Z</time>
      </trkpt>
      <trkpt lat="48.85173" lon="2.34335">
        <ele>38.79999923706</ele>
        <time>2015-08-03T18:03:06Z</time>
      </trkpt>
      <trkpt lat="48.85195" lon="2.34346">
        <ele>38.599998474121</ele>
        <time>2015-08-03T18:03:10Z</time>
      </trkpt>
      <trkpt lat="48.85213" lon="2.34353">
        <ele>39</ele>
        <time>2015-08-03T18:03:13Z</time>
      </trkpt>
      <trkpt lat="48.85233" lon="2.34361">
        <ele>39.599998474121</ele>
        <time>2015-08-03T18:03:16Z</time>
      </trkpt>
      <trkpt lat="48.85254" lon="2.34369">
        <ele>41.599998474121</ele>
        <time>2015-08-03T18:03:19Z</time>
      </trkpt>
      <trkpt lat="48.85276" lon="2.34377">
        <ele>42.20000076294</ele>
        <time>2015-08-03T18:03:22Z</time>
      </trkpt>
      <trkpt lat="48.85296" lon="2.34387">
        <ele>44</ele>
        <time>2015-08-03T18:03:25Z</time>
      </trkpt>
      <trkpt lat="48.85316" lon="2.34392">
        <ele>44.599998474121</ele>
        <time>2015-08-03T18:03:28Z</time>
      </trkpt>
      <trkpt lat="48.85338" lon="2.34406">
        <ele>42.400001525879</ele>
        <time>2015-08-03T18:03:32Z</time>
      </trkpt>
      <trkpt lat="48.85344" lon="2.34412">
        <ele>40.400001525879</ele>
        <time>2015-08-03T18:03:33Z</time>
      </trkpt>
      <trkpt lat="48.8536" lon="2.34431">
        <ele>36</ele>
        <time>2015-08-03T18:03:36Z</time>
      </trkpt>
      <trkpt lat="48.8538" lon="2.34446">
        <ele>34</ele>
        <time>2015-08-03T18:03:40Z</time>
      </trkpt>
      <trkpt lat="48.8539" lon="2.34451">
        <ele>33.79999923706</ele>
        <time>2015-08-03T18:03:42Z</time>
      </trkpt>
      <trkpt lat="48.85398" lon="2.3446">
        <ele>33.20000076294</ele>
        <time>2015-08-03T18:03:44Z</time>
      </trkpt>
      <trkpt lat="48.85414" lon="2.34476">
        <ele>32.400001525879</ele>
        <time>2015-08-03T18:03:48Z</time>
      </trkpt>
      <trkpt lat="48.85425" lon="2.34486">
        <ele>32</ele>
        <time>2015-08-03T18:03:51Z</time>
      </trkpt>
      <trkpt lat="48.85441" lon="2.34504">
        <ele>31.200000762939</ele>
        <time>2015-08-03T18:03:56Z</time>
      </trkpt>
      <trkpt lat="48.85458" lon="2.34522">
        <ele>31.200000762939</ele>
        <time>2015-08-03T18:04:01Z</time>
      </trkpt>
      <trkpt lat="48.85461" lon="2.34523">
        <ele>31.200000762939</ele>
        <time>2015-08-03T18:04:02Z</time>
      </trkpt>
      <trkpt lat="48.85473" lon="2.34521">
        <ele>31.39999961853</ele>
        <time>2015-08-03T18:04:05Z</time>
      </trkpt>
      <trkpt lat="48.85485" lon="2.3453">
        <ele>30.200000762939</ele>
        <time>2015-08-03T18:04:09Z</time>
      </trkpt>
      <trkpt lat="48.85495" lon="2.3454">
        <ele>28.200000762939</ele>
        <time>2015-08-03T18:04:12Z</time>
      </trkpt>
      <trkpt lat="48.85508" lon="2.34554">
        <ele>25.200000762939</ele>
        <time>2015-08-03T18:04:17Z</time>
      </trkpt>
      <trkpt lat="48.85525" lon="2.34571">
        <ele>22.200000762939</ele>
        <time>2015-08-03T18:04:23Z</time>
      </trkpt>
      <trkpt lat="48.8553" lon="2.34573">
        <ele>21.799999237061</ele>
        <time>2015-08-03T18:04:24Z</time>
      </trkpt>
      <trkpt lat="48.85547" lon="2.34587">
        <ele>22.39999961853</ele>
        <time>2015-08-03T18:04:29Z</time>
      </trkpt>
      <trkpt lat="48.85566" lon="2.34598">
        <ele>23.60000038147</ele>
        <time>2015-08-03T18:04:34Z</time>
      </trkpt>
      <trkpt lat="48.85585" lon="2.34607">
        <ele>22.200000762939</ele>
        <time>2015-08-03T18:04:41Z</time>
      </trkpt>
      <trkpt lat="48.85603" lon="2.34616">
        <ele>21</ele>
        <time>2015-08-03T18:04:46Z</time>
      </trkpt>
      <trkpt lat="48.85614" lon="2.34623">
        <ele>19.39999961853</ele>
        <time>2015-08-03T18:04:50Z</time>
      </trkpt>
      <trkpt lat="48.85628" lon="2.34639">
        <ele>21.200000762939</ele>
        <time>2015-08-03T18:04:56Z</time>
      </trkpt>
      <trkpt lat="48.85648" lon="2.34652">
        <ele>21.39999961853</ele>
        <time>2015-08-03T18:05:02Z</time>
      </trkpt>
      <trkpt lat="48.85665" lon="2.34663">
        <ele>25</ele>
        <time>2015-08-03T18:05:06Z</time>
      </trkpt>
      <trkpt lat="48.85685" lon="2.34669">
        <ele>28.39999961853</ele>
        <time>2015-08-03T18:05:11Z</time>
      </trkpt>
      <trkpt lat="48.85703" lon="2.3468">
        <ele>28.39999961853</ele>
        <time>2015-08-03T18:05:16Z</time>
      </trkpt>
      <trkpt lat="48.85722" lon="2.34687">
        <ele>29.200000762939</ele>
        <time>2015-08-03T18:05:22Z</time>
      </trkpt>
      <trkpt lat="48.85725" lon="2.34685">
        <ele>29.39999961853</ele>
        <time>2015-08-03T18:05:23Z</time>
      </trkpt>
      <trkpt lat="48.85729" lon="2.3468">
        <ele>30</ele>
        <time>2015-08-03T18:05:28Z</time>
      </trkpt>
      <trkpt lat="48.85747" lon="2.34681">
        <ele>30.200000762939</ele>
        <time>2015-08-03T18:05:45Z</time>
      </trkpt>
      <trkpt lat="48.85759" lon="2.34701">
        <ele>31.799999237061</ele>
        <time>2015-08-03T18:05:58Z</time>
      </trkpt>
      <trkpt lat="48.85759" lon="2.34704">
        <ele>31.799999237061</ele>
        <time>2015-08-03T18:06:00Z</time>
      </trkpt>
      <trkpt lat="48.85748" lon="2.34724">
        <ele>33.20000076294</ele>
        <time>2015-08-03T18:06:17Z</time>
      </trkpt>
      <trkpt lat="48.85748" lon="2.34725">
        <ele>33.20000076294</ele>
        <time>2015-08-03T18:06:18Z</time>
      </trkpt>
      <trkpt lat="48.85743" lon="2.34737">
        <ele>34.20000076294</ele>
        <time>2015-08-03T18:08:17Z</time>
      </trkpt>
      <trkpt lat="48.85745" lon="2.34741">
        <ele>37</ele>
        <time>2015-08-03T18:10:03Z</time>
      </trkpt>
      <trkpt lat="48.8574" lon="2.34737">
        <ele>35.20000076294</ele>
        <time>2015-08-03T18:12:25Z</time>
      </trkpt>
      <trkpt lat="48.85746" lon="2.34739">
        <ele>37</ele>
        <time>2015-08-03T18:13:38Z</time>
      </trkpt>
      <trkpt lat="48.85746" lon="2.34732">
        <ele>35.400001525879</ele>
        <time>2015-08-03T18:16:10Z</time>
      </trkpt>
      <trkpt lat="48.85736" lon="2.34745">
        <ele>36.79999923706</ele>
        <time>2015-08-03T18:18:23Z</time>
      </trkpt>
      <trkpt lat="48.85745" lon="2.34734">
        <ele>36.20000076294</ele>
        <time>2015-08-03T18:20:30Z</time>
      </trkpt>
      <trkpt lat="48.85742" lon="2.3471">
        <ele>35.79999923706</ele>
        <time>2015-08-03T18:20:56Z</time>
      </trkpt>
      <trkpt lat="48.85739" lon="2.34705">
        <ele>35.79999923706</ele>
        <time>2015-08-03T18:20:58Z</time>
      </trkpt>
      <trkpt lat="48.85728" lon="2.34705">
        <ele>35.599998474121</ele>
        <time>2015-08-03T18:21:03Z</time>
      </trkpt>
      <trkpt lat="48.85718" lon="2.34728">
        <ele>34.599998474121</ele>
        <time>2015-08-03T18:21:21Z</time>
      </trkpt>
      <trkpt lat="48.85709" lon="2.34754">
        <ele>34.20000076294</ele>
        <time>2015-08-03T18:21:27Z</time>
      </trkpt>
      <trkpt lat="48.857" lon="2.34779">
        <ele>33.400001525879</ele>
        <time>2015-08-03T18:21:32Z</time>
      </trkpt>
      <trkpt lat="48.85694" lon="2.34807">
        <ele>31.39999961853</ele>
        <time>2015-08-03T18:21:36Z</time>
      </trkpt>
      <trkpt lat="48.85684" lon="2.34836">
        <ele>30.60000038147</ele>
        <time>2015-08-03T18:21:41Z</time>
      </trkpt>
      <trkpt lat="48.85675" lon="2.34862">
        <ele>33</ele>
        <time>2015-08-03T18:21:46Z</time>
      </trkpt>
      <trkpt lat="48.85667" lon="2.34889">
        <ele>33.400001525879</ele>
        <time>2015-08-03T18:21:51Z</time>
      </trkpt>
      <trkpt lat="48.85657" lon="2.34918">
        <ele>33.400001525879</ele>
        <time>2015-08-03T18:21:56Z</time>
      </trkpt>
      <trkpt lat="48.85647" lon="2.34947">
        <ele>33.400001525879</ele>
        <time>2015-08-03T18:22:01Z</time>
      </trkpt>
      <trkpt lat="48.85638" lon="2.34973">
        <ele>33.599998474121</ele>
        <time>2015-08-03T18:22:05Z</time>
      </trkpt>
      <trkpt lat="48.85631" lon="2.34993">
        <ele>33.599998474121</ele>
        <time>2015-08-03T18:22:08Z</time>
      </trkpt>
      <trkpt lat="48.8562" lon="2.3502">
        <ele>33.400001525879</ele>
        <time>2015-08-03T18:22:12Z</time>
      </trkpt>
      <trkpt lat="48.85613" lon="2.35051">
        <ele>30.39999961853</ele>
        <time>2015-08-03T18:22:16Z</time>
      </trkpt>
      <trkpt lat="48.8561" lon="2.35057">
        <ele>29.60000038147</ele>
        <time>2015-08-03T18:22:17Z</time>
      </trkpt>
      <trkpt lat="48.85603" lon="2.35076">
        <ele>28.60000038147</ele>
        <time>2015-08-03T18:22:20Z</time>
      </trkpt>
      <trkpt lat="48.85599" lon="2.35089">
        <ele>28.200000762939</ele>
        <time>2015-08-03T18:22:22Z</time>
      </trkpt>
      <trkpt lat="48.85589" lon="2.35116">
        <ele>28.39999961853</ele>
        <time>2015-08-03T18:22:26Z</time>
      </trkpt>
      <trkpt lat="48.85577" lon="2.3514">
        <ele>28.39999961853</ele>
        <time>2015-08-03T18:22:30Z</time>
      </trkpt>
      <trkpt lat="48.85566" lon="2.35166">
        <ele>28</ele>
        <time>2015-08-03T18:22:34Z</time>
      </trkpt>
      <trkpt lat="48.85555" lon="2.35193">
        <ele>27.799999237061</ele>
        <time>2015-08-03T18:22:38Z</time>
      </trkpt>
      <trkpt lat="48.85545" lon="2.3522">
        <ele>26.799999237061</ele>
        <time>2015-08-03T18:22:42Z</time>
      </trkpt>
      <trkpt lat="48.85539" lon="2.35232">
        <ele>26</ele>
        <time>2015-08-03T18:22:44Z</time>
      </trkpt>
      <trkpt lat="48.8553" lon="2.35254">
        <ele>25.60000038147</ele>
        <time>2015-08-03T18:22:48Z</time>
      </trkpt>
      <trkpt lat="48.8552" lon="2.3528">
        <ele>26.200000762939</ele>
        <time>2015-08-03T18:22:53Z</time>
      </trkpt>
      <trkpt lat="48.85517" lon="2.35289">
        <ele>27</ele>
        <time>2015-08-03T18:22:56Z</time>
      </trkpt>
      <trkpt lat="48.85499" lon="2.3529">
        <ele>28.39999961853</ele>
        <time>2015-08-03T18:23:08Z</time>
      </trkpt>
      <trkpt lat="48.85491" lon="2.35303">
        <ele>27.200000762939</ele>
        <time>2015-08-03T18:23:13Z</time>
      </trkpt>
      <trkpt lat="48.85481" lon="2.35327">
        <ele>27.200000762939</ele>
        <time>2015-08-03T18:23:21Z</time>
      </trkpt>
      <trkpt lat="48.85466" lon="2.35349">
        <ele>27</ele>
        <time>2015-08-03T18:23:27Z</time>
      </trkpt>
      <trkpt lat="48.85463" lon="2.35376">
        <ele>26.60000038147</ele>
        <time>2015-08-03T18:23:38Z</time>
      </trkpt>
      <trkpt lat="48.85452" lon="2.354">
        <ele>27.200000762939</ele>
        <time>2015-08-03T18:23:43Z</time>
      </trkpt>
      <trkpt lat="48.85441" lon="2.35425">
        <ele>27.799999237061</ele>
        <time>2015-08-03T18:23:47Z</time>
      </trkpt>
      <trkpt lat="48.85429" lon="2.35449">
        <ele>27</ele>
        <time>2015-08-03T18:23:51Z</time>
      </trkpt>
      <trkpt lat="48.85418" lon="2.35474">
        <ele>26.200000762939</ele>
        <time>2015-08-03T18:23:55Z</time>
      </trkpt>
      <trkpt lat="48.85405" lon="2.35499">
        <ele>24.60000038147</ele>
        <time>2015-08-03T18:24:00Z</time>
      </trkpt>
      <trkpt lat="48.85395" lon="2.35526">
        <ele>24.60000038147</ele>
        <time>2015-08-03T18:24:05Z</time>
      </trkpt>
      <trkpt lat="48.85387" lon="2.35554">
        <ele>24.799999237061</ele>
        <time>2015-08-03T18:24:11Z</time>
      </trkpt>
      <trkpt lat="48.85378" lon="2.35582">
        <ele>25.200000762939</ele>
        <time>2015-08-03T18:24:19Z</time>
      </trkpt>
      <trkpt lat="48.85371" lon="2.35608">
        <ele>24.39999961853</ele>
        <time>2015-08-03T18:24:24Z</time>
      </trkpt>
      <trkpt lat="48.85362" lon="2.35637">
        <ele>25</ele>
        <time>2015-08-03T18:24:30Z</time>
      </trkpt>
      <trkpt lat="48.85351" lon="2.35665">
        <ele>25.200000762939</ele>
        <time>2015-08-03T18:24:36Z</time>
      </trkpt>
      <trkpt lat="48.85343" lon="2.3569">
        <ele>24.60000038147</ele>
        <time>2015-08-03T18:24:41Z</time>
      </trkpt>
      <trkpt lat="48.85333" lon="2.35716">
        <ele>23.60000038147</ele>
        <time>2015-08-03T18:24:46Z</time>
      </trkpt>
      <trkpt lat="48.85324" lon="2.35741">
        <ele>23.799999237061</ele>
        <time>2015-08-03T18:24:50Z</time>
      </trkpt>
      <trkpt lat="48.85316" lon="2.35766">
        <ele>22.799999237061</ele>
        <time>2015-08-03T18:24:54Z</time>
      </trkpt>
      <trkpt lat="48.85306" lon="2.35796">
        <ele>21.39999961853</ele>
        <time>2015-08-03T18:24:58Z</time>
      </trkpt>
      <trkpt lat="48.85297" lon="2.35819">
        <ele>21.60000038147</ele>
        <time>2015-08-03T18:25:01Z</time>
      </trkpt>
      <trkpt lat="48.85286" lon="2.3585">
        <ele>21.799999237061</ele>
        <time>2015-08-03T18:25:05Z</time>
      </trkpt>
      <trkpt lat="48.85277" lon="2.35874">
        <ele>22.200000762939</ele>
        <time>2015-08-03T18:25:08Z</time>
      </trkpt>
      <trkpt lat="48.85271" lon="2.35889">
        <ele>23</ele>
        <time>2015-08-03T18:25:10Z</time>
      </trkpt>
      <trkpt lat="48.85259" lon="2.35921">
        <ele>23.60000038147</ele>
        <time>2015-08-03T18:25:14Z</time>
      </trkpt>
      <trkpt lat="48.85249" lon="2.3595">
        <ele>24</ele>
        <time>2015-08-03T18:25:18Z</time>
      </trkpt>
      <trkpt lat="48.85242" lon="2.35971">
        <ele>25.39999961853</ele>
        <time>2015-08-03T18:25:21Z</time>
      </trkpt>
      <trkpt lat="48.85232" lon="2.35996">
        <ele>27.39999961853</ele>
        <time>2015-08-03T18:25:25Z</time>
      </trkpt>
      <trkpt lat="48.85222" lon="2.36023">
        <ele>28.39999961853</ele>
        <time>2015-08-03T18:25:29Z</time>
      </trkpt>
      <trkpt lat="48.8521" lon="2.3605">
        <ele>29.39999961853</ele>
        <time>2015-08-03T18:25:33Z</time>
      </trkpt>
      <trkpt lat="48.85204" lon="2.36063">
        <ele>30</ele>
        <time>2015-08-03T18:25:35Z</time>
      </trkpt>
      <trkpt lat="48.85188" lon="2.36087">
        <ele>30.39999961853</ele>
        <time>2015-08-03T18:25:39Z</time>
      </trkpt>
      <trkpt lat="48.85183" lon="2.36092">
        <ele>30.39999961853</ele>
        <time>2015-08-03T18:25:40Z</time>
      </trkpt>
      <trkpt lat="48.85163" lon="2.36107">
        <ele>30.799999237061</ele>
        <time>2015-08-03T18:25:44Z</time>
      </trkpt>
      <trkpt lat="48.85157" lon="2.36109">
        <ele>31.39999961853</ele>
        <time>2015-08-03T18:25:45Z</time>
      </trkpt>
      <trkpt lat="48.85138" lon="2.36115">
        <ele>31.60000038147</ele>
        <time>2015-08-03T18:25:48Z</time>
      </trkpt>
      <trkpt lat="48.85118" lon="2.36119">
        <ele>30.200000762939</ele>
        <time>2015-08-03T18:25:52Z</time>
      </trkpt>
      <trkpt lat="48.851" lon="2.36119">
        <ele>28.200000762939</ele>
        <time>2015-08-03T18:25:56Z</time>
      </trkpt>
      <trkpt lat="48.8508" lon="2.36117">
        <ele>27.60000038147</ele>
        <time>2015-08-03T18:26:00Z</time>
      </trkpt>
      <trkpt lat="48.85057" lon="2.36119">
        <ele>27.39999961853</ele>
        <time>2015-08-03T18:26:04Z</time>
      </trkpt>
      <trkpt lat="48.85036" lon="2.36118">
        <ele>27.799999237061</ele>
        <time>2015-08-03T18:26:08Z</time>
      </trkpt>
      <trkpt lat="48.85016" lon="2.3612">
        <ele>27.60000038147</ele>
        <time>2015-08-03T18:26:12Z</time>
      </trkpt>
      <trkpt lat="48.85005" lon="2.36124">
        <ele>27.200000762939</ele>
        <time>2015-08-03T18:26:14Z</time>
      </trkpt>
      <trkpt lat="48.84985" lon="2.3613">
        <ele>27.39999961853</ele>
        <time>2015-08-03T18:26:18Z</time>
      </trkpt>
      <trkpt lat="48.84965" lon="2.36139">
        <ele>26.799999237061</ele>
        <time>2015-08-03T18:26:22Z</time>
      </trkpt>
      <trkpt lat="48.84949" lon="2.36151">
        <ele>26.39999961853</ele>
        <time>2015-08-03T18:26:25Z</time>
      </trkpt>
      <trkpt lat="48.84932" lon="2.36169">
        <ele>26.200000762939</ele>
        <time>2015-08-03T18:26:28Z</time>
      </trkpt>
      <trkpt lat="48.84913" lon="2.36185">
        <ele>25.799999237061</ele>
        <time>2015-08-03T18:26:31Z</time>
      </trkpt>
      <trkpt lat="48.84895" lon="2.36207">
        <ele>25.39999961853</ele>
        <time>2015-08-03T18:26:34Z</time>
      </trkpt>
      <trkpt lat="48.84875" lon="2.36239">
        <ele>25.39999961853</ele>
        <time>2015-08-03T18:26:37Z</time>
      </trkpt>
      <trkpt lat="48.84756" lon="2.36446">
        <ele>56</ele>
        <time>2015-08-03T18:27:02Z</time>
      </trkpt>
      <trkpt lat="48.84737" lon="2.36464">
        <ele>60.20000076294</ele>
        <time>2015-08-03T18:27:06Z</time>
      </trkpt>
      <trkpt lat="48.84736" lon="2.36468">
        <ele>60.400001525879</ele>
        <time>2015-08-03T18:27:07Z</time>
      </trkpt>
      <trkpt lat="48.84726" lon="2.36491">
        <ele>59.599998474121</ele>
        <time>2015-08-03T18:27:15Z</time>
      </trkpt>
      <trkpt lat="48.84727" lon="2.36499">
        <ele>55.400001525879</ele>
        <time>2015-08-03T18:27:20Z</time>
      </trkpt>
      <trkpt lat="48.84711" lon="2.36495">
        <ele>39.400001525879</ele>
        <time>2015-08-03T18:28:08Z</time>
      </trkpt>
      <trkpt lat="48.84693" lon="2.36507">
        <ele>38.79999923706</ele>
        <time>2015-08-03T18:28:16Z</time>
      </trkpt>
      <trkpt lat="48.84676" lon="2.36524">
        <ele>37.400001525879</ele>
        <time>2015-08-03T18:28:22Z</time>
      </trkpt>
      <trkpt lat="48.84656" lon="2.36542">
        <ele>36.599998474121</ele>
        <time>2015-08-03T18:28:27Z</time>
      </trkpt>
      <trkpt lat="48.84639" lon="2.36557">
        <ele>36.400001525879</ele>
        <time>2015-08-03T18:28:31Z</time>
      </trkpt>
      <trkpt lat="48.84622" lon="2.36573">
        <ele>34.20000076294</ele>
        <time>2015-08-03T18:28:35Z</time>
      </trkpt>
      <trkpt lat="48.84604" lon="2.36594">
        <ele>32.79999923706</ele>
        <time>2015-08-03T18:28:39Z</time>
      </trkpt>
      <trkpt lat="48.84589" lon="2.36611">
        <ele>31.799999237061</ele>
        <time>2015-08-03T18:28:42Z</time>
      </trkpt>
      <trkpt lat="48.84573" lon="2.36629">
        <ele>31.200000762939</ele>
        <time>2015-08-03T18:28:45Z</time>
      </trkpt>
      <trkpt lat="48.84556" lon="2.36649">
        <ele>30.39999961853</ele>
        <time>2015-08-03T18:28:48Z</time>
      </trkpt>
      <trkpt lat="48.84539" lon="2.36671">
        <ele>29.39999961853</ele>
        <time>2015-08-03T18:28:51Z</time>
      </trkpt>
      <trkpt lat="48.84523" lon="2.36694">
        <ele>28.39999961853</ele>
        <time>2015-08-03T18:28:54Z</time>
      </trkpt>
      <trkpt lat="48.84506" lon="2.36718">
        <ele>27.60000038147</ele>
        <time>2015-08-03T18:28:57Z</time>
      </trkpt>
      <trkpt lat="48.84492" lon="2.36739">
        <ele>27.200000762939</ele>
        <time>2015-08-03T18:29:00Z</time>
      </trkpt>
      <trkpt lat="48.84478" lon="2.36757">
        <ele>27.200000762939</ele>
        <time>2015-08-03T18:29:03Z</time>
      </trkpt>
      <trkpt lat="48.84462" lon="2.3678">
        <ele>27.60000038147</ele>
        <time>2015-08-03T18:29:07Z</time>
      </trkpt>
      <trkpt lat="48.84447" lon="2.36801">
        <ele>28.39999961853</ele>
        <time>2015-08-03T18:29:11Z</time>
      </trkpt>
      <trkpt lat="48.84434" lon="2.36822">
        <ele>28</ele>
        <time>2015-08-03T18:29:15Z</time>
      </trkpt>
      <trkpt lat="48.84421" lon="2.36843">
        <ele>28.60000038147</ele>
        <time>2015-08-03T18:29:19Z</time>
      </trkpt>
      <trkpt lat="48.8441" lon="2.36866">
        <ele>28.200000762939</ele>
        <time>2015-08-03T18:29:25Z</time>
      </trkpt>
      <trkpt lat="48.84403" lon="2.36892">
        <ele>28.799999237061</ele>
        <time>2015-08-03T18:29:32Z</time>
      </trkpt>
      <trkpt lat="48.84402" lon="2.36895">
        <ele>29.799999237061</ele>
        <time>2015-08-03T18:29:33Z</time>
      </trkpt>
      <trkpt lat="48.84398" lon="2.36905">
        <ele>31.200000762939</ele>
        <time>2015-08-03T18:29:36Z</time>
      </trkpt>
      <trkpt lat="48.84384" lon="2.36928">
        <ele>30.799999237061</ele>
        <time>2015-08-03T18:29:44Z</time>
      </trkpt>
      <trkpt lat="48.84382" lon="2.36931">
        <ele>30.799999237061</ele>
        <time>2015-08-03T18:29:45Z</time>
      </trkpt>
      <trkpt lat="48.84368" lon="2.3695">
        <ele>30.200000762939</ele>
        <time>2015-08-03T18:29:50Z</time>
      </trkpt>
      <trkpt lat="48.8435" lon="2.36967">
        <ele>29.799999237061</ele>
        <time>2015-08-03T18:29:54Z</time>
      </trkpt>
      <trkpt lat="48.84331" lon="2.3698">
        <ele>29.39999961853</ele>
        <time>2015-08-03T18:29:58Z</time>
      </trkpt>
      <trkpt lat="48.84318" lon="2.37001">
        <ele>29.39999961853</ele>
        <time>2015-08-03T18:30:02Z</time>
      </trkpt>
      <trkpt lat="48.84303" lon="2.37018">
        <ele>29</ele>
        <time>2015-08-03T18:30:06Z</time>
      </trkpt>
      <trkpt lat="48.84291" lon="2.37032">
        <ele>29.799999237061</ele>
        <time>2015-08-03T18:30:10Z</time>
      </trkpt>
      <trkpt lat="48.84279" lon="2.37053">
        <ele>30.60000038147</ele>
        <time>2015-08-03T18:30:15Z</time>
      </trkpt>
      <trkpt lat="48.84277" lon="2.37058">
        <ele>30.39999961853</ele>
        <time>2015-08-03T18:30:16Z</time>
      </trkpt>
      <trkpt lat="48.8426" lon="2.3708">
        <ele>30</ele>
        <time>2015-08-03T18:30:21Z</time>
      </trkpt>
      <trkpt lat="48.84253" lon="2.37091">
        <ele>30.60000038147</ele>
        <time>2015-08-03T18:30:23Z</time>
      </trkpt>
      <trkpt lat="48.84238" lon="2.3711">
        <ele>31</ele>
        <time>2015-08-03T18:30:27Z</time>
      </trkpt>
      <trkpt lat="48.84224" lon="2.37132">
        <ele>28.200000762939</ele>
        <time>2015-08-03T18:30:32Z</time>
      </trkpt>
      <trkpt lat="48.84216" lon="2.37143">
        <ele>27.799999237061</ele>
        <time>2015-08-03T18:30:35Z</time>
      </trkpt>
      <trkpt lat="48.84207" lon="2.3716">
        <ele>27.60000038147</ele>
        <time>2015-08-03T18:30:39Z</time>
      </trkpt>
      <trkpt lat="48.84203" lon="2.37168">
        <ele>28</ele>
        <time>2015-08-03T18:30:41Z</time>
      </trkpt>
      <trkpt lat="48.84189" lon="2.37185">
        <ele>27.200000762939</ele>
        <time>2015-08-03T18:30:46Z</time>
      </trkpt>
      <trkpt lat="48.84173" lon="2.37205">
        <ele>28.799999237061</ele>
        <time>2015-08-03T18:30:51Z</time>
      </trkpt>
      <trkpt lat="48.8417" lon="2.37208">
        <ele>29.39999961853</ele>
        <time>2015-08-03T18:30:52Z</time>
      </trkpt>
      <trkpt lat="48.84161" lon="2.37219">
        <ele>30.39999961853</ele>
        <time>2015-08-03T18:30:55Z</time>
      </trkpt>
      <trkpt lat="48.84149" lon="2.37238">
        <ele>30.60000038147</ele>
        <time>2015-08-03T18:31:00Z</time>
      </trkpt>
      <trkpt lat="48.84134" lon="2.37255">
        <ele>30.799999237061</ele>
        <time>2015-08-03T18:31:04Z</time>
      </trkpt>
      <trkpt lat="48.84119" lon="2.37272">
        <ele>29.799999237061</ele>
        <time>2015-08-03T18:31:08Z</time>
      </trkpt>
      <trkpt lat="48.84104" lon="2.37292">
        <ele>29.200000762939</ele>
        <time>2015-08-03T18:31:12Z</time>
      </trkpt>
      <trkpt lat="48.84088" lon="2.37312">
        <ele>29</ele>
        <time>2015-08-03T18:31:16Z</time>
      </trkpt>
      <trkpt lat="48.84071" lon="2.37331">
        <ele>29.200000762939</ele>
        <time>2015-08-03T18:31:20Z</time>
      </trkpt>
      <trkpt lat="48.8406" lon="2.37342">
        <ele>29</ele>
        <time>2015-08-03T18:31:23Z</time>
      </trkpt>
      <trkpt lat="48.84048" lon="2.37353">
        <ele>29.200000762939</ele>
        <time>2015-08-03T18:31:26Z</time>
      </trkpt>
      <trkpt lat="48.84032" lon="2.3737">
        <ele>30</ele>
        <time>2015-08-03T18:31:30Z</time>
      </trkpt>
      <trkpt lat="48.84014" lon="2.37387">
        <ele>31.60000038147</ele>
        <time>2015-08-03T18:31:34Z</time>
      </trkpt>
      <trkpt lat="48.83997" lon="2.37405">
        <ele>32.20000076294</ele>
        <time>2015-08-03T18:31:38Z</time>
      </trkpt>
      <trkpt lat="48.83983" lon="2.37427">
        <ele>30.799999237061</ele>
        <time>2015-08-03T18:31:42Z</time>
      </trkpt>
      <trkpt lat="48.83969" lon="2.37449">
        <ele>29.799999237061</ele>
        <time>2015-08-03T18:31:46Z</time>
      </trkpt>
      <trkpt lat="48.83953" lon="2.37469">
        <ele>28.39999961853</ele>
        <time>2015-08-03T18:31:51Z</time>
      </trkpt>
      <trkpt lat="48.8395" lon="2.37472">
        <ele>27.799999237061</ele>
        <time>2015-08-03T18:31:52Z</time>
      </trkpt>
      <trkpt lat="48.83935" lon="2.37487">
        <ele>27</ele>
        <time>2015-08-03T18:31:58Z</time>
      </trkpt>
      <trkpt lat="48.83922" lon="2.37509">
        <ele>29.39999961853</ele>
        <time>2015-08-03T18:32:07Z</time>
      </trkpt>
      <trkpt lat="48.83908" lon="2.3753">
        <ele>27.799999237061</ele>
        <time>2015-08-03T18:32:14Z</time>
      </trkpt>
      <trkpt lat="48.83892" lon="2.37546">
        <ele>29.799999237061</ele>
        <time>2015-08-03T18:32:19Z</time>
      </trkpt>
      <trkpt lat="48.83876" lon="2.37565">
        <ele>32.599998474121</ele>
        <time>2015-08-03T18:32:25Z</time>
      </trkpt>
      <trkpt lat="48.83873" lon="2.37567">
        <ele>33.400001525879</ele>
        <time>2015-08-03T18:32:27Z</time>
      </trkpt>
      <trkpt lat="48.83859" lon="2.37586">
        <ele>34.20000076294</ele>
        <time>2015-08-03T18:32:44Z</time>
      </trkpt>
      <trkpt lat="48.83858" lon="2.37586">
        <ele>34.599998474121</ele>
        <time>2015-08-03T18:32:45Z</time>
      </trkpt>
      <trkpt lat="48.83856" lon="2.37589">
        <ele>34.79999923706</ele>
        <time>2015-08-03T18:32:47Z</time>
      </trkpt>
      <trkpt lat="48.83862" lon="2.37616">
        <ele>34.20000076294</ele>
        <time>2015-08-03T18:32:55Z</time>
      </trkpt>
      <trkpt lat="48.83875" lon="2.37643">
        <ele>32.79999923706</ele>
        <time>2015-08-03T18:33:03Z</time>
      </trkpt>
      <trkpt lat="48.83884" lon="2.37659">
        <ele>33.599998474121</ele>
        <time>2015-08-03T18:33:06Z</time>
      </trkpt>
      <trkpt lat="48.83896" lon="2.3768">
        <ele>33.79999923706</ele>
        <time>2015-08-03T18:33:09Z</time>
      </trkpt>
      <trkpt lat="48.83909" lon="2.37706">
        <ele>33.400001525879</ele>
        <time>2015-08-03T18:33:12Z</time>
      </trkpt>
      <trkpt lat="48.83918" lon="2.37723">
        <ele>32.79999923706</ele>
        <time>2015-08-03T18:33:14Z</time>
      </trkpt>
      <trkpt lat="48.83932" lon="2.37749">
        <ele>31</ele>
        <time>2015-08-03T18:33:17Z</time>
      </trkpt>
      <trkpt lat="48.83945" lon="2.37776">
        <ele>29.60000038147</ele>
        <time>2015-08-03T18:33:20Z</time>
      </trkpt>
      <trkpt lat="48.83958" lon="2.37802">
        <ele>29.200000762939</ele>
        <time>2015-08-03T18:33:23Z</time>
      </trkpt>
      <trkpt lat="48.83973" lon="2.37826">
        <ele>30</ele>
        <time>2015-08-03T18:33:26Z</time>
      </trkpt>
      <trkpt lat="48.83988" lon="2.37851">
        <ele>30.39999961853</ele>
        <time>2015-08-03T18:33:29Z</time>
      </trkpt>
      <trkpt lat="48.84001" lon="2.37875">
        <ele>29.39999961853</ele>
        <time>2015-08-03T18:33:32Z</time>
      </trkpt>
      <trkpt lat="48.84012" lon="2.37897">
        <ele>29.200000762939</ele>
        <time>2015-08-03T18:33:35Z</time>
      </trkpt>
      <trkpt lat="48.84017" lon="2.37909">
        <ele>29.200000762939</ele>
        <time>2015-08-03T18:33:37Z</time>
      </trkpt>
      <trkpt lat="48.84024" lon="2.37929">
        <ele>29.799999237061</ele>
        <time>2015-08-03T18:33:43Z</time>
      </trkpt>
      <trkpt lat="48.84028" lon="2.37935">
        <ele>28.799999237061</ele>
        <time>2015-08-03T18:33:45Z</time>
      </trkpt>
      <trkpt lat="48.84035" lon="2.37951">
        <ele>27.39999961853</ele>
        <time>2015-08-03T18:33:49Z</time>
      </trkpt>
      <trkpt lat="48.84034" lon="2.37982">
        <ele>27.39999961853</ele>
        <time>2015-08-03T18:33:54Z</time>
      </trkpt>
      <trkpt lat="48.84029" lon="2.38008">
        <ele>27.799999237061</ele>
        <time>2015-08-03T18:33:58Z</time>
      </trkpt>
      <trkpt lat="48.84026" lon="2.38038">
        <ele>28.39999961853</ele>
        <time>2015-08-03T18:34:02Z</time>
      </trkpt>
      <trkpt lat="48.84025" lon="2.38045">
        <ele>28.799999237061</ele>
        <time>2015-08-03T18:34:03Z</time>
      </trkpt>
      <trkpt lat="48.8402" lon="2.38073">
        <ele>29.799999237061</ele>
        <time>2015-08-03T18:34:07Z</time>
      </trkpt>
      <trkpt lat="48.84015" lon="2.38106">
        <ele>30.799999237061</ele>
        <time>2015-08-03T18:34:11Z</time>
      </trkpt>
      <trkpt lat="48.8401" lon="2.38141">
        <ele>32.20000076294</ele>
        <time>2015-08-03T18:34:15Z</time>
      </trkpt>
      <trkpt lat="48.84006" lon="2.38168">
        <ele>34.20000076294</ele>
        <time>2015-08-03T18:34:18Z</time>
      </trkpt>
      <trkpt lat="48.84002" lon="2.38196">
        <ele>34.400001525879</ele>
        <time>2015-08-03T18:34:21Z</time>
      </trkpt>
      <trkpt lat="48.83997" lon="2.38223">
        <ele>35</ele>
        <time>2015-08-03T18:34:24Z</time>
      </trkpt>
      <trkpt lat="48.83996" lon="2.38232">
        <ele>34.79999923706</ele>
        <time>2015-08-03T18:34:25Z</time>
      </trkpt>
      <trkpt lat="48.83993" lon="2.38251">
        <ele>34.400001525879</ele>
        <time>2015-08-03T18:34:27Z</time>
      </trkpt>
      <trkpt lat="48.83989" lon="2.38279">
        <ele>33.79999923706</ele>
        <time>2015-08-03T18:34:30Z</time>
      </trkpt>
      <trkpt lat="48.83982" lon="2.38309">
        <ele>33.400001525879</ele>
        <time>2015-08-03T18:34:33Z</time>
      </trkpt>
      <trkpt lat="48.83976" lon="2.38339">
        <ele>33.599998474121</ele>
        <time>2015-08-03T18:34:36Z</time>
      </trkpt>
      <trkpt lat="48.83972" lon="2.38371">
        <ele>34</ele>
        <time>2015-08-03T18:34:39Z</time>
      </trkpt>
      <trkpt lat="48.83966" lon="2.38403">
        <ele>34.20000076294</ele>
        <time>2015-08-03T18:34:42Z</time>
      </trkpt>
      <trkpt lat="48.83957" lon="2.38432">
        <ele>34</ele>
        <time>2015-08-03T18:34:44Z</time>
      </trkpt>
      <trkpt lat="48.83951" lon="2.38457">
        <ele>34</ele>
        <time>2015-08-03T18:34:46Z</time>
      </trkpt>
      <trkpt lat="48.83944" lon="2.38495">
        <ele>33.79999923706</ele>
        <time>2015-08-03T18:34:49Z</time>
      </trkpt>
      <trkpt lat="48.83939" lon="2.38529">
        <ele>34</ele>
        <time>2015-08-03T18:34:52Z</time>
      </trkpt>
      <trkpt lat="48.83934" lon="2.38567">
        <ele>34.20000076294</ele>
        <time>2015-08-03T18:34:55Z</time>
      </trkpt>
      <trkpt lat="48.83928" lon="2.38602">
        <ele>34.20000076294</ele>
        <time>2015-08-03T18:34:58Z</time>
      </trkpt>
      <trkpt lat="48.83919" lon="2.38632">
        <ele>34.599998474121</ele>
        <time>2015-08-03T18:35:01Z</time>
      </trkpt>
      <trkpt lat="48.83912" lon="2.3866">
        <ele>34.79999923706</ele>
        <time>2015-08-03T18:35:04Z</time>
      </trkpt>
      <trkpt lat="48.83903" lon="2.38692">
        <ele>34.79999923706</ele>
        <time>2015-08-03T18:35:07Z</time>
      </trkpt>
      <trkpt lat="48.83901" lon="2.38731">
        <ele>35</ele>
        <time>2015-08-03T18:35:10Z</time>
      </trkpt>
      <trkpt lat="48.83896" lon="2.38767">
        <ele>35.400001525879</ele>
        <time>2015-08-03T18:35:13Z</time>
      </trkpt>
      <trkpt lat="48.83892" lon="2.38797">
        <ele>36.20000076294</ele>
        <time>2015-08-03T18:35:17Z</time>
      </trkpt>
      <trkpt lat="48.83889" lon="2.38826">
        <ele>38.79999923706</ele>
        <time>2015-08-03T18:35:25Z</time>
      </trkpt>
      <trkpt lat="48.83889" lon="2.38832">
        <ele>41</ele>
        <time>2015-08-03T18:35:29Z</time>
      </trkpt>
      <trkpt lat="48.83893" lon="2.38846">
        <ele>42</ele>
        <time>2015-08-03T18:35:58Z</time>
      </trkpt>
      <trkpt lat="48.83888" lon="2.38842">
        <ele>43.599998474121</ele>
        <time>2015-08-03T18:36:03Z</time>
      </trkpt>
      <trkpt lat="48.83889" lon="2.38869">
        <ele>44.400001525879</ele>
        <time>2015-08-03T18:36:10Z</time>
      </trkpt>
      <trkpt lat="48.83892" lon="2.38897">
        <ele>43.20000076294</ele>
        <time>2015-08-03T18:36:15Z</time>
      </trkpt>
      <trkpt lat="48.83896" lon="2.38923">
        <ele>43.599998474121</ele>
        <time>2015-08-03T18:36:22Z</time>
      </trkpt>
      <trkpt lat="48.83895" lon="2.38935">
        <ele>43.79999923706</ele>
        <time>2015-08-03T18:36:26Z</time>
      </trkpt>
      <trkpt lat="48.83897" lon="2.38962">
        <ele>43.20000076294</ele>
        <time>2015-08-03T18:36:32Z</time>
      </trkpt>
      <trkpt lat="48.83898" lon="2.38989">
        <ele>44</ele>
        <time>2015-08-03T18:36:37Z</time>
      </trkpt>
      <trkpt lat="48.83901" lon="2.39018">
        <ele>43.79999923706</ele>
        <time>2015-08-03T18:36:42Z</time>
      </trkpt>
      <trkpt lat="48.83903" lon="2.39049">
        <ele>44.599998474121</ele>
        <time>2015-08-03T18:36:47Z</time>
      </trkpt>
      <trkpt lat="48.83908" lon="2.39081">
        <ele>43.79999923706</ele>
        <time>2015-08-03T18:36:52Z</time>
      </trkpt>
      <trkpt lat="48.83911" lon="2.3911">
        <ele>44.20000076294</ele>
        <time>2015-08-03T18:36:56Z</time>
      </trkpt>
      <trkpt lat="48.83914" lon="2.39147">
        <ele>44.400001525879</ele>
        <time>2015-08-03T18:37:00Z</time>
      </trkpt>
      <trkpt lat="48.83916" lon="2.39176">
        <ele>44</ele>
        <time>2015-08-03T18:37:03Z</time>
      </trkpt>
      <trkpt lat="48.8392" lon="2.39204">
        <ele>44</ele>
        <time>2015-08-03T18:37:06Z</time>
      </trkpt>
      <trkpt lat="48.83925" lon="2.39236">
        <ele>45.599998474121</ele>
        <time>2015-08-03T18:37:10Z</time>
      </trkpt>
      <trkpt lat="48.83926" lon="2.39244">
        <ele>46</ele>
        <time>2015-08-03T18:37:11Z</time>
      </trkpt>
      <trkpt lat="48.83928" lon="2.39271">
        <ele>45.599998474121</ele>
        <time>2015-08-03T18:37:15Z</time>
      </trkpt>
      <trkpt lat="48.83932" lon="2.39301">
        <ele>46</ele>
        <time>2015-08-03T18:37:19Z</time>
      </trkpt>
      <trkpt lat="48.83936" lon="2.39332">
        <ele>47.400001525879</ele>
        <time>2015-08-03T18:37:23Z</time>
      </trkpt>
      <trkpt lat="48.8394" lon="2.39361">
        <ele>47.20000076294</ele>
        <time>2015-08-03T18:37:27Z</time>
      </trkpt>
      <trkpt lat="48.83943" lon="2.39388">
        <ele>49.400001525879</ele>
        <time>2015-08-03T18:37:31Z</time>
      </trkpt>
      <trkpt lat="48.83943" lon="2.3941">
        <ele>49.79999923706</ele>
        <time>2015-08-03T18:37:35Z</time>
      </trkpt>
      <trkpt lat="48.83944" lon="2.39431">
        <ele>49.79999923706</ele>
        <time>2015-08-03T18:37:40Z</time>
      </trkpt>
      <trkpt lat="48.83944" lon="2.39435">
        <ele>49.79999923706</ele>
        <time>2015-08-03T18:37:41Z</time>
      </trkpt>
      <trkpt lat="48.8395" lon="2.39462">
        <ele>49.599998474121</ele>
        <time>2015-08-03T18:37:48Z</time>
      </trkpt>
      <trkpt lat="48.8395" lon="2.3947">
        <ele>49.20000076294</ele>
        <time>2015-08-03T18:37:50Z</time>
      </trkpt>
      <trkpt lat="48.83948" lon="2.39498">
        <ele>47.599998474121</ele>
        <time>2015-08-03T18:37:57Z</time>
      </trkpt>
      <trkpt lat="48.83947" lon="2.39528">
        <ele>45</ele>
        <time>2015-08-03T18:38:05Z</time>
      </trkpt>
      <trkpt lat="48.83941" lon="2.39554">
        <ele>43.599998474121</ele>
        <time>2015-08-03T18:38:14Z</time>
      </trkpt>
      <trkpt lat="48.83936" lon="2.39571">
        <ele>45.400001525879</ele>
        <time>2015-08-03T18:38:23Z</time>
      </trkpt>
      <trkpt lat="48.8392" lon="2.39587">
        <ele>47.79999923706</ele>
        <time>2015-08-03T18:38:39Z</time>
      </trkpt>
      <trkpt lat="48.83903" lon="2.39602">
        <ele>48.599998474121</ele>
        <time>2015-08-03T18:38:44Z</time>
      </trkpt>
      <trkpt lat="48.83887" lon="2.39614">
        <ele>50.599998474121</ele>
        <time>2015-08-03T18:38:49Z</time>
      </trkpt>
      <trkpt lat="48.8387" lon="2.39625">
        <ele>53.400001525879</ele>
        <time>2015-08-03T18:38:55Z</time>
      </trkpt>
      <trkpt lat="48.83854" lon="2.39648">
        <ele>56.400001525879</ele>
        <time>2015-08-03T18:39:01Z</time>
      </trkpt>
      <trkpt lat="48.83837" lon="2.39665">
        <ele>58.599998474121</ele>
        <time>2015-08-03T18:39:06Z</time>
      </trkpt>
      <trkpt lat="48.8382" lon="2.39679">
        <ele>60</ele>
        <time>2015-08-03T18:39:11Z</time>
      </trkpt>
      <trkpt lat="48.83803" lon="2.39695">
        <ele>59.599998474121</ele>
        <time>2015-08-03T18:39:16Z</time>
      </trkpt>
      <trkpt lat="48.83788" lon="2.39713">
        <ele>58.20000076294</ele>
        <time>2015-08-03T18:39:21Z</time>
      </trkpt>
      <trkpt lat="48.8377" lon="2.39733">
        <ele>58</ele>
        <time>2015-08-03T18:39:26Z</time>
      </trkpt>
      <trkpt lat="48.83756" lon="2.3975">
        <ele>55.79999923706</ele>
        <time>2015-08-03T18:39:30Z</time>
      </trkpt>
      <trkpt lat="48.8374" lon="2.39767">
        <ele>54.79999923706</ele>
        <time>2015-08-03T18:39:34Z</time>
      </trkpt>
      <trkpt lat="48.83725" lon="2.39784">
        <ele>53.20000076294</ele>
        <time>2015-08-03T18:39:38Z</time>
      </trkpt>
      <trkpt lat="48.83708" lon="2.39803">
        <ele>51.400001525879</ele>
        <time>2015-08-03T18:39:42Z</time>
      </trkpt>
      <trkpt lat="48.83692" lon="2.39826">
        <ele>49.79999923706</ele>
        <time>2015-08-03T18:39:46Z</time>
      </trkpt>
      <trkpt lat="48.83676" lon="2.39848">
        <ele>48.400001525879</ele>
        <time>2015-08-03T18:39:50Z</time>
      </trkpt>
      <trkpt lat="48.8366" lon="2.39869">
        <ele>48</ele>
        <time>2015-08-03T18:39:54Z</time>
      </trkpt>
      <trkpt lat="48.83643" lon="2.39893">
        <ele>46.79999923706</ele>
        <time>2015-08-03T18:39:58Z</time>
      </trkpt>
      <trkpt lat="48.83627" lon="2.39914">
        <ele>47</ele>
        <time>2015-08-03T18:40:02Z</time>
      </trkpt>
      <trkpt lat="48.83612" lon="2.39938">
        <ele>46</ele>
        <time>2015-08-03T18:40:06Z</time>
      </trkpt>
      <trkpt lat="48.83594" lon="2.39958">
        <ele>46.20000076294</ele>
        <time>2015-08-03T18:40:10Z</time>
      </trkpt>
      <trkpt lat="48.83586" lon="2.39963">
        <ele>47.79999923706</ele>
        <time>2015-08-03T18:40:12Z</time>
      </trkpt>
      <trkpt lat="48.83568" lon="2.3998">
        <ele>45.599998474121</ele>
        <time>2015-08-03T18:40:17Z</time>
      </trkpt>
      <trkpt lat="48.83552" lon="2.39995">
        <ele>46.599998474121</ele>
        <time>2015-08-03T18:40:21Z</time>
      </trkpt>
      <trkpt lat="48.83535" lon="2.40015">
        <ele>45.79999923706</ele>
        <time>2015-08-03T18:40:26Z</time>
      </trkpt>
      <trkpt lat="48.83519" lon="2.40031">
        <ele>45</ele>
        <time>2015-08-03T18:40:30Z</time>
      </trkpt>
      <trkpt lat="48.83514" lon="2.40034">
        <ele>44.79999923706</ele>
        <time>2015-08-03T18:40:31Z</time>
      </trkpt>
      <trkpt lat="48.83498" lon="2.40047">
        <ele>44.20000076294</ele>
        <time>2015-08-03T18:40:35Z</time>
      </trkpt>
      <trkpt lat="48.83491" lon="2.40054">
        <ele>44.20000076294</ele>
        <time>2015-08-03T18:40:37Z</time>
      </trkpt>
      <trkpt lat="48.83476" lon="2.40071">
        <ele>44.400001525879</ele>
        <time>2015-08-03T18:40:43Z</time>
      </trkpt>
      <trkpt lat="48.8347" lon="2.40077">
        <ele>43.400001525879</ele>
        <time>2015-08-03T18:40:47Z</time>
      </trkpt>
      <trkpt lat="48.83466" lon="2.40077">
        <ele>42.400001525879</ele>
        <time>2015-08-03T18:40:51Z</time>
      </trkpt>
      <trkpt lat="48.83465" lon="2.40076">
        <ele>42</ele>
        <time>2015-08-03T18:40:52Z</time>
      </trkpt>
      <trkpt lat="48.8346" lon="2.40086">
        <ele>40.599998474121</ele>
        <time>2015-08-03T18:41:17Z</time>
      </trkpt>
      <trkpt lat="48.8344" lon="2.40103">
        <ele>39.599998474121</ele>
        <time>2015-08-03T18:41:22Z</time>
      </trkpt>
      <trkpt lat="48.83424" lon="2.40118">
        <ele>39.79999923706</ele>
        <time>2015-08-03T18:41:26Z</time>
      </trkpt>
      <trkpt lat="48.83406" lon="2.40135">
        <ele>39.599998474121</ele>
        <time>2015-08-03T18:41:31Z</time>
      </trkpt>
      <trkpt lat="48.8339" lon="2.40152">
        <ele>40.20000076294</ele>
        <time>2015-08-03T18:41:36Z</time>
      </trkpt>
      <trkpt lat="48.83373" lon="2.40171">
        <ele>40</ele>
        <time>2015-08-03T18:41:42Z</time>
      </trkpt>
      <trkpt lat="48.83359" lon="2.40194">
        <ele>40</ele>
        <time>2015-08-03T18:41:48Z</time>
      </trkpt>
      <trkpt lat="48.83345" lon="2.40213">
        <ele>40.20000076294</ele>
        <time>2015-08-03T18:41:56Z</time>
      </trkpt>
      <trkpt lat="48.83332" lon="2.40233">
        <ele>39.79999923706</ele>
        <time>2015-08-03T18:42:04Z</time>
      </trkpt>
      <trkpt lat="48.83317" lon="2.40254">
        <ele>38</ele>
        <time>2015-08-03T18:42:12Z</time>
      </trkpt>
      <trkpt lat="48.83303" lon="2.40274">
        <ele>37.79999923706</ele>
        <time>2015-08-03T18:42:18Z</time>
      </trkpt>
      <trkpt lat="48.83288" lon="2.40298">
        <ele>37.79999923706</ele>
        <time>2015-08-03T18:42:23Z</time>
      </trkpt>
      <trkpt lat="48.83274" lon="2.40322">
        <ele>37.400001525879</ele>
        <time>2015-08-03T18:42:28Z</time>
      </trkpt>
      <trkpt lat="48.83258" lon="2.40343">
        <ele>37.20000076294</ele>
        <time>2015-08-03T18:42:33Z</time>
      </trkpt>
      <trkpt lat="48.83244" lon="2.40362">
        <ele>38.400001525879</ele>
        <time>2015-08-03T18:42:38Z</time>
      </trkpt>
      <trkpt lat="48.83231" lon="2.40382">
        <ele>39.400001525879</ele>
        <time>2015-08-03T18:42:45Z</time>
      </trkpt>
      <trkpt lat="48.83225" lon="2.40387">
        <ele>40.599998474121</ele>
        <time>2015-08-03T18:42:49Z</time>
      </trkpt>
      <trkpt lat="48.83225" lon="2.40394">
        <ele>42.400001525879</ele>
        <time>2015-08-03T18:43:05Z</time>
      </trkpt>
      <trkpt lat="48.83226" lon="2.40394">
        <ele>42.20000076294</ele>
        <time>2015-08-03T18:43:07Z</time>
      </trkpt>
      <trkpt lat="48.83233" lon="2.40421">
        <ele>41.79999923706</ele>
        <time>2015-08-03T18:43:24Z</time>
      </trkpt>
      <trkpt lat="48.83232" lon="2.40447">
        <ele>42.20000076294</ele>
        <time>2015-08-03T18:43:34Z</time>
      </trkpt>
      <trkpt lat="48.83231" lon="2.40452">
        <ele>42.599998474121</ele>
        <time>2015-08-03T18:43:38Z</time>
      </trkpt>
      <trkpt lat="48.83215" lon="2.40464">
        <ele>43</ele>
        <time>2015-08-03T18:43:53Z</time>
      </trkpt>
      <trkpt lat="48.83199" lon="2.40481">
        <ele>43.20000076294</ele>
        <time>2015-08-03T18:44:00Z</time>
      </trkpt>
      <trkpt lat="48.83183" lon="2.40499">
        <ele>43</ele>
        <time>2015-08-03T18:44:06Z</time>
      </trkpt>
      <trkpt lat="48.83169" lon="2.40516">
        <ele>42.400001525879</ele>
        <time>2015-08-03T18:44:11Z</time>
      </trkpt>
      <trkpt lat="48.83155" lon="2.40532">
        <ele>42.20000076294</ele>
        <time>2015-08-03T18:44:16Z</time>
      </trkpt>
      <trkpt lat="48.8314" lon="2.40549">
        <ele>42.20000076294</ele>
        <time>2015-08-03T18:44:21Z</time>
      </trkpt>
      <trkpt lat="48.83125" lon="2.40566">
        <ele>41.400001525879</ele>
        <time>2015-08-03T18:44:26Z</time>
      </trkpt>
      <trkpt lat="48.83109" lon="2.40585">
        <ele>42</ele>
        <time>2015-08-03T18:44:31Z</time>
      </trkpt>
      <trkpt lat="48.83095" lon="2.40602">
        <ele>43.20000076294</ele>
        <time>2015-08-03T18:44:36Z</time>
      </trkpt>
      <trkpt lat="48.83079" lon="2.40622">
        <ele>44.20000076294</ele>
        <time>2015-08-03T18:44:42Z</time>
      </trkpt>
      <trkpt lat="48.83064" lon="2.40639">
        <ele>46</ele>
        <time>2015-08-03T18:44:48Z</time>
      </trkpt>
      <trkpt lat="48.83056" lon="2.40638">
        <ele>45.400001525879</ele>
        <time>2015-08-03T18:44:51Z</time>
      </trkpt>
      <trkpt lat="48.83048" lon="2.40621">
        <ele>47</ele>
        <time>2015-08-03T18:45:06Z</time>
      </trkpt>
      <trkpt lat="48.83038" lon="2.40632">
        <ele>46.79999923706</ele>
        <time>2015-08-03T18:45:11Z</time>
      </trkpt>
      <trkpt lat="48.83024" lon="2.40651">
        <ele>46.20000076294</ele>
        <time>2015-08-03T18:45:17Z</time>
      </trkpt>
      <trkpt lat="48.83007" lon="2.4067">
        <ele>44.599998474121</ele>
        <time>2015-08-03T18:45:23Z</time>
      </trkpt>
      <trkpt lat="48.8299" lon="2.4069">
        <ele>43.400001525879</ele>
        <time>2015-08-03T18:45:29Z</time>
      </trkpt>
      <trkpt lat="48.82976" lon="2.40708">
        <ele>43</ele>
        <time>2015-08-03T18:45:34Z</time>
      </trkpt>
      <trkpt lat="48.82959" lon="2.40729">
        <ele>42.79999923706</ele>
        <time>2015-08-03T18:45:40Z</time>
      </trkpt>
      <trkpt lat="48.82945" lon="2.40746">
        <ele>43</ele>
        <time>2015-08-03T18:45:45Z</time>
      </trkpt>
      <trkpt lat="48.8293" lon="2.40764">
        <ele>43.400001525879</ele>
        <time>2015-08-03T18:45:50Z</time>
      </trkpt>
      <trkpt lat="48.82915" lon="2.40787">
        <ele>43</ele>
        <time>2015-08-03T18:45:56Z</time>
      </trkpt>
      <trkpt lat="48.82899" lon="2.40802">
        <ele>40.79999923706</ele>
        <time>2015-08-03T18:46:01Z</time>
      </trkpt>
      <trkpt lat="48.82883" lon="2.40818">
        <ele>40.400001525879</ele>
        <time>2015-08-03T18:46:06Z</time>
      </trkpt>
      <trkpt lat="48.82867" lon="2.40833">
        <ele>40.79999923706</ele>
        <time>2015-08-03T18:46:11Z</time>
      </trkpt>
      <trkpt lat="48.82851" lon="2.40848">
        <ele>41.599998474121</ele>
        <time>2015-08-03T18:46:16Z</time>
      </trkpt>
      <trkpt lat="48.82837" lon="2.40865">
        <ele>42.20000076294</ele>
        <time>2015-08-03T18:46:21Z</time>
      </trkpt>
      <trkpt lat="48.82822" lon="2.40885">
        <ele>42.400001525879</ele>
        <time>2015-08-03T18:46:27Z</time>
      </trkpt>
      <trkpt lat="48.82807" lon="2.40903">
        <ele>41.79999923706</ele>
        <time>2015-08-03T18:46:33Z</time>
      </trkpt>
      <trkpt lat="48.82791" lon="2.40922">
        <ele>41.599998474121</ele>
        <time>2015-08-03T18:46:39Z</time>
      </trkpt>
      <trkpt lat="48.82774" lon="2.40932">
        <ele>41.400001525879</ele>
        <time>2015-08-03T18:46:45Z</time>
      </trkpt>
      <trkpt lat="48.8276" lon="2.40945">
        <ele>40.20000076294</ele>
        <time>2015-08-03T18:46:52Z</time>
      </trkpt>
      <trkpt lat="48.82758" lon="2.40969">
        <ele>37.599998474121</ele>
        <time>2015-08-03T18:47:03Z</time>
      </trkpt>
      <trkpt lat="48.82772" lon="2.40969">
        <ele>34.599998474121</ele>
        <time>2015-08-03T18:47:36Z</time>
      </trkpt>
      <trkpt lat="48.8279" lon="2.4097">
        <ele>34.599998474121</ele>
        <time>2015-08-03T18:47:41Z</time>
      </trkpt>
      <trkpt lat="48.82809" lon="2.40973">
        <ele>34.400001525879</ele>
        <time>2015-08-03T18:47:46Z</time>
      </trkpt>
      <trkpt lat="48.8283" lon="2.40974">
        <ele>34.599998474121</ele>
        <time>2015-08-03T18:47:51Z</time>
      </trkpt>
      <trkpt lat="48.8285" lon="2.40974">
        <ele>36.20000076294</ele>
        <time>2015-08-03T18:47:56Z</time>
      </trkpt>
      <trkpt lat="48.82871" lon="2.40974">
        <ele>36.599998474121</ele>
        <time>2015-08-03T18:48:01Z</time>
      </trkpt>
      <trkpt lat="48.8289" lon="2.40973">
        <ele>36.599998474121</ele>
        <time>2015-08-03T18:48:06Z</time>
      </trkpt>
      <trkpt lat="48.82909" lon="2.40972">
        <ele>36.400001525879</ele>
        <time>2015-08-03T18:48:11Z</time>
      </trkpt>
      <trkpt lat="48.8293" lon="2.4097">
        <ele>33.400001525879</ele>
        <time>2015-08-03T18:48:17Z</time>
      </trkpt>
      <trkpt lat="48.82946" lon="2.40969">
        <ele>36.20000076294</ele>
        <time>2015-08-03T18:48:22Z</time>
      </trkpt>
      <trkpt lat="48.82939" lon="2.40985">
        <ele>40.20000076294</ele>
        <time>2015-08-03T18:48:31Z</time>
      </trkpt>
      <trkpt lat="48.82936" lon="2.40987">
        <ele>40.599998474121</ele>
        <time>2015-08-03T18:48:32Z</time>
      </trkpt>
      <trkpt lat="48.8292" lon="2.41001">
        <ele>39.599998474121</ele>
        <time>2015-08-03T18:48:37Z</time>
      </trkpt>
      <trkpt lat="48.82902" lon="2.41017">
        <ele>38.79999923706</ele>
        <time>2015-08-03T18:48:42Z</time>
      </trkpt>
      <trkpt lat="48.82886" lon="2.41037">
        <ele>38</ele>
        <time>2015-08-03T18:48:47Z</time>
      </trkpt>
      <trkpt lat="48.82871" lon="2.41054">
        <ele>38.20000076294</ele>
        <time>2015-08-03T18:48:51Z</time>
      </trkpt>
      <trkpt lat="48.82855" lon="2.41071">
        <ele>38.79999923706</ele>
        <time>2015-08-03T18:48:55Z</time>
      </trkpt>
      <trkpt lat="48.82839" lon="2.41089">
        <ele>38.599998474121</ele>
        <time>2015-08-03T18:48:59Z</time>
      </trkpt>
      <trkpt lat="48.82824" lon="2.4111">
        <ele>38</ele>
        <time>2015-08-03T18:49:03Z</time>
      </trkpt>
      <trkpt lat="48.82813" lon="2.41126">
        <ele>38.20000076294</ele>
        <time>2015-08-03T18:49:06Z</time>
      </trkpt>
      <trkpt lat="48.828" lon="2.41148">
        <ele>39</ele>
        <time>2015-08-03T18:49:10Z</time>
      </trkpt>
      <trkpt lat="48.82786" lon="2.41168">
        <ele>39.79999923706</ele>
        <time>2015-08-03T18:49:14Z</time>
      </trkpt>
      <trkpt lat="48.82783" lon="2.41174">
        <ele>40.400001525879</ele>
        <time>2015-08-03T18:49:15Z</time>
      </trkpt>
      <trkpt lat="48.82778" lon="2.41185">
        <ele>41.400001525879</ele>
        <time>2015-08-03T18:49:17Z</time>
      </trkpt>
      <trkpt lat="48.82773" lon="2.41196">
        <ele>41.400001525879</ele>
        <time>2015-08-03T18:49:19Z</time>
      </trkpt>
      <trkpt lat="48.8276" lon="2.41224">
        <ele>41</ele>
        <time>2015-08-03T18:49:24Z</time>
      </trkpt>
      <trkpt lat="48.82748" lon="2.41246">
        <ele>40.599998474121</ele>
        <time>2015-08-03T18:49:29Z</time>
      </trkpt>
      <trkpt lat="48.82736" lon="2.41269">
        <ele>39.400001525879</ele>
        <time>2015-08-03T18:49:34Z</time>
      </trkpt>
      <trkpt lat="48.82725" lon="2.41295">
        <ele>39.20000076294</ele>
        <time>2015-08-03T18:49:39Z</time>
      </trkpt>
      <trkpt lat="48.82715" lon="2.41323">
        <ele>41</ele>
        <time>2015-08-03T18:49:44Z</time>
      </trkpt>
      <trkpt lat="48.82708" lon="2.41351">
        <ele>42.20000076294</ele>
        <time>2015-08-03T18:49:49Z</time>
      </trkpt>
      <trkpt lat="48.82701" lon="2.41378">
        <ele>42.79999923706</ele>
        <time>2015-08-03T18:49:54Z</time>
      </trkpt>
      <trkpt lat="48.82698" lon="2.41395">
        <ele>43.599998474121</ele>
        <time>2015-08-03T18:49:57Z</time>
      </trkpt>
      <trkpt lat="48.82694" lon="2.41427">
        <ele>44.79999923706</ele>
        <time>2015-08-03T18:50:02Z</time>
      </trkpt>
      <trkpt lat="48.82691" lon="2.41459">
        <ele>46.20000076294</ele>
        <time>2015-08-03T18:50:07Z</time>
      </trkpt>
      <trkpt lat="48.82687" lon="2.41483">
        <ele>46.400001525879</ele>
        <time>2015-08-03T18:50:11Z</time>
      </trkpt>
      <trkpt lat="48.82683" lon="2.41514">
        <ele>46.400001525879</ele>
        <time>2015-08-03T18:50:16Z</time>
      </trkpt>
      <trkpt lat="48.82681" lon="2.41543">
        <ele>46.20000076294</ele>
        <time>2015-08-03T18:50:20Z</time>
      </trkpt>
      <trkpt lat="48.82681" lon="2.41575">
        <ele>44.79999923706</ele>
        <time>2015-08-03T18:50:24Z</time>
      </trkpt>
      <trkpt lat="48.82682" lon="2.41608">
        <ele>44</ele>
        <time>2015-08-03T18:50:28Z</time>
      </trkpt>
      <trkpt lat="48.82682" lon="2.41624">
        <ele>43.599998474121</ele>
        <time>2015-08-03T18:50:30Z</time>
      </trkpt>
      <trkpt lat="48.82685" lon="2.41657">
        <ele>43.400001525879</ele>
        <time>2015-08-03T18:50:34Z</time>
      </trkpt>
      <trkpt lat="48.82688" lon="2.41691">
        <ele>42.599998474121</ele>
        <time>2015-08-03T18:50:38Z</time>
      </trkpt>
      <trkpt lat="48.82692" lon="2.41723">
        <ele>42.599998474121</ele>
        <time>2015-08-03T18:50:42Z</time>
      </trkpt>
      <trkpt lat="48.82699" lon="2.41755">
        <ele>43.20000076294</ele>
        <time>2015-08-03T18:50:46Z</time>
      </trkpt>
      <trkpt lat="48.827" lon="2.41763">
        <ele>43.599998474121</ele>
        <time>2015-08-03T18:50:47Z</time>
      </trkpt>
      <trkpt lat="48.82707" lon="2.41793">
        <ele>43.599998474121</ele>
        <time>2015-08-03T18:50:51Z</time>
      </trkpt>
      <trkpt lat="48.82713" lon="2.41821">
        <ele>43.599998474121</ele>
        <time>2015-08-03T18:50:55Z</time>
      </trkpt>
      <trkpt lat="48.82715" lon="2.41828">
        <ele>43.599998474121</ele>
        <time>2015-08-03T18:50:56Z</time>
      </trkpt>
      <trkpt lat="48.82724" lon="2.41855">
        <ele>42.79999923706</ele>
        <time>2015-08-03T18:51:00Z</time>
      </trkpt>
      <trkpt lat="48.82733" lon="2.41878">
        <ele>42.599998474121</ele>
        <time>2015-08-03T18:51:04Z</time>
      </trkpt>
      <trkpt lat="48.82743" lon="2.41902">
        <ele>43</ele>
        <time>2015-08-03T18:51:10Z</time>
      </trkpt>
      <trkpt lat="48.82749" lon="2.41914">
        <ele>42.79999923706</ele>
        <time>2015-08-03T18:51:14Z</time>
      </trkpt>
      <trkpt lat="48.82753" lon="2.41922">
        <ele>42.599998474121</ele>
        <time>2015-08-03T18:51:18Z</time>
      </trkpt>
      <trkpt lat="48.82754" lon="2.41928">
        <ele>40.599998474121</ele>
        <time>2015-08-03T18:51:24Z</time>
      </trkpt>
      <trkpt lat="48.82753" lon="2.41915">
        <ele>40</ele>
        <time>2015-08-03T18:51:37Z</time>
      </trkpt>
      <trkpt lat="48.82767" lon="2.41897">
        <ele>39.599998474121</ele>
        <time>2015-08-03T18:51:44Z</time>
      </trkpt>
      <trkpt lat="48.82779" lon="2.41876">
        <ele>39.20000076294</ele>
        <time>2015-08-03T18:51:51Z</time>
      </trkpt>
      <trkpt lat="48.82784" lon="2.41869">
        <ele>38.79999923706</ele>
        <time>2015-08-03T18:51:55Z</time>
      </trkpt>
      <trkpt lat="48.82779" lon="2.41842">
        <ele>37.599998474121</ele>
        <time>2015-08-03T18:52:01Z</time>
      </trkpt>
      <trkpt lat="48.82775" lon="2.41812">
        <ele>37.20000076294</ele>
        <time>2015-08-03T18:52:06Z</time>
      </trkpt>
      <trkpt lat="48.82774" lon="2.41778">
        <ele>37.20000076294</ele>
        <time>2015-08-03T18:52:11Z</time>
      </trkpt>
      <trkpt lat="48.82773" lon="2.41771">
        <ele>36.599998474121</ele>
        <time>2015-08-03T18:52:12Z</time>
      </trkpt>
      <trkpt lat="48.82776" lon="2.41738">
        <ele>36.79999923706</ele>
        <time>2015-08-03T18:52:16Z</time>
      </trkpt>
      <trkpt lat="48.82777" lon="2.4173">
        <ele>36.20000076294</ele>
        <time>2015-08-03T18:52:17Z</time>
      </trkpt>
      <trkpt lat="48.82782" lon="2.41697">
        <ele>35.79999923706</ele>
        <time>2015-08-03T18:52:21Z</time>
      </trkpt>
      <trkpt lat="48.82789" lon="2.41669">
        <ele>35.79999923706</ele>
        <time>2015-08-03T18:52:26Z</time>
      </trkpt>
      <trkpt lat="48.82798" lon="2.41653">
        <ele>36.599998474121</ele>
        <time>2015-08-03T18:52:30Z</time>
      </trkpt>
      <trkpt lat="48.82813" lon="2.41629">
        <ele>37.20000076294</ele>
        <time>2015-08-03T18:52:35Z</time>
      </trkpt>
      <trkpt lat="48.82825" lon="2.41608">
        <ele>37.79999923706</ele>
        <time>2015-08-03T18:52:39Z</time>
      </trkpt>
      <trkpt lat="48.82839" lon="2.4159">
        <ele>38.20000076294</ele>
        <time>2015-08-03T18:52:43Z</time>
      </trkpt>
      <trkpt lat="48.82858" lon="2.41571">
        <ele>38.79999923706</ele>
        <time>2015-08-03T18:52:48Z</time>
      </trkpt>
      <trkpt lat="48.82877" lon="2.41555">
        <ele>39.599998474121</ele>
        <time>2015-08-03T18:52:53Z</time>
      </trkpt>
      <trkpt lat="48.82896" lon="2.41542">
        <ele>40.79999923706</ele>
        <time>2015-08-03T18:52:59Z</time>
      </trkpt>
      <trkpt lat="48.82912" lon="2.41532">
        <ele>42</ele>
        <time>2015-08-03T18:53:04Z</time>
      </trkpt>
      <trkpt lat="48.82926" lon="2.41522">
        <ele>42</ele>
        <time>2015-08-03T18:53:09Z</time>
      </trkpt>
      <trkpt lat="48.82945" lon="2.41516">
        <ele>41.400001525879</ele>
        <time>2015-08-03T18:53:16Z</time>
      </trkpt>
      <trkpt lat="48.82965" lon="2.41521">
        <ele>38.599998474121</ele>
        <time>2015-08-03T18:53:25Z</time>
      </trkpt>
      <trkpt lat="48.82983" lon="2.41523">
        <ele>38.400001525879</ele>
        <time>2015-08-03T18:53:36Z</time>
      </trkpt>
      <trkpt lat="48.82995" lon="2.41524">
        <ele>40.20000076294</ele>
        <time>2015-08-03T18:53:45Z</time>
      </trkpt>
      <trkpt lat="48.8301" lon="2.41519">
        <ele>42.20000076294</ele>
        <time>2015-08-03T18:54:30Z</time>
      </trkpt>
      <trkpt lat="48.83019" lon="2.41509">
        <ele>44</ele>
        <time>2015-08-03T18:55:42Z</time>
      </trkpt>
      <trkpt lat="48.83023" lon="2.41482">
        <ele>43.20000076294</ele>
        <time>2015-08-03T18:55:49Z</time>
      </trkpt>
      <trkpt lat="48.83021" lon="2.41449">
        <ele>41.79999923706</ele>
        <time>2015-08-03T18:55:55Z</time>
      </trkpt>
      <trkpt lat="48.8302" lon="2.41418">
        <ele>38.79999923706</ele>
        <time>2015-08-03T18:56:00Z</time>
      </trkpt>
      <trkpt lat="48.83022" lon="2.41386">
        <ele>37.20000076294</ele>
        <time>2015-08-03T18:56:05Z</time>
      </trkpt>
      <trkpt lat="48.83029" lon="2.41358">
        <ele>36.20000076294</ele>
        <time>2015-08-03T18:56:10Z</time>
      </trkpt>
      <trkpt lat="48.83043" lon="2.41333">
        <ele>33.79999923706</ele>
        <time>2015-08-03T18:56:16Z</time>
      </trkpt>
      <trkpt lat="48.83058" lon="2.41314">
        <ele>32.400001525879</ele>
        <time>2015-08-03T18:56:23Z</time>
      </trkpt>
      <trkpt lat="48.83077" lon="2.41299">
        <ele>35.599998474121</ele>
        <time>2015-08-03T18:56:30Z</time>
      </trkpt>
      <trkpt lat="48.83094" lon="2.41289">
        <ele>37.400001525879</ele>
        <time>2015-08-03T18:56:38Z</time>
      </trkpt>
      <trkpt lat="48.83111" lon="2.41278">
        <ele>37.599998474121</ele>
        <time>2015-08-03T18:57:00Z</time>
      </trkpt>
      <trkpt lat="48.8313" lon="2.41266">
        <ele>37.20000076294</ele>
        <time>2015-08-03T18:57:11Z</time>
      </trkpt>
      <trkpt lat="48.8315" lon="2.41268">
        <ele>36</ele>
        <time>2015-08-03T18:57:17Z</time>
      </trkpt>
      <trkpt lat="48.83168" lon="2.41282">
        <ele>34.400001525879</ele>
        <time>2015-08-03T18:57:23Z</time>
      </trkpt>
      <trkpt lat="48.83171" lon="2.41308">
        <ele>34</ele>
        <time>2015-08-03T18:57:31Z</time>
      </trkpt>
      <trkpt lat="48.83159" lon="2.41333">
        <ele>34.79999923706</ele>
        <time>2015-08-03T18:57:39Z</time>
      </trkpt>
      <trkpt lat="48.83146" lon="2.41352">
        <ele>35.400001525879</ele>
        <time>2015-08-03T18:57:45Z</time>
      </trkpt>
      <trkpt lat="48.83132" lon="2.4137">
        <ele>34.79999923706</ele>
        <time>2015-08-03T18:57:51Z</time>
      </trkpt>
      <trkpt lat="48.83117" lon="2.41385">
        <ele>32.400001525879</ele>
        <time>2015-08-03T18:58:01Z</time>
      </trkpt>
      <trkpt lat="48.83101" lon="2.41401">
        <ele>30.200000762939</ele>
        <time>2015-08-03T18:58:09Z</time>
      </trkpt>
      <trkpt lat="48.83089" lon="2.41422">
        <ele>30.799999237061</ele>
        <time>2015-08-03T18:58:15Z</time>
      </trkpt>
      <trkpt lat="48.83075" lon="2.41442">
        <ele>29</ele>
        <time>2015-08-03T18:58:22Z</time>
      </trkpt>
      <trkpt lat="48.83062" lon="2.41461">
        <ele>26.39999961853</ele>
        <time>2015-08-03T18:58:29Z</time>
      </trkpt>
      <trkpt lat="48.83048" lon="2.41485">
        <ele>24.799999237061</ele>
        <time>2015-08-03T18:58:37Z</time>
      </trkpt>
      <trkpt lat="48.83038" lon="2.41509">
        <ele>26.60000038147</ele>
        <time>2015-08-03T18:58:46Z</time>
      </trkpt>
      <trkpt lat="48.83029" lon="2.41535">
        <ele>29.39999961853</ele>
        <time>2015-08-03T18:58:57Z</time>
      </trkpt>
      <trkpt lat="48.83018" lon="2.41558">
        <ele>33</ele>
        <time>2015-08-03T18:59:09Z</time>
      </trkpt>
      <trkpt lat="48.83011" lon="2.41562">
        <ele>34</ele>
        <time>2015-08-03T18:59:17Z</time>
      </trkpt>
      <trkpt lat="48.82999" lon="2.41568">
        <ele>37.20000076294</ele>
        <time>2015-08-03T19:00:22Z</time>
      </trkpt>
      <trkpt lat="48.83003" lon="2.41555">
        <ele>46</ele>
        <time>2015-08-03T19:01:19Z</time>
      </trkpt>
      <trkpt lat="48.83001" lon="2.4153">
        <ele>46.400001525879</ele>
        <time>2015-08-03T19:01:57Z</time>
      </trkpt>
      <trkpt lat="48.82987" lon="2.41523">
        <ele>45.79999923706</ele>
        <time>2015-08-03T19:02:30Z</time>
      </trkpt>
      <trkpt lat="48.8298" lon="2.41521">
        <ele>45.20000076294</ele>
        <time>2015-08-03T19:03:23Z</time>
      </trkpt>
      <trkpt lat="48.82961" lon="2.41518">
        <ele>45</ele>
        <time>2015-08-03T19:03:36Z</time>
      </trkpt>
      <trkpt lat="48.82948" lon="2.41513">
        <ele>44.599998474121</ele>
        <time>2015-08-03T19:03:44Z</time>
      </trkpt>
      <trkpt lat="48.82942" lon="2.41515">
        <ele>45.79999923706</ele>
        <time>2015-08-03T19:05:36Z</time>
      </trkpt>
      <trkpt lat="48.82923" lon="2.41525">
        <ele>45.400001525879</ele>
        <time>2015-08-03T19:05:56Z</time>
      </trkpt>
      <trkpt lat="48.82906" lon="2.41536">
        <ele>45.400001525879</ele>
        <time>2015-08-03T19:06:04Z</time>
      </trkpt>
      <trkpt lat="48.8289" lon="2.41547">
        <ele>46</ele>
        <time>2015-08-03T19:06:10Z</time>
      </trkpt>
      <trkpt lat="48.82875" lon="2.41563">
        <ele>45.599998474121</ele>
        <time>2015-08-03T19:06:15Z</time>
      </trkpt>
      <trkpt lat="48.82856" lon="2.41578">
        <ele>43.20000076294</ele>
        <time>2015-08-03T19:06:21Z</time>
      </trkpt>
      <trkpt lat="48.82837" lon="2.41595">
        <ele>42.79999923706</ele>
        <time>2015-08-03T19:06:26Z</time>
      </trkpt>
      <trkpt lat="48.82819" lon="2.41614">
        <ele>42.400001525879</ele>
        <time>2015-08-03T19:06:31Z</time>
      </trkpt>
      <trkpt lat="48.82804" lon="2.41634">
        <ele>42</ele>
        <time>2015-08-03T19:06:36Z</time>
      </trkpt>
      <trkpt lat="48.82789" lon="2.41655">
        <ele>42</ele>
        <time>2015-08-03T19:06:43Z</time>
      </trkpt>
      <trkpt lat="48.82785" lon="2.41685">
        <ele>42.20000076294</ele>
        <time>2015-08-03T19:06:48Z</time>
      </trkpt>
      <trkpt lat="48.82779" lon="2.41711">
        <ele>42</ele>
        <time>2015-08-03T19:06:52Z</time>
      </trkpt>
      <trkpt lat="48.82776" lon="2.4174">
        <ele>42.20000076294</ele>
        <time>2015-08-03T19:06:56Z</time>
      </trkpt>
      <trkpt lat="48.82776" lon="2.41769">
        <ele>43</ele>
        <time>2015-08-03T19:07:00Z</time>
      </trkpt>
      <trkpt lat="48.82776" lon="2.41797">
        <ele>43.599998474121</ele>
        <time>2015-08-03T19:07:04Z</time>
      </trkpt>
      <trkpt lat="48.82776" lon="2.41804">
        <ele>43.599998474121</ele>
        <time>2015-08-03T19:07:05Z</time>
      </trkpt>
      <trkpt lat="48.8278" lon="2.41837">
        <ele>43.20000076294</ele>
        <time>2015-08-03T19:07:10Z</time>
      </trkpt>
      <trkpt lat="48.82786" lon="2.41861">
        <ele>43</ele>
        <time>2015-08-03T19:07:14Z</time>
      </trkpt>
      <trkpt lat="48.82789" lon="2.41871">
        <ele>42.79999923706</ele>
        <time>2015-08-03T19:07:16Z</time>
      </trkpt>
      <trkpt lat="48.82792" lon="2.41881">
        <ele>42</ele>
        <time>2015-08-03T19:07:18Z</time>
      </trkpt>
      <trkpt lat="48.828" lon="2.41897">
        <ele>42</ele>
        <time>2015-08-03T19:07:22Z</time>
      </trkpt>
      <trkpt lat="48.82816" lon="2.41916">
        <ele>40.79999923706</ele>
        <time>2015-08-03T19:07:28Z</time>
      </trkpt>
      <trkpt lat="48.82832" lon="2.41934">
        <ele>42</ele>
        <time>2015-08-03T19:07:34Z</time>
      </trkpt>
      <trkpt lat="48.82849" lon="2.41951">
        <ele>43</ele>
        <time>2015-08-03T19:07:40Z</time>
      </trkpt>
      <trkpt lat="48.82869" lon="2.41962">
        <ele>43.79999923706</ele>
        <time>2015-08-03T19:07:45Z</time>
      </trkpt>
      <trkpt lat="48.82889" lon="2.41974">
        <ele>43.79999923706</ele>
        <time>2015-08-03T19:07:49Z</time>
      </trkpt>
      <trkpt lat="48.82906" lon="2.41985">
        <ele>43.400001525879</ele>
        <time>2015-08-03T19:07:52Z</time>
      </trkpt>
      <trkpt lat="48.82926" lon="2.41996">
        <ele>43.599998474121</ele>
        <time>2015-08-03T19:07:55Z</time>
      </trkpt>
      <trkpt lat="48.82945" lon="2.42008">
        <ele>43</ele>
        <time>2015-08-03T19:07:58Z</time>
      </trkpt>
      <trkpt lat="48.82965" lon="2.42022">
        <ele>43.20000076294</ele>
        <time>2015-08-03T19:08:01Z</time>
      </trkpt>
      <trkpt lat="48.82987" lon="2.42034">
        <ele>43.400001525879</ele>
        <time>2015-08-03T19:08:04Z</time>
      </trkpt>
      <trkpt lat="48.83011" lon="2.42044">
        <ele>43.79999923706</ele>
        <time>2015-08-03T19:08:07Z</time>
      </trkpt>
      <trkpt lat="48.83035" lon="2.42049">
        <ele>44.400001525879</ele>
        <time>2015-08-03T19:08:10Z</time>
      </trkpt>
      <trkpt lat="48.8306" lon="2.42052">
        <ele>45.400001525879</ele>
        <time>2015-08-03T19:08:13Z</time>
      </trkpt>
      <trkpt lat="48.83084" lon="2.42055">
        <ele>45</ele>
        <time>2015-08-03T19:08:16Z</time>
      </trkpt>
      <trkpt lat="48.83106" lon="2.42056">
        <ele>45</ele>
        <time>2015-08-03T19:08:19Z</time>
      </trkpt>
      <trkpt lat="48.8313" lon="2.42055">
        <ele>45</ele>
        <time>2015-08-03T19:08:22Z</time>
      </trkpt>
      <trkpt lat="48.83154" lon="2.42054">
        <ele>45.20000076294</ele>
        <time>2015-08-03T19:08:25Z</time>
      </trkpt>
      <trkpt lat="48.83177" lon="2.42051">
        <ele>44.79999923706</ele>
        <time>2015-08-03T19:08:28Z</time>
      </trkpt>
      <trkpt lat="48.83185" lon="2.42049">
        <ele>46</ele>
        <time>2015-08-03T19:08:29Z</time>
      </trkpt>
      <trkpt lat="48.83209" lon="2.42043">
        <ele>45.79999923706</ele>
        <time>2015-08-03T19:08:32Z</time>
      </trkpt>
      <trkpt lat="48.83232" lon="2.42038">
        <ele>46.400001525879</ele>
        <time>2015-08-03T19:08:35Z</time>
      </trkpt>
      <trkpt lat="48.83255" lon="2.42033">
        <ele>46.599998474121</ele>
        <time>2015-08-03T19:08:38Z</time>
      </trkpt>
      <trkpt lat="48.83279" lon="2.42032">
        <ele>45.20000076294</ele>
        <time>2015-08-03T19:08:41Z</time>
      </trkpt>
      <trkpt lat="48.83304" lon="2.4203">
        <ele>44</ele>
        <time>2015-08-03T19:08:44Z</time>
      </trkpt>
      <trkpt lat="48.8333" lon="2.42031">
        <ele>44</ele>
        <time>2015-08-03T19:08:47Z</time>
      </trkpt>
      <trkpt lat="48.83355" lon="2.42032">
        <ele>44.20000076294</ele>
        <time>2015-08-03T19:08:50Z</time>
      </trkpt>
      <trkpt lat="48.8338" lon="2.42034">
        <ele>44</ele>
        <time>2015-08-03T19:08:53Z</time>
      </trkpt>
      <trkpt lat="48.83401" lon="2.42034">
        <ele>44</ele>
        <time>2015-08-03T19:08:56Z</time>
      </trkpt>
      <trkpt lat="48.83414" lon="2.42033">
        <ele>43.20000076294</ele>
        <time>2015-08-03T19:08:58Z</time>
      </trkpt>
      <trkpt lat="48.83432" lon="2.42025">
        <ele>43.400001525879</ele>
        <time>2015-08-03T19:09:01Z</time>
      </trkpt>
      <trkpt lat="48.83449" lon="2.42016">
        <ele>43.20000076294</ele>
        <time>2015-08-03T19:09:04Z</time>
      </trkpt>
      <trkpt lat="48.8347" lon="2.42003">
        <ele>43.400001525879</ele>
        <time>2015-08-03T19:09:08Z</time>
      </trkpt>
      <trkpt lat="48.83486" lon="2.41992">
        <ele>43</ele>
        <time>2015-08-03T19:09:12Z</time>
      </trkpt>
      <trkpt lat="48.83492" lon="2.41988">
        <ele>43.20000076294</ele>
        <time>2015-08-03T19:09:15Z</time>
      </trkpt>
      <trkpt lat="48.835" lon="2.41998">
        <ele>44.79999923706</ele>
        <time>2015-08-03T19:10:21Z</time>
      </trkpt>
      <trkpt lat="48.8351" lon="2.42022">
        <ele>44</ele>
        <time>2015-08-03T19:10:25Z</time>
      </trkpt>
      <trkpt lat="48.83519" lon="2.42045">
        <ele>43.400001525879</ele>
        <time>2015-08-03T19:10:28Z</time>
      </trkpt>
      <trkpt lat="48.83529" lon="2.42074">
        <ele>42.79999923706</ele>
        <time>2015-08-03T19:10:31Z</time>
      </trkpt>
      <trkpt lat="48.83539" lon="2.42104">
        <ele>42.599998474121</ele>
        <time>2015-08-03T19:10:34Z</time>
      </trkpt>
      <trkpt lat="48.83549" lon="2.42135">
        <ele>41.79999923706</ele>
        <time>2015-08-03T19:10:37Z</time>
      </trkpt>
      <trkpt lat="48.83559" lon="2.42164">
        <ele>41.599998474121</ele>
        <time>2015-08-03T19:10:40Z</time>
      </trkpt>
      <trkpt lat="48.8357" lon="2.42192">
        <ele>41.79999923706</ele>
        <time>2015-08-03T19:10:43Z</time>
      </trkpt>
      <trkpt lat="48.83581" lon="2.4222">
        <ele>42</ele>
        <time>2015-08-03T19:10:46Z</time>
      </trkpt>
      <trkpt lat="48.83585" lon="2.4223">
        <ele>42.20000076294</ele>
        <time>2015-08-03T19:10:47Z</time>
      </trkpt>
      <trkpt lat="48.83597" lon="2.42258">
        <ele>41.20000076294</ele>
        <time>2015-08-03T19:10:50Z</time>
      </trkpt>
      <trkpt lat="48.83609" lon="2.42285">
        <ele>40.79999923706</ele>
        <time>2015-08-03T19:10:53Z</time>
      </trkpt>
      <trkpt lat="48.83621" lon="2.42313">
        <ele>40.400001525879</ele>
        <time>2015-08-03T19:10:56Z</time>
      </trkpt>
      <trkpt lat="48.83634" lon="2.42341">
        <ele>39.79999923706</ele>
        <time>2015-08-03T19:10:59Z</time>
      </trkpt>
      <trkpt lat="48.8365" lon="2.4237">
        <ele>40</ele>
        <time>2015-08-03T19:11:02Z</time>
      </trkpt>
      <trkpt lat="48.83665" lon="2.42397">
        <ele>40.20000076294</ele>
        <time>2015-08-03T19:11:05Z</time>
      </trkpt>
      <trkpt lat="48.83681" lon="2.42426">
        <ele>41.20000076294</ele>
        <time>2015-08-03T19:11:08Z</time>
      </trkpt>
      <trkpt lat="48.83696" lon="2.42453">
        <ele>41.400001525879</ele>
        <time>2015-08-03T19:11:11Z</time>
      </trkpt>
      <trkpt lat="48.83712" lon="2.4248">
        <ele>41.20000076294</ele>
        <time>2015-08-03T19:11:14Z</time>
      </trkpt>
      <trkpt lat="48.8373" lon="2.42506">
        <ele>41</ele>
        <time>2015-08-03T19:11:17Z</time>
      </trkpt>
      <trkpt lat="48.83742" lon="2.42523">
        <ele>39.79999923706</ele>
        <time>2015-08-03T19:11:19Z</time>
      </trkpt>
      <trkpt lat="48.8376" lon="2.42549">
        <ele>39</ele>
        <time>2015-08-03T19:11:22Z</time>
      </trkpt>
      <trkpt lat="48.83776" lon="2.42578">
        <ele>37.79999923706</ele>
        <time>2015-08-03T19:11:25Z</time>
      </trkpt>
      <trkpt lat="48.83792" lon="2.42607">
        <ele>35.79999923706</ele>
        <time>2015-08-03T19:11:28Z</time>
      </trkpt>
      <trkpt lat="48.83807" lon="2.42636">
        <ele>34.79999923706</ele>
        <time>2015-08-03T19:11:31Z</time>
      </trkpt>
      <trkpt lat="48.83822" lon="2.42666">
        <ele>33.599998474121</ele>
        <time>2015-08-03T19:11:34Z</time>
      </trkpt>
      <trkpt lat="48.83833" lon="2.4269">
        <ele>32.79999923706</ele>
        <time>2015-08-03T19:11:36Z</time>
      </trkpt>
      <trkpt lat="48.83846" lon="2.42712">
        <ele>32.400001525879</ele>
        <time>2015-08-03T19:11:38Z</time>
      </trkpt>
      <trkpt lat="48.83857" lon="2.42734">
        <ele>32</ele>
        <time>2015-08-03T19:11:40Z</time>
      </trkpt>
      <trkpt lat="48.83866" lon="2.42758">
        <ele>32</ele>
        <time>2015-08-03T19:11:42Z</time>
      </trkpt>
      <trkpt lat="48.83879" lon="2.42793">
        <ele>31.60000038147</ele>
        <time>2015-08-03T19:11:45Z</time>
      </trkpt>
      <trkpt lat="48.83891" lon="2.42828">
        <ele>31</ele>
        <time>2015-08-03T19:11:48Z</time>
      </trkpt>
      <trkpt lat="48.83902" lon="2.42864">
        <ele>30.799999237061</ele>
        <time>2015-08-03T19:11:51Z</time>
      </trkpt>
      <trkpt lat="48.83912" lon="2.42899">
        <ele>30.60000038147</ele>
        <time>2015-08-03T19:11:54Z</time>
      </trkpt>
      <trkpt lat="48.83921" lon="2.42934">
        <ele>31</ele>
        <time>2015-08-03T19:11:57Z</time>
      </trkpt>
      <trkpt lat="48.83932" lon="2.42969">
        <ele>31.60000038147</ele>
        <time>2015-08-03T19:12:00Z</time>
      </trkpt>
      <trkpt lat="48.8394" lon="2.43005">
        <ele>33.20000076294</ele>
        <time>2015-08-03T19:12:03Z</time>
      </trkpt>
      <trkpt lat="48.83948" lon="2.43041">
        <ele>33.79999923706</ele>
        <time>2015-08-03T19:12:06Z</time>
      </trkpt>
      <trkpt lat="48.83957" lon="2.43077">
        <ele>33.599998474121</ele>
        <time>2015-08-03T19:12:09Z</time>
      </trkpt>
      <trkpt lat="48.83965" lon="2.43112">
        <ele>34.599998474121</ele>
        <time>2015-08-03T19:12:12Z</time>
      </trkpt>
      <trkpt lat="48.83974" lon="2.43146">
        <ele>34.599998474121</ele>
        <time>2015-08-03T19:12:15Z</time>
      </trkpt>
      <trkpt lat="48.83983" lon="2.43179">
        <ele>34.400001525879</ele>
        <time>2015-08-03T19:12:18Z</time>
      </trkpt>
      <trkpt lat="48.83992" lon="2.43211">
        <ele>34.599998474121</ele>
        <time>2015-08-03T19:12:21Z</time>
      </trkpt>
      <trkpt lat="48.84" lon="2.43241">
        <ele>35.79999923706</ele>
        <time>2015-08-03T19:12:24Z</time>
      </trkpt>
      <trkpt lat="48.84009" lon="2.43272">
        <ele>36.20000076294</ele>
        <time>2015-08-03T19:12:27Z</time>
      </trkpt>
      <trkpt lat="48.84017" lon="2.43302">
        <ele>36.599998474121</ele>
        <time>2015-08-03T19:12:30Z</time>
      </trkpt>
      <trkpt lat="48.84024" lon="2.43332">
        <ele>36.599998474121</ele>
        <time>2015-08-03T19:12:33Z</time>
      </trkpt>
      <trkpt lat="48.84033" lon="2.4336">
        <ele>37.400001525879</ele>
        <time>2015-08-03T19:12:36Z</time>
      </trkpt>
      <trkpt lat="48.8404" lon="2.43386">
        <ele>38.599998474121</ele>
        <time>2015-08-03T19:12:39Z</time>
      </trkpt>
      <trkpt lat="48.84046" lon="2.43416">
        <ele>39.599998474121</ele>
        <time>2015-08-03T19:12:43Z</time>
      </trkpt>
      <trkpt lat="48.84048" lon="2.43428">
        <ele>41</ele>
        <time>2015-08-03T19:12:45Z</time>
      </trkpt>
      <trkpt lat="48.84045" lon="2.43455">
        <ele>42.400001525879</ele>
        <time>2015-08-03T19:12:50Z</time>
      </trkpt>
      <trkpt lat="48.84039" lon="2.43484">
        <ele>42.79999923706</ele>
        <time>2015-08-03T19:12:57Z</time>
      </trkpt>
      <trkpt lat="48.84033" lon="2.43511">
        <ele>44</ele>
        <time>2015-08-03T19:13:05Z</time>
      </trkpt>
      <trkpt lat="48.84029" lon="2.43522">
        <ele>44.79999923706</ele>
        <time>2015-08-03T19:13:10Z</time>
      </trkpt>
      <trkpt lat="48.84028" lon="2.43526">
        <ele>45</ele>
        <time>2015-08-03T19:13:13Z</time>
      </trkpt>
      <trkpt lat="48.84026" lon="2.4354">
        <ele>45.20000076294</ele>
        <time>2015-08-03T19:15:28Z</time>
      </trkpt>
      <trkpt lat="48.84026" lon="2.43571">
        <ele>45.599998474121</ele>
        <time>2015-08-03T19:15:35Z</time>
      </trkpt>
      <trkpt lat="48.84027" lon="2.436">
        <ele>45.20000076294</ele>
        <time>2015-08-03T19:15:40Z</time>
      </trkpt>
      <trkpt lat="48.84032" lon="2.43632">
        <ele>44.599998474121</ele>
        <time>2015-08-03T19:15:46Z</time>
      </trkpt>
      <trkpt lat="48.84039" lon="2.43657">
        <ele>45</ele>
        <time>2015-08-03T19:15:51Z</time>
      </trkpt>
      <trkpt lat="48.84048" lon="2.43684">
        <ele>45.20000076294</ele>
        <time>2015-08-03T19:15:56Z</time>
      </trkpt>
      <trkpt lat="48.84049" lon="2.43717">
        <ele>45.79999923706</ele>
        <time>2015-08-03T19:16:01Z</time>
      </trkpt>
      <trkpt lat="48.84047" lon="2.43747">
        <ele>45.599998474121</ele>
        <time>2015-08-03T19:16:05Z</time>
      </trkpt>
      <trkpt lat="48.84043" lon="2.43781">
        <ele>45.20000076294</ele>
        <time>2015-08-03T19:16:09Z</time>
      </trkpt>
      <trkpt lat="48.84039" lon="2.43815">
        <ele>44.599998474121</ele>
        <time>2015-08-03T19:16:13Z</time>
      </trkpt>
      <trkpt lat="48.84037" lon="2.43849">
        <ele>43.20000076294</ele>
        <time>2015-08-03T19:16:17Z</time>
      </trkpt>
      <trkpt lat="48.8404" lon="2.43876">
        <ele>42.20000076294</ele>
        <time>2015-08-03T19:16:21Z</time>
      </trkpt>
      <trkpt lat="48.84035" lon="2.43904">
        <ele>42.599998474121</ele>
        <time>2015-08-03T19:16:26Z</time>
      </trkpt>
      <trkpt lat="48.84033" lon="2.43917">
        <ele>42.400001525879</ele>
        <time>2015-08-03T19:16:28Z</time>
      </trkpt>
      <trkpt lat="48.84031" lon="2.43945">
        <ele>42.599998474121</ele>
        <time>2015-08-03T19:16:32Z</time>
      </trkpt>
      <trkpt lat="48.84029" lon="2.43974">
        <ele>42.400001525879</ele>
        <time>2015-08-03T19:16:36Z</time>
      </trkpt>
      <trkpt lat="48.84027" lon="2.44006">
        <ele>42.599998474121</ele>
        <time>2015-08-03T19:16:40Z</time>
      </trkpt>
      <trkpt lat="48.84025" lon="2.4404">
        <ele>43.20000076294</ele>
        <time>2015-08-03T19:16:44Z</time>
      </trkpt>
      <trkpt lat="48.84022" lon="2.44068">
        <ele>44.20000076294</ele>
        <time>2015-08-03T19:16:47Z</time>
      </trkpt>
      <trkpt lat="48.8402" lon="2.44098">
        <ele>45</ele>
        <time>2015-08-03T19:16:50Z</time>
      </trkpt>
      <trkpt lat="48.8402" lon="2.44129">
        <ele>46</ele>
        <time>2015-08-03T19:16:53Z</time>
      </trkpt>
      <trkpt lat="48.84019" lon="2.44139">
        <ele>45.599998474121</ele>
        <time>2015-08-03T19:16:54Z</time>
      </trkpt>
      <trkpt lat="48.8402" lon="2.4417">
        <ele>46.400001525879</ele>
        <time>2015-08-03T19:16:57Z</time>
      </trkpt>
      <trkpt lat="48.84018" lon="2.44202">
        <ele>45.599998474121</ele>
        <time>2015-08-03T19:17:00Z</time>
      </trkpt>
      <trkpt lat="48.84016" lon="2.44235">
        <ele>45.599998474121</ele>
        <time>2015-08-03T19:17:03Z</time>
      </trkpt>
      <trkpt lat="48.84013" lon="2.44267">
        <ele>45.599998474121</ele>
        <time>2015-08-03T19:17:06Z</time>
      </trkpt>
      <trkpt lat="48.84011" lon="2.44298">
        <ele>46.400001525879</ele>
        <time>2015-08-03T19:17:09Z</time>
      </trkpt>
      <trkpt lat="48.84009" lon="2.44329">
        <ele>47.599998474121</ele>
        <time>2015-08-03T19:17:12Z</time>
      </trkpt>
      <trkpt lat="48.84006" lon="2.4436">
        <ele>48.400001525879</ele>
        <time>2015-08-03T19:17:15Z</time>
      </trkpt>
      <trkpt lat="48.84004" lon="2.4439">
        <ele>49.20000076294</ele>
        <time>2015-08-03T19:17:18Z</time>
      </trkpt>
      <trkpt lat="48.84001" lon="2.44418">
        <ele>49.599998474121</ele>
        <time>2015-08-03T19:17:21Z</time>
      </trkpt>
      <trkpt lat="48.83998" lon="2.44437">
        <ele>49.599998474121</ele>
        <time>2015-08-03T19:17:23Z</time>
      </trkpt>
      <trkpt lat="48.83996" lon="2.44466">
        <ele>49.400001525879</ele>
        <time>2015-08-03T19:17:26Z</time>
      </trkpt>
      <trkpt lat="48.83994" lon="2.44494">
        <ele>50</ele>
        <time>2015-08-03T19:17:29Z</time>
      </trkpt>
      <trkpt lat="48.83992" lon="2.44522">
        <ele>50.79999923706</ele>
        <time>2015-08-03T19:17:32Z</time>
      </trkpt>
      <trkpt lat="48.83989" lon="2.44558">
        <ele>52.20000076294</ele>
        <time>2015-08-03T19:17:36Z</time>
      </trkpt>
      <trkpt lat="48.83989" lon="2.44566">
        <ele>52.20000076294</ele>
        <time>2015-08-03T19:17:37Z</time>
      </trkpt>
      <trkpt lat="48.83986" lon="2.446">
        <ele>52.599998474121</ele>
        <time>2015-08-03T19:17:41Z</time>
      </trkpt>
      <trkpt lat="48.83984" lon="2.44632">
        <ele>55.20000076294</ele>
        <time>2015-08-03T19:17:46Z</time>
      </trkpt>
      <trkpt lat="48.83984" lon="2.44638">
        <ele>55.20000076294</ele>
        <time>2015-08-03T19:17:47Z</time>
      </trkpt>
      <trkpt lat="48.83985" lon="2.44653">
        <ele>54.79999923706</ele>
        <time>2015-08-03T19:17:50Z</time>
      </trkpt>
      <trkpt lat="48.83986" lon="2.44644">
        <ele>51.400001525879</ele>
        <time>2015-08-03T19:18:01Z</time>
      </trkpt>
      <trkpt lat="48.83983" lon="2.4464">
        <ele>51.79999923706</ele>
        <time>2015-08-03T19:18:03Z</time>
      </trkpt>
      <trkpt lat="48.83982" lon="2.44639">
        <ele>51.79999923706</ele>
        <time>2015-08-03T19:18:04Z</time>
      </trkpt>
      <trkpt lat="48.83979" lon="2.44655">
        <ele>50.79999923706</ele>
        <time>2015-08-03T19:18:13Z</time>
      </trkpt>
      <trkpt lat="48.8398" lon="2.44657">
        <ele>50.400001525879</ele>
        <time>2015-08-03T19:18:14Z</time>
      </trkpt>
      <trkpt lat="48.83977" lon="2.44662">
        <ele>48.599998474121</ele>
        <time>2015-08-03T19:18:19Z</time>
      </trkpt>
      <trkpt lat="48.83969" lon="2.44686">
        <ele>47.79999923706</ele>
        <time>2015-08-03T19:18:46Z</time>
      </trkpt>
      <trkpt lat="48.83967" lon="2.44718">
        <ele>47.599998474121</ele>
        <time>2015-08-03T19:18:53Z</time>
      </trkpt>
      <trkpt lat="48.83965" lon="2.44746">
        <ele>46.79999923706</ele>
        <time>2015-08-03T19:19:00Z</time>
      </trkpt>
      <trkpt lat="48.83959" lon="2.44772">
        <ele>43.400001525879</ele>
        <time>2015-08-03T19:19:16Z</time>
      </trkpt>
      <trkpt lat="48.83954" lon="2.448">
        <ele>42.79999923706</ele>
        <time>2015-08-03T19:19:30Z</time>
      </trkpt>
      <trkpt lat="48.83945" lon="2.44827">
        <ele>41.79999923706</ele>
        <time>2015-08-03T19:19:37Z</time>
      </trkpt>
      <trkpt lat="48.83936" lon="2.44853">
        <ele>40.20000076294</ele>
        <time>2015-08-03T19:19:45Z</time>
      </trkpt>
      <trkpt lat="48.83926" lon="2.44876">
        <ele>38.20000076294</ele>
        <time>2015-08-03T19:19:52Z</time>
      </trkpt>
      <trkpt lat="48.83915" lon="2.449">
        <ele>36.20000076294</ele>
        <time>2015-08-03T19:19:58Z</time>
      </trkpt>
      <trkpt lat="48.83904" lon="2.44922">
        <ele>34</ele>
        <time>2015-08-03T19:20:03Z</time>
      </trkpt>
      <trkpt lat="48.8389" lon="2.4495">
        <ele>34</ele>
        <time>2015-08-03T19:20:08Z</time>
      </trkpt>
      <trkpt lat="48.83877" lon="2.44972">
        <ele>36.599998474121</ele>
        <time>2015-08-03T19:20:12Z</time>
      </trkpt>
      <trkpt lat="48.83862" lon="2.44999">
        <ele>40</ele>
        <time>2015-08-03T19:20:17Z</time>
      </trkpt>
      <trkpt lat="48.8385" lon="2.45021">
        <ele>43</ele>
        <time>2015-08-03T19:20:21Z</time>
      </trkpt>
      <trkpt lat="48.83837" lon="2.45048">
        <ele>45.599998474121</ele>
        <time>2015-08-03T19:20:26Z</time>
      </trkpt>
      <trkpt lat="48.83825" lon="2.45069">
        <ele>47.20000076294</ele>
        <time>2015-08-03T19:20:30Z</time>
      </trkpt>
      <trkpt lat="48.83812" lon="2.45094">
        <ele>46.79999923706</ele>
        <time>2015-08-03T19:20:34Z</time>
      </trkpt>
      <trkpt lat="48.83799" lon="2.45118">
        <ele>49.599998474121</ele>
        <time>2015-08-03T19:20:38Z</time>
      </trkpt>
      <trkpt lat="48.83796" lon="2.45124">
        <ele>50</ele>
        <time>2015-08-03T19:20:39Z</time>
      </trkpt>
      <trkpt lat="48.83783" lon="2.45146">
        <ele>52.20000076294</ele>
        <time>2015-08-03T19:20:43Z</time>
      </trkpt>
      <trkpt lat="48.83777" lon="2.4516">
        <ele>53.599998474121</ele>
        <time>2015-08-03T19:20:46Z</time>
      </trkpt>
      <trkpt lat="48.83772" lon="2.45172">
        <ele>53.20000076294</ele>
        <time>2015-08-03T19:20:49Z</time>
      </trkpt>
      <trkpt lat="48.83762" lon="2.45189">
        <ele>52.599998474121</ele>
        <time>2015-08-03T19:20:55Z</time>
      </trkpt>
      <trkpt lat="48.83757" lon="2.45197">
        <ele>52.599998474121</ele>
        <time>2015-08-03T19:20:58Z</time>
      </trkpt>
      <trkpt lat="48.83743" lon="2.45216">
        <ele>48.599998474121</ele>
        <time>2015-08-03T19:21:07Z</time>
      </trkpt>
      <trkpt lat="48.83728" lon="2.45237">
        <ele>46.79999923706</ele>
        <time>2015-08-03T19:21:15Z</time>
      </trkpt>
      <trkpt lat="48.83717" lon="2.45259">
        <ele>46</ele>
        <time>2015-08-03T19:21:22Z</time>
      </trkpt>
      <trkpt lat="48.83703" lon="2.45283">
        <ele>46.79999923706</ele>
        <time>2015-08-03T19:21:28Z</time>
      </trkpt>
      <trkpt lat="48.83692" lon="2.45307">
        <ele>47.20000076294</ele>
        <time>2015-08-03T19:21:33Z</time>
      </trkpt>
      <trkpt lat="48.83682" lon="2.45334">
        <ele>48.79999923706</ele>
        <time>2015-08-03T19:21:38Z</time>
      </trkpt>
      <trkpt lat="48.83675" lon="2.45362">
        <ele>50</ele>
        <time>2015-08-03T19:21:43Z</time>
      </trkpt>
      <trkpt lat="48.8367" lon="2.45392">
        <ele>50.599998474121</ele>
        <time>2015-08-03T19:21:48Z</time>
      </trkpt>
      <trkpt lat="48.83668" lon="2.45419">
        <ele>51</ele>
        <time>2015-08-03T19:21:52Z</time>
      </trkpt>
      <trkpt lat="48.83667" lon="2.45449">
        <ele>49.79999923706</ele>
        <time>2015-08-03T19:21:56Z</time>
      </trkpt>
      <trkpt lat="48.83665" lon="2.45478">
        <ele>49.599998474121</ele>
        <time>2015-08-03T19:22:01Z</time>
      </trkpt>
      <trkpt lat="48.83664" lon="2.45506">
        <ele>48.79999923706</ele>
        <time>2015-08-03T19:22:06Z</time>
      </trkpt>
      <trkpt lat="48.83663" lon="2.45537">
        <ele>49.599998474121</ele>
        <time>2015-08-03T19:22:12Z</time>
      </trkpt>
      <trkpt lat="48.83673" lon="2.45565">
        <ele>47.400001525879</ele>
        <time>2015-08-03T19:22:19Z</time>
      </trkpt>
      <trkpt lat="48.83686" lon="2.45585">
        <ele>46</ele>
        <time>2015-08-03T19:22:27Z</time>
      </trkpt>
      <trkpt lat="48.83693" lon="2.45594">
        <ele>46.20000076294</ele>
        <time>2015-08-03T19:22:34Z</time>
      </trkpt>
      <trkpt lat="48.83673" lon="2.45592">
        <ele>47.400001525879</ele>
        <time>2015-08-03T19:22:44Z</time>
      </trkpt>
      <trkpt lat="48.83653" lon="2.45592">
        <ele>46.79999923706</ele>
        <time>2015-08-03T19:22:51Z</time>
      </trkpt>
      <trkpt lat="48.83631" lon="2.45592">
        <ele>45.79999923706</ele>
        <time>2015-08-03T19:22:57Z</time>
      </trkpt>
      <trkpt lat="48.83613" lon="2.45591">
        <ele>45.20000076294</ele>
        <time>2015-08-03T19:23:02Z</time>
      </trkpt>
      <trkpt lat="48.83592" lon="2.45589">
        <ele>44.20000076294</ele>
        <time>2015-08-03T19:23:08Z</time>
      </trkpt>
      <trkpt lat="48.83574" lon="2.45584">
        <ele>44.20000076294</ele>
        <time>2015-08-03T19:23:13Z</time>
      </trkpt>
      <trkpt lat="48.83555" lon="2.45578">
        <ele>42.599998474121</ele>
        <time>2015-08-03T19:23:19Z</time>
      </trkpt>
      <trkpt lat="48.83536" lon="2.4558">
        <ele>43.20000076294</ele>
        <time>2015-08-03T19:23:26Z</time>
      </trkpt>
      <trkpt lat="48.83519" lon="2.45591">
        <ele>43</ele>
        <time>2015-08-03T19:23:32Z</time>
      </trkpt>
      <trkpt lat="48.835" lon="2.45604">
        <ele>43.400001525879</ele>
        <time>2015-08-03T19:23:38Z</time>
      </trkpt>
      <trkpt lat="48.83483" lon="2.45618">
        <ele>44.79999923706</ele>
        <time>2015-08-03T19:23:43Z</time>
      </trkpt>
      <trkpt lat="48.83465" lon="2.45634">
        <ele>46</ele>
        <time>2015-08-03T19:23:49Z</time>
      </trkpt>
      <trkpt lat="48.83448" lon="2.45653">
        <ele>46.599998474121</ele>
        <time>2015-08-03T19:23:55Z</time>
      </trkpt>
      <trkpt lat="48.83434" lon="2.45672">
        <ele>47.20000076294</ele>
        <time>2015-08-03T19:24:01Z</time>
      </trkpt>
      <trkpt lat="48.83419" lon="2.45691">
        <ele>47</ele>
        <time>2015-08-03T19:24:08Z</time>
      </trkpt>
      <trkpt lat="48.83404" lon="2.45709">
        <ele>47.400001525879</ele>
        <time>2015-08-03T19:24:14Z</time>
      </trkpt>
      <trkpt lat="48.83392" lon="2.4573">
        <ele>46.400001525879</ele>
        <time>2015-08-03T19:24:19Z</time>
      </trkpt>
      <trkpt lat="48.83381" lon="2.45755">
        <ele>48.20000076294</ele>
        <time>2015-08-03T19:24:24Z</time>
      </trkpt>
      <trkpt lat="48.83371" lon="2.45781">
        <ele>49.79999923706</ele>
        <time>2015-08-03T19:24:29Z</time>
      </trkpt>
      <trkpt lat="48.8336" lon="2.45807">
        <ele>50.599998474121</ele>
        <time>2015-08-03T19:24:36Z</time>
      </trkpt>
      <trkpt lat="48.83349" lon="2.45835">
        <ele>52.20000076294</ele>
        <time>2015-08-03T19:24:42Z</time>
      </trkpt>
      <trkpt lat="48.83346" lon="2.45864">
        <ele>54</ele>
        <time>2015-08-03T19:24:47Z</time>
      </trkpt>
      <trkpt lat="48.83345" lon="2.45894">
        <ele>56.20000076294</ele>
        <time>2015-08-03T19:24:52Z</time>
      </trkpt>
      <trkpt lat="48.83346" lon="2.45922">
        <ele>55.79999923706</ele>
        <time>2015-08-03T19:24:57Z</time>
      </trkpt>
      <trkpt lat="48.8335" lon="2.45954">
        <ele>53.599998474121</ele>
        <time>2015-08-03T19:25:03Z</time>
      </trkpt>
      <trkpt lat="48.83354" lon="2.45985">
        <ele>54</ele>
        <time>2015-08-03T19:25:09Z</time>
      </trkpt>
      <trkpt lat="48.83359" lon="2.46012">
        <ele>54.20000076294</ele>
        <time>2015-08-03T19:25:14Z</time>
      </trkpt>
      <trkpt lat="48.83366" lon="2.46042">
        <ele>55.400001525879</ele>
        <time>2015-08-03T19:25:20Z</time>
      </trkpt>
      <trkpt lat="48.83374" lon="2.46068">
        <ele>55.20000076294</ele>
        <time>2015-08-03T19:25:25Z</time>
      </trkpt>
      <trkpt lat="48.83384" lon="2.46093">
        <ele>54</ele>
        <time>2015-08-03T19:25:30Z</time>
      </trkpt>
      <trkpt lat="48.83395" lon="2.46118">
        <ele>54.400001525879</ele>
        <time>2015-08-03T19:25:35Z</time>
      </trkpt>
      <trkpt lat="48.83406" lon="2.4614">
        <ele>52.20000076294</ele>
        <time>2015-08-03T19:25:40Z</time>
      </trkpt>
      <trkpt lat="48.83418" lon="2.46162">
        <ele>51.599998474121</ele>
        <time>2015-08-03T19:25:46Z</time>
      </trkpt>
      <trkpt lat="48.83422" lon="2.46167">
        <ele>51.400001525879</ele>
        <time>2015-08-03T19:25:49Z</time>
      </trkpt>
      <trkpt lat="48.8343" lon="2.46151">
        <ele>52</ele>
        <time>2015-08-03T19:25:57Z</time>
      </trkpt>
      <trkpt lat="48.83448" lon="2.46149">
        <ele>51.400001525879</ele>
        <time>2015-08-03T19:26:02Z</time>
      </trkpt>
      <trkpt lat="48.83468" lon="2.46144">
        <ele>51.20000076294</ele>
        <time>2015-08-03T19:26:08Z</time>
      </trkpt>
      <trkpt lat="48.83486" lon="2.46133">
        <ele>50.20000076294</ele>
        <time>2015-08-03T19:26:13Z</time>
      </trkpt>
      <trkpt lat="48.83504" lon="2.46119">
        <ele>49.79999923706</ele>
        <time>2015-08-03T19:26:19Z</time>
      </trkpt>
      <trkpt lat="48.83517" lon="2.46094">
        <ele>51.400001525879</ele>
        <time>2015-08-03T19:26:26Z</time>
      </trkpt>
      <trkpt lat="48.83521" lon="2.46067">
        <ele>52.20000076294</ele>
        <time>2015-08-03T19:26:31Z</time>
      </trkpt>
      <trkpt lat="48.83527" lon="2.46036">
        <ele>52</ele>
        <time>2015-08-03T19:26:36Z</time>
      </trkpt>
      <trkpt lat="48.83538" lon="2.4601">
        <ele>49.599998474121</ele>
        <time>2015-08-03T19:26:42Z</time>
      </trkpt>
      <trkpt lat="48.83553" lon="2.45993">
        <ele>48.20000076294</ele>
        <time>2015-08-03T19:26:49Z</time>
      </trkpt>
      <trkpt lat="48.83572" lon="2.45982">
        <ele>46.20000076294</ele>
        <time>2015-08-03T19:26:56Z</time>
      </trkpt>
      <trkpt lat="48.83589" lon="2.45973">
        <ele>46</ele>
        <time>2015-08-03T19:27:02Z</time>
      </trkpt>
      <trkpt lat="48.83606" lon="2.45959">
        <ele>46.400001525879</ele>
        <time>2015-08-03T19:27:11Z</time>
      </trkpt>
      <trkpt lat="48.83626" lon="2.45953">
        <ele>45.20000076294</ele>
        <time>2015-08-03T19:27:18Z</time>
      </trkpt>
      <trkpt lat="48.83645" lon="2.45952">
        <ele>46</ele>
        <time>2015-08-03T19:27:24Z</time>
      </trkpt>
      <trkpt lat="48.83664" lon="2.45951">
        <ele>44.20000076294</ele>
        <time>2015-08-03T19:27:30Z</time>
      </trkpt>
      <trkpt lat="48.83684" lon="2.45952">
        <ele>44.79999923706</ele>
        <time>2015-08-03T19:27:36Z</time>
      </trkpt>
      <trkpt lat="48.83705" lon="2.4596">
        <ele>44.20000076294</ele>
        <time>2015-08-03T19:27:43Z</time>
      </trkpt>
      <trkpt lat="48.83724" lon="2.45966">
        <ele>43</ele>
        <time>2015-08-03T19:27:50Z</time>
      </trkpt>
      <trkpt lat="48.8374" lon="2.45978">
        <ele>39</ele>
        <time>2015-08-03T19:27:56Z</time>
      </trkpt>
      <trkpt lat="48.83754" lon="2.45996">
        <ele>34.400001525879</ele>
        <time>2015-08-03T19:28:02Z</time>
      </trkpt>
      <trkpt lat="48.83768" lon="2.46017">
        <ele>33.20000076294</ele>
        <time>2015-08-03T19:28:08Z</time>
      </trkpt>
      <trkpt lat="48.83782" lon="2.46037">
        <ele>33.400001525879</ele>
        <time>2015-08-03T19:28:14Z</time>
      </trkpt>
      <trkpt lat="48.83797" lon="2.46053">
        <ele>34.599998474121</ele>
        <time>2015-08-03T19:28:20Z</time>
      </trkpt>
      <trkpt lat="48.83817" lon="2.46058">
        <ele>39.599998474121</ele>
        <time>2015-08-03T19:28:26Z</time>
      </trkpt>
      <trkpt lat="48.83837" lon="2.46062">
        <ele>40.20000076294</ele>
        <time>2015-08-03T19:28:34Z</time>
      </trkpt>
      <trkpt lat="48.83856" lon="2.4606">
        <ele>39.599998474121</ele>
        <time>2015-08-03T19:28:44Z</time>
      </trkpt>
      <trkpt lat="48.83874" lon="2.46065">
        <ele>39.400001525879</ele>
        <time>2015-08-03T19:28:56Z</time>
      </trkpt>
      <trkpt lat="48.83876" lon="2.46066">
        <ele>39.400001525879</ele>
        <time>2015-08-03T19:29:00Z</time>
      </trkpt>
      <trkpt lat="48.83893" lon="2.46062">
        <ele>47.20000076294</ele>
        <time>2015-08-03T19:29:54Z</time>
      </trkpt>
      <trkpt lat="48.83894" lon="2.46061">
        <ele>47.400001525879</ele>
        <time>2015-08-03T19:29:55Z</time>
      </trkpt>
      <trkpt lat="48.83899" lon="2.4605">
        <ele>47.20000076294</ele>
        <time>2015-08-03T19:29:59Z</time>
      </trkpt>
      <trkpt lat="48.83902" lon="2.46048">
        <ele>47</ele>
        <time>2015-08-03T19:30:00Z</time>
      </trkpt>
      <trkpt lat="48.83916" lon="2.46053">
        <ele>46.20000076294</ele>
        <time>2015-08-03T19:30:05Z</time>
      </trkpt>
      <trkpt lat="48.8393" lon="2.46069">
        <ele>46</ele>
        <time>2015-08-03T19:30:10Z</time>
      </trkpt>
      <trkpt lat="48.83946" lon="2.46085">
        <ele>45.599998474121</ele>
        <time>2015-08-03T19:30:15Z</time>
      </trkpt>
      <trkpt lat="48.83962" lon="2.46095">
        <ele>44.79999923706</ele>
        <time>2015-08-03T19:30:19Z</time>
      </trkpt>
      <trkpt lat="48.83979" lon="2.46108">
        <ele>44.400001525879</ele>
        <time>2015-08-03T19:30:23Z</time>
      </trkpt>
      <trkpt lat="48.83999" lon="2.4612">
        <ele>44.599998474121</ele>
        <time>2015-08-03T19:30:28Z</time>
      </trkpt>
      <trkpt lat="48.84016" lon="2.46131">
        <ele>43.599998474121</ele>
        <time>2015-08-03T19:30:32Z</time>
      </trkpt>
      <trkpt lat="48.84034" lon="2.46142">
        <ele>42.79999923706</ele>
        <time>2015-08-03T19:30:36Z</time>
      </trkpt>
      <trkpt lat="48.84054" lon="2.4615">
        <ele>42</ele>
        <time>2015-08-03T19:30:40Z</time>
      </trkpt>
      <trkpt lat="48.84058" lon="2.46152">
        <ele>42.20000076294</ele>
        <time>2015-08-03T19:30:41Z</time>
      </trkpt>
      <trkpt lat="48.84079" lon="2.46159">
        <ele>46.599998474121</ele>
        <time>2015-08-03T19:30:46Z</time>
      </trkpt>
      <trkpt lat="48.84089" lon="2.46165">
        <ele>46.599998474121</ele>
        <time>2015-08-03T19:30:48Z</time>
      </trkpt>
      <trkpt lat="48.84108" lon="2.46176">
        <ele>48.79999923706</ele>
        <time>2015-08-03T19:30:52Z</time>
      </trkpt>
      <trkpt lat="48.84118" lon="2.46182">
        <ele>49</ele>
        <time>2015-08-03T19:30:54Z</time>
      </trkpt>
      <trkpt lat="48.84134" lon="2.46197">
        <ele>49.599998474121</ele>
        <time>2015-08-03T19:30:57Z</time>
      </trkpt>
      <trkpt lat="48.84149" lon="2.46213">
        <ele>50.400001525879</ele>
        <time>2015-08-03T19:31:00Z</time>
      </trkpt>
      <trkpt lat="48.84154" lon="2.46219">
        <ele>49.79999923706</ele>
        <time>2015-08-03T19:31:01Z</time>
      </trkpt>
      <trkpt lat="48.84164" lon="2.46227">
        <ele>50</ele>
        <time>2015-08-03T19:31:03Z</time>
      </trkpt>
      <trkpt lat="48.84179" lon="2.46244">
        <ele>49.79999923706</ele>
        <time>2015-08-03T19:31:07Z</time>
      </trkpt>
      <trkpt lat="48.84195" lon="2.46266">
        <ele>51.79999923706</ele>
        <time>2015-08-03T19:31:12Z</time>
      </trkpt>
      <trkpt lat="48.84202" lon="2.46278">
        <ele>53.400001525879</ele>
        <time>2015-08-03T19:31:15Z</time>
      </trkpt>
      <trkpt lat="48.84219" lon="2.46278">
        <ele>57.599998474121</ele>
        <time>2015-08-03T19:31:21Z</time>
      </trkpt>
      <trkpt lat="48.84221" lon="2.46273">
        <ele>58.400001525879</ele>
        <time>2015-08-03T19:31:22Z</time>
      </trkpt>
      <trkpt lat="48.84228" lon="2.46258">
        <ele>59.79999923706</ele>
        <time>2015-08-03T19:31:25Z</time>
      </trkpt>
      <trkpt lat="48.84236" lon="2.46234">
        <ele>60.400001525879</ele>
        <time>2015-08-03T19:31:29Z</time>
      </trkpt>
      <trkpt lat="48.84244" lon="2.46207">
        <ele>60.400001525879</ele>
        <time>2015-08-03T19:31:33Z</time>
      </trkpt>
      <trkpt lat="48.84248" lon="2.46201">
        <ele>60.400001525879</ele>
        <time>2015-08-03T19:31:34Z</time>
      </trkpt>
      <trkpt lat="48.84258" lon="2.46173">
        <ele>60.79999923706</ele>
        <time>2015-08-03T19:31:38Z</time>
      </trkpt>
      <trkpt lat="48.84264" lon="2.46157">
        <ele>60.599998474121</ele>
        <time>2015-08-03T19:31:40Z</time>
      </trkpt>
      <trkpt lat="48.8427" lon="2.4614">
        <ele>59.79999923706</ele>
        <time>2015-08-03T19:31:42Z</time>
      </trkpt>
      <trkpt lat="48.84279" lon="2.46114">
        <ele>58.400001525879</ele>
        <time>2015-08-03T19:31:45Z</time>
      </trkpt>
      <trkpt lat="48.84285" lon="2.46087">
        <ele>57.20000076294</ele>
        <time>2015-08-03T19:31:48Z</time>
      </trkpt>
      <trkpt lat="48.84293" lon="2.46058">
        <ele>56.599998474121</ele>
        <time>2015-08-03T19:31:52Z</time>
      </trkpt>
      <trkpt lat="48.84299" lon="2.4603">
        <ele>57.20000076294</ele>
        <time>2015-08-03T19:31:56Z</time>
      </trkpt>
      <trkpt lat="48.84303" lon="2.46015">
        <ele>56.599998474121</ele>
        <time>2015-08-03T19:31:58Z</time>
      </trkpt>
      <trkpt lat="48.8431" lon="2.45983">
        <ele>55.20000076294</ele>
        <time>2015-08-03T19:32:02Z</time>
      </trkpt>
      <trkpt lat="48.84316" lon="2.45948">
        <ele>53.79999923706</ele>
        <time>2015-08-03T19:32:06Z</time>
      </trkpt>
      <trkpt lat="48.84322" lon="2.45919">
        <ele>52.400001525879</ele>
        <time>2015-08-03T19:32:09Z</time>
      </trkpt>
      <trkpt lat="48.84327" lon="2.45891">
        <ele>51.20000076294</ele>
        <time>2015-08-03T19:32:12Z</time>
      </trkpt>
      <trkpt lat="48.84329" lon="2.45882">
        <ele>51</ele>
        <time>2015-08-03T19:32:13Z</time>
      </trkpt>
      <trkpt lat="48.84334" lon="2.45854">
        <ele>50.79999923706</ele>
        <time>2015-08-03T19:32:16Z</time>
      </trkpt>
      <trkpt lat="48.84339" lon="2.45825">
        <ele>50.79999923706</ele>
        <time>2015-08-03T19:32:19Z</time>
      </trkpt>
      <trkpt lat="48.84344" lon="2.45792">
        <ele>51</ele>
        <time>2015-08-03T19:32:22Z</time>
      </trkpt>
      <trkpt lat="48.84349" lon="2.4576">
        <ele>51</ele>
        <time>2015-08-03T19:32:25Z</time>
      </trkpt>
      <trkpt lat="48.84356" lon="2.45728">
        <ele>50.20000076294</ele>
        <time>2015-08-03T19:32:28Z</time>
      </trkpt>
      <trkpt lat="48.84362" lon="2.45704">
        <ele>48.599998474121</ele>
        <time>2015-08-03T19:32:30Z</time>
      </trkpt>
      <trkpt lat="48.84367" lon="2.45671">
        <ele>47.20000076294</ele>
        <time>2015-08-03T19:32:33Z</time>
      </trkpt>
      <trkpt lat="48.8437" lon="2.45637">
        <ele>44.599998474121</ele>
        <time>2015-08-03T19:32:36Z</time>
      </trkpt>
      <trkpt lat="48.84375" lon="2.45601">
        <ele>43.79999923706</ele>
        <time>2015-08-03T19:32:39Z</time>
      </trkpt>
      <trkpt lat="48.84378" lon="2.45578">
        <ele>43</ele>
        <time>2015-08-03T19:32:41Z</time>
      </trkpt>
      <trkpt lat="48.84384" lon="2.4554">
        <ele>41.400001525879</ele>
        <time>2015-08-03T19:32:44Z</time>
      </trkpt>
      <trkpt lat="48.84389" lon="2.45502">
        <ele>39.79999923706</ele>
        <time>2015-08-03T19:32:47Z</time>
      </trkpt>
      <trkpt lat="48.84394" lon="2.45465">
        <ele>38.400001525879</ele>
        <time>2015-08-03T19:32:50Z</time>
      </trkpt>
      <trkpt lat="48.84399" lon="2.45427">
        <ele>37.400001525879</ele>
        <time>2015-08-03T19:32:53Z</time>
      </trkpt>
      <trkpt lat="48.84401" lon="2.45415">
        <ele>37.20000076294</ele>
        <time>2015-08-03T19:32:54Z</time>
      </trkpt>
      <trkpt lat="48.84405" lon="2.45391">
        <ele>36.599998474121</ele>
        <time>2015-08-03T19:32:56Z</time>
      </trkpt>
      <trkpt lat="48.84408" lon="2.45356">
        <ele>36.400001525879</ele>
        <time>2015-08-03T19:32:59Z</time>
      </trkpt>
      <trkpt lat="48.84409" lon="2.45344">
        <ele>36.400001525879</ele>
        <time>2015-08-03T19:33:00Z</time>
      </trkpt>
      <trkpt lat="48.84413" lon="2.45312">
        <ele>36.400001525879</ele>
        <time>2015-08-03T19:33:03Z</time>
      </trkpt>
      <trkpt lat="48.84417" lon="2.45282">
        <ele>37.599998474121</ele>
        <time>2015-08-03T19:33:06Z</time>
      </trkpt>
      <trkpt lat="48.84421" lon="2.45251">
        <ele>38</ele>
        <time>2015-08-03T19:33:09Z</time>
      </trkpt>
      <trkpt lat="48.84427" lon="2.45218">
        <ele>39</ele>
        <time>2015-08-03T19:33:12Z</time>
      </trkpt>
      <trkpt lat="48.84433" lon="2.45182">
        <ele>38.79999923706</ele>
        <time>2015-08-03T19:33:15Z</time>
      </trkpt>
      <trkpt lat="48.84437" lon="2.45147">
        <ele>39.400001525879</ele>
        <time>2015-08-03T19:33:18Z</time>
      </trkpt>
      <trkpt lat="48.84443" lon="2.45116">
        <ele>40.400001525879</ele>
        <time>2015-08-03T19:33:21Z</time>
      </trkpt>
      <trkpt lat="48.8445" lon="2.45084">
        <ele>42</ele>
        <time>2015-08-03T19:33:25Z</time>
      </trkpt>
      <trkpt lat="48.84452" lon="2.45071">
        <ele>42.599998474121</ele>
        <time>2015-08-03T19:33:27Z</time>
      </trkpt>
      <trkpt lat="48.84456" lon="2.4504">
        <ele>44</ele>
        <time>2015-08-03T19:33:32Z</time>
      </trkpt>
      <trkpt lat="48.84459" lon="2.45023">
        <ele>43.79999923706</ele>
        <time>2015-08-03T19:33:35Z</time>
      </trkpt>
      <trkpt lat="48.84463" lon="2.45001">
        <ele>42.79999923706</ele>
        <time>2015-08-03T19:33:39Z</time>
      </trkpt>
      <trkpt lat="48.84468" lon="2.44969">
        <ele>43</ele>
        <time>2015-08-03T19:33:44Z</time>
      </trkpt>
      <trkpt lat="48.84473" lon="2.44937">
        <ele>43.79999923706</ele>
        <time>2015-08-03T19:33:49Z</time>
      </trkpt>
      <trkpt lat="48.84475" lon="2.44917">
        <ele>44.79999923706</ele>
        <time>2015-08-03T19:33:52Z</time>
      </trkpt>
      <trkpt lat="48.84477" lon="2.44889">
        <ele>46</ele>
        <time>2015-08-03T19:33:56Z</time>
      </trkpt>
      <trkpt lat="48.84477" lon="2.44883">
        <ele>46.400001525879</ele>
        <time>2015-08-03T19:33:57Z</time>
      </trkpt>
      <trkpt lat="48.84481" lon="2.44849">
        <ele>47</ele>
        <time>2015-08-03T19:34:02Z</time>
      </trkpt>
      <trkpt lat="48.84482" lon="2.44835">
        <ele>47</ele>
        <time>2015-08-03T19:34:04Z</time>
      </trkpt>
      <trkpt lat="48.84485" lon="2.44805">
        <ele>46.599998474121</ele>
        <time>2015-08-03T19:34:08Z</time>
      </trkpt>
      <trkpt lat="48.84488" lon="2.44773">
        <ele>45.79999923706</ele>
        <time>2015-08-03T19:34:12Z</time>
      </trkpt>
      <trkpt lat="48.84489" lon="2.44756">
        <ele>45.599998474121</ele>
        <time>2015-08-03T19:34:14Z</time>
      </trkpt>
      <trkpt lat="48.8449" lon="2.44722">
        <ele>46</ele>
        <time>2015-08-03T19:34:18Z</time>
      </trkpt>
      <trkpt lat="48.84493" lon="2.44689">
        <ele>45.20000076294</ele>
        <time>2015-08-03T19:34:22Z</time>
      </trkpt>
      <trkpt lat="48.84494" lon="2.44668">
        <ele>45</ele>
        <time>2015-08-03T19:34:25Z</time>
      </trkpt>
      <trkpt lat="48.84509" lon="2.44654">
        <ele>45.20000076294</ele>
        <time>2015-08-03T19:34:30Z</time>
      </trkpt>
      <trkpt lat="48.84518" lon="2.44656">
        <ele>45.400001525879</ele>
        <time>2015-08-03T19:34:32Z</time>
      </trkpt>
      <trkpt lat="48.84526" lon="2.44659">
        <ele>45.599998474121</ele>
        <time>2015-08-03T19:34:34Z</time>
      </trkpt>
      <trkpt lat="48.84538" lon="2.44661">
        <ele>46.400001525879</ele>
        <time>2015-08-03T19:34:37Z</time>
      </trkpt>
      <trkpt lat="48.84549" lon="2.44663">
        <ele>47.400001525879</ele>
        <time>2015-08-03T19:34:40Z</time>
      </trkpt>
      <trkpt lat="48.84567" lon="2.44665">
        <ele>47</ele>
        <time>2015-08-03T19:34:46Z</time>
      </trkpt>
      <trkpt lat="48.84574" lon="2.44664">
        <ele>48.599998474121</ele>
        <time>2015-08-03T19:34:50Z</time>
      </trkpt>
      <trkpt lat="48.84574" lon="2.44642">
        <ele>52.400001525879</ele>
        <time>2015-08-03T19:35:10Z</time>
      </trkpt>
      <trkpt lat="48.84575" lon="2.44614">
        <ele>51.400001525879</ele>
        <time>2015-08-03T19:35:15Z</time>
      </trkpt>
      <trkpt lat="48.84579" lon="2.44583">
        <ele>50</ele>
        <time>2015-08-03T19:35:19Z</time>
      </trkpt>
      <trkpt lat="48.84582" lon="2.44549">
        <ele>48.20000076294</ele>
        <time>2015-08-03T19:35:23Z</time>
      </trkpt>
      <trkpt lat="48.84584" lon="2.44514">
        <ele>48</ele>
        <time>2015-08-03T19:35:27Z</time>
      </trkpt>
      <trkpt lat="48.84585" lon="2.44482">
        <ele>47.79999923706</ele>
        <time>2015-08-03T19:35:31Z</time>
      </trkpt>
      <trkpt lat="48.84586" lon="2.44451">
        <ele>47.20000076294</ele>
        <time>2015-08-03T19:35:35Z</time>
      </trkpt>
      <trkpt lat="48.84588" lon="2.44423">
        <ele>47.400001525879</ele>
        <time>2015-08-03T19:35:39Z</time>
      </trkpt>
      <trkpt lat="48.84588" lon="2.44408">
        <ele>47.20000076294</ele>
        <time>2015-08-03T19:35:41Z</time>
      </trkpt>
      <trkpt lat="48.84588" lon="2.44387">
        <ele>44.400001525879</ele>
        <time>2015-08-03T19:35:44Z</time>
      </trkpt>
      <trkpt lat="48.84589" lon="2.44373">
        <ele>43</ele>
        <time>2015-08-03T19:35:46Z</time>
      </trkpt>
      <trkpt lat="48.8459" lon="2.44344">
        <ele>41.20000076294</ele>
        <time>2015-08-03T19:35:50Z</time>
      </trkpt>
      <trkpt lat="48.8459" lon="2.4432">
        <ele>41.400001525879</ele>
        <time>2015-08-03T19:35:53Z</time>
      </trkpt>
      <trkpt lat="48.8459" lon="2.4429">
        <ele>41.599998474121</ele>
        <time>2015-08-03T19:35:57Z</time>
      </trkpt>
      <trkpt lat="48.84592" lon="2.44259">
        <ele>42.599998474121</ele>
        <time>2015-08-03T19:36:01Z</time>
      </trkpt>
      <trkpt lat="48.84592" lon="2.44228">
        <ele>43.400001525879</ele>
        <time>2015-08-03T19:36:06Z</time>
      </trkpt>
      <trkpt lat="48.8459" lon="2.44212">
        <ele>45.599998474121</ele>
        <time>2015-08-03T19:36:09Z</time>
      </trkpt>
      <trkpt lat="48.84589" lon="2.44185">
        <ele>47.400001525879</ele>
        <time>2015-08-03T19:36:13Z</time>
      </trkpt>
      <trkpt lat="48.8459" lon="2.44154">
        <ele>46</ele>
        <time>2015-08-03T19:36:17Z</time>
      </trkpt>
      <trkpt lat="48.84592" lon="2.44125">
        <ele>45.79999923706</ele>
        <time>2015-08-03T19:36:21Z</time>
      </trkpt>
      <trkpt lat="48.84592" lon="2.44111">
        <ele>46</ele>
        <time>2015-08-03T19:36:23Z</time>
      </trkpt>
      <trkpt lat="48.84594" lon="2.44093">
        <ele>45</ele>
        <time>2015-08-03T19:36:26Z</time>
      </trkpt>
      <trkpt lat="48.84597" lon="2.4406">
        <ele>43.20000076294</ele>
        <time>2015-08-03T19:36:31Z</time>
      </trkpt>
      <trkpt lat="48.84599" lon="2.44047">
        <ele>42.79999923706</ele>
        <time>2015-08-03T19:36:33Z</time>
      </trkpt>
      <trkpt lat="48.846" lon="2.44028">
        <ele>41.79999923706</ele>
        <time>2015-08-03T19:36:36Z</time>
      </trkpt>
      <trkpt lat="48.84603" lon="2.44001">
        <ele>40.599998474121</ele>
        <time>2015-08-03T19:36:41Z</time>
      </trkpt>
      <trkpt lat="48.84604" lon="2.43996">
        <ele>40.20000076294</ele>
        <time>2015-08-03T19:36:42Z</time>
      </trkpt>
      <trkpt lat="48.84604" lon="2.43985">
        <ele>39.79999923706</ele>
        <time>2015-08-03T19:36:46Z</time>
      </trkpt>
      <trkpt lat="48.84603" lon="2.43975">
        <ele>43</ele>
        <time>2015-08-03T19:37:05Z</time>
      </trkpt>
      <trkpt lat="48.84616" lon="2.43968">
        <ele>43.400001525879</ele>
        <time>2015-08-03T19:37:16Z</time>
      </trkpt>
      <trkpt lat="48.84634" lon="2.43962">
        <ele>42.599998474121</ele>
        <time>2015-08-03T19:37:30Z</time>
      </trkpt>
      <trkpt lat="48.84637" lon="2.43948">
        <ele>42</ele>
        <time>2015-08-03T19:37:36Z</time>
      </trkpt>
      <trkpt lat="48.84639" lon="2.43923">
        <ele>41.20000076294</ele>
        <time>2015-08-03T19:37:46Z</time>
      </trkpt>
      <trkpt lat="48.84644" lon="2.43916">
        <ele>41.400001525879</ele>
        <time>2015-08-03T19:37:52Z</time>
      </trkpt>
      <trkpt lat="48.84649" lon="2.43918">
        <ele>41.79999923706</ele>
        <time>2015-08-03T19:37:56Z</time>
      </trkpt>
      <trkpt lat="48.84668" lon="2.4392">
        <ele>41</ele>
        <time>2015-08-03T19:38:04Z</time>
      </trkpt>
      <trkpt lat="48.84675" lon="2.43917">
        <ele>40.400001525879</ele>
        <time>2015-08-03T19:38:08Z</time>
      </trkpt>
      <trkpt lat="48.84695" lon="2.43915">
        <ele>40.599998474121</ele>
        <time>2015-08-03T19:38:20Z</time>
      </trkpt>
      <trkpt lat="48.84701" lon="2.43909">
        <ele>38.79999923706</ele>
        <time>2015-08-03T19:38:25Z</time>
      </trkpt>
      <trkpt lat="48.84703" lon="2.43882">
        <ele>36.20000076294</ele>
        <time>2015-08-03T19:38:34Z</time>
      </trkpt>
      <trkpt lat="48.84704" lon="2.43854">
        <ele>36.20000076294</ele>
        <time>2015-08-03T19:38:40Z</time>
      </trkpt>
      <trkpt lat="48.84708" lon="2.43827">
        <ele>38.400001525879</ele>
        <time>2015-08-03T19:38:47Z</time>
      </trkpt>
      <trkpt lat="48.84707" lon="2.43798">
        <ele>40.400001525879</ele>
        <time>2015-08-03T19:38:54Z</time>
      </trkpt>
      <trkpt lat="48.84709" lon="2.4377">
        <ele>42.400001525879</ele>
        <time>2015-08-03T19:39:00Z</time>
      </trkpt>
      <trkpt lat="48.8471" lon="2.43739">
        <ele>42.20000076294</ele>
        <time>2015-08-03T19:39:08Z</time>
      </trkpt>
      <trkpt lat="48.84712" lon="2.43711">
        <ele>41.79999923706</ele>
        <time>2015-08-03T19:39:15Z</time>
      </trkpt>
      <trkpt lat="48.84714" lon="2.43682">
        <ele>44.20000076294</ele>
        <time>2015-08-03T19:39:23Z</time>
      </trkpt>
      <trkpt lat="48.84714" lon="2.4365">
        <ele>45.599998474121</ele>
        <time>2015-08-03T19:39:30Z</time>
      </trkpt>
      <trkpt lat="48.84717" lon="2.43618">
        <ele>46.599998474121</ele>
        <time>2015-08-03T19:39:36Z</time>
      </trkpt>
      <trkpt lat="48.84719" lon="2.43588">
        <ele>47</ele>
        <time>2015-08-03T19:39:42Z</time>
      </trkpt>
      <trkpt lat="48.8472" lon="2.43559">
        <ele>56</ele>
        <time>2015-08-03T19:39:47Z</time>
      </trkpt>
      <trkpt lat="48.84723" lon="2.43529">
        <ele>58.400001525879</ele>
        <time>2015-08-03T19:39:53Z</time>
      </trkpt>
      <trkpt lat="48.84724" lon="2.43501">
        <ele>59.400001525879</ele>
        <time>2015-08-03T19:39:59Z</time>
      </trkpt>
      <trkpt lat="48.84722" lon="2.43473">
        <ele>57.20000076294</ele>
        <time>2015-08-03T19:40:04Z</time>
      </trkpt>
      <trkpt lat="48.84726" lon="2.43446">
        <ele>55.599998474121</ele>
        <time>2015-08-03T19:40:11Z</time>
      </trkpt>
      <trkpt lat="48.84732" lon="2.4342">
        <ele>54.79999923706</ele>
        <time>2015-08-03T19:40:21Z</time>
      </trkpt>
      <trkpt lat="48.84736" lon="2.43393">
        <ele>56</ele>
        <time>2015-08-03T19:40:29Z</time>
      </trkpt>
      <trkpt lat="48.84738" lon="2.43366">
        <ele>55.400001525879</ele>
        <time>2015-08-03T19:40:36Z</time>
      </trkpt>
      <trkpt lat="48.8474" lon="2.43338">
        <ele>55.400001525879</ele>
        <time>2015-08-03T19:40:43Z</time>
      </trkpt>
      <trkpt lat="48.84742" lon="2.4331">
        <ele>57</ele>
        <time>2015-08-03T19:40:49Z</time>
      </trkpt>
      <trkpt lat="48.84744" lon="2.43283">
        <ele>55.79999923706</ele>
        <time>2015-08-03T19:40:55Z</time>
      </trkpt>
      <trkpt lat="48.84746" lon="2.43254">
        <ele>54.400001525879</ele>
        <time>2015-08-03T19:41:01Z</time>
      </trkpt>
      <trkpt lat="48.84749" lon="2.43227">
        <ele>52.400001525879</ele>
        <time>2015-08-03T19:41:07Z</time>
      </trkpt>
      <trkpt lat="48.84749" lon="2.43198">
        <ele>53.400001525879</ele>
        <time>2015-08-03T19:41:12Z</time>
      </trkpt>
      <trkpt lat="48.84748" lon="2.43171">
        <ele>54</ele>
        <time>2015-08-03T19:41:16Z</time>
      </trkpt>
      <trkpt lat="48.84747" lon="2.4314">
        <ele>54.79999923706</ele>
        <time>2015-08-03T19:41:21Z</time>
      </trkpt>
      <trkpt lat="48.84748" lon="2.43109">
        <ele>54.599998474121</ele>
        <time>2015-08-03T19:41:26Z</time>
      </trkpt>
      <trkpt lat="48.84747" lon="2.43078">
        <ele>57.20000076294</ele>
        <time>2015-08-03T19:41:31Z</time>
      </trkpt>
      <trkpt lat="48.84748" lon="2.43047">
        <ele>56.599998474121</ele>
        <time>2015-08-03T19:41:36Z</time>
      </trkpt>
      <trkpt lat="48.84749" lon="2.43019">
        <ele>55</ele>
        <time>2015-08-03T19:41:40Z</time>
      </trkpt>
      <trkpt lat="48.8475" lon="2.42989">
        <ele>53</ele>
        <time>2015-08-03T19:41:44Z</time>
      </trkpt>
      <trkpt lat="48.84749" lon="2.42958">
        <ele>51.400001525879</ele>
        <time>2015-08-03T19:41:48Z</time>
      </trkpt>
      <trkpt lat="48.84747" lon="2.42926">
        <ele>49.20000076294</ele>
        <time>2015-08-03T19:41:52Z</time>
      </trkpt>
      <trkpt lat="48.84744" lon="2.42896">
        <ele>49</ele>
        <time>2015-08-03T19:41:56Z</time>
      </trkpt>
      <trkpt lat="48.8474" lon="2.42867">
        <ele>49.20000076294</ele>
        <time>2015-08-03T19:42:00Z</time>
      </trkpt>
      <trkpt lat="48.84737" lon="2.42839">
        <ele>49.599998474121</ele>
        <time>2015-08-03T19:42:04Z</time>
      </trkpt>
      <trkpt lat="48.84733" lon="2.42806">
        <ele>50</ele>
        <time>2015-08-03T19:42:09Z</time>
      </trkpt>
      <trkpt lat="48.84729" lon="2.42775">
        <ele>51</ele>
        <time>2015-08-03T19:42:14Z</time>
      </trkpt>
      <trkpt lat="48.84725" lon="2.42744">
        <ele>51</ele>
        <time>2015-08-03T19:42:20Z</time>
      </trkpt>
      <trkpt lat="48.84721" lon="2.42723">
        <ele>52</ele>
        <time>2015-08-03T19:42:24Z</time>
      </trkpt>
      <trkpt lat="48.84715" lon="2.42697">
        <ele>53.79999923706</ele>
        <time>2015-08-03T19:42:29Z</time>
      </trkpt>
      <trkpt lat="48.84714" lon="2.42686">
        <ele>54.20000076294</ele>
        <time>2015-08-03T19:42:31Z</time>
      </trkpt>
      <trkpt lat="48.84709" lon="2.42663">
        <ele>54.79999923706</ele>
        <time>2015-08-03T19:42:36Z</time>
      </trkpt>
      <trkpt lat="48.84708" lon="2.42658">
        <ele>55</ele>
        <time>2015-08-03T19:42:37Z</time>
      </trkpt>
      <trkpt lat="48.847" lon="2.42627">
        <ele>55.20000076294</ele>
        <time>2015-08-03T19:42:43Z</time>
      </trkpt>
      <trkpt lat="48.84693" lon="2.42601">
        <ele>55.20000076294</ele>
        <time>2015-08-03T19:42:48Z</time>
      </trkpt>
      <trkpt lat="48.84685" lon="2.42572">
        <ele>58.20000076294</ele>
        <time>2015-08-03T19:42:53Z</time>
      </trkpt>
      <trkpt lat="48.84676" lon="2.42545">
        <ele>60.79999923706</ele>
        <time>2015-08-03T19:42:58Z</time>
      </trkpt>
      <trkpt lat="48.84666" lon="2.42517">
        <ele>63.79999923706</ele>
        <time>2015-08-03T19:43:03Z</time>
      </trkpt>
      <trkpt lat="48.84655" lon="2.4249">
        <ele>66.800003051758</ele>
        <time>2015-08-03T19:43:08Z</time>
      </trkpt>
      <trkpt lat="48.84645" lon="2.42463">
        <ele>69.599998474121</ele>
        <time>2015-08-03T19:43:13Z</time>
      </trkpt>
      <trkpt lat="48.84637" lon="2.42435">
        <ele>68.199996948242</ele>
        <time>2015-08-03T19:43:18Z</time>
      </trkpt>
      <trkpt lat="48.84627" lon="2.42411">
        <ele>67</ele>
        <time>2015-08-03T19:43:22Z</time>
      </trkpt>
      <trkpt lat="48.84615" lon="2.4239">
        <ele>66</ele>
        <time>2015-08-03T19:43:26Z</time>
      </trkpt>
      <trkpt lat="48.84602" lon="2.42369">
        <ele>60.79999923706</ele>
        <time>2015-08-03T19:43:31Z</time>
      </trkpt>
      <trkpt lat="48.846" lon="2.42363">
        <ele>57.79999923706</ele>
        <time>2015-08-03T19:43:34Z</time>
      </trkpt>
      <trkpt lat="48.84599" lon="2.42333">
        <ele>51</ele>
        <time>2015-08-03T19:43:49Z</time>
      </trkpt>
      <trkpt lat="48.84602" lon="2.42302">
        <ele>50.20000076294</ele>
        <time>2015-08-03T19:43:56Z</time>
      </trkpt>
      <trkpt lat="48.84603" lon="2.42271">
        <ele>49.79999923706</ele>
        <time>2015-08-03T19:44:02Z</time>
      </trkpt>
      <trkpt lat="48.84607" lon="2.42241">
        <ele>49.79999923706</ele>
        <time>2015-08-03T19:44:08Z</time>
      </trkpt>
      <trkpt lat="48.84608" lon="2.4221">
        <ele>49.400001525879</ele>
        <time>2015-08-03T19:44:14Z</time>
      </trkpt>
      <trkpt lat="48.84609" lon="2.42179">
        <ele>52.20000076294</ele>
        <time>2015-08-03T19:44:20Z</time>
      </trkpt>
      <trkpt lat="48.84613" lon="2.4215">
        <ele>52.20000076294</ele>
        <time>2015-08-03T19:44:25Z</time>
      </trkpt>
      <trkpt lat="48.84615" lon="2.42119">
        <ele>54</ele>
        <time>2015-08-03T19:44:30Z</time>
      </trkpt>
      <trkpt lat="48.84618" lon="2.42088">
        <ele>55.79999923706</ele>
        <time>2015-08-03T19:44:35Z</time>
      </trkpt>
      <trkpt lat="48.8462" lon="2.4206">
        <ele>57.599998474121</ele>
        <time>2015-08-03T19:44:40Z</time>
      </trkpt>
      <trkpt lat="48.84623" lon="2.42031">
        <ele>56.79999923706</ele>
        <time>2015-08-03T19:44:45Z</time>
      </trkpt>
      <trkpt lat="48.84626" lon="2.42002">
        <ele>54.79999923706</ele>
        <time>2015-08-03T19:44:49Z</time>
      </trkpt>
      <trkpt lat="48.84629" lon="2.41972">
        <ele>52.599998474121</ele>
        <time>2015-08-03T19:44:53Z</time>
      </trkpt>
      <trkpt lat="48.84632" lon="2.41943">
        <ele>51.79999923706</ele>
        <time>2015-08-03T19:44:57Z</time>
      </trkpt>
      <trkpt lat="48.84635" lon="2.41914">
        <ele>52</ele>
        <time>2015-08-03T19:45:01Z</time>
      </trkpt>
      <trkpt lat="48.84636" lon="2.41883">
        <ele>50</ele>
        <time>2015-08-03T19:45:05Z</time>
      </trkpt>
      <trkpt lat="48.84638" lon="2.41854">
        <ele>50.400001525879</ele>
        <time>2015-08-03T19:45:09Z</time>
      </trkpt>
      <trkpt lat="48.84641" lon="2.41826">
        <ele>50.79999923706</ele>
        <time>2015-08-03T19:45:13Z</time>
      </trkpt>
      <trkpt lat="48.84642" lon="2.41812">
        <ele>51</ele>
        <time>2015-08-03T19:45:15Z</time>
      </trkpt>
      <trkpt lat="48.84647" lon="2.4178">
        <ele>51.400001525879</ele>
        <time>2015-08-03T19:45:20Z</time>
      </trkpt>
      <trkpt lat="48.84652" lon="2.41749">
        <ele>50.20000076294</ele>
        <time>2015-08-03T19:45:25Z</time>
      </trkpt>
      <trkpt lat="48.84653" lon="2.41731">
        <ele>49.599998474121</ele>
        <time>2015-08-03T19:45:28Z</time>
      </trkpt>
      <trkpt lat="48.84656" lon="2.41699">
        <ele>50.400001525879</ele>
        <time>2015-08-03T19:45:33Z</time>
      </trkpt>
      <trkpt lat="48.84659" lon="2.41672">
        <ele>50.599998474121</ele>
        <time>2015-08-03T19:45:37Z</time>
      </trkpt>
      <trkpt lat="48.84663" lon="2.41639">
        <ele>49</ele>
        <time>2015-08-03T19:45:42Z</time>
      </trkpt>
      <trkpt lat="48.84666" lon="2.41608">
        <ele>47.599998474121</ele>
        <time>2015-08-03T19:45:47Z</time>
      </trkpt>
      <trkpt lat="48.84669" lon="2.4158">
        <ele>46.400001525879</ele>
        <time>2015-08-03T19:45:52Z</time>
      </trkpt>
      <trkpt lat="48.84671" lon="2.41553">
        <ele>47.400001525879</ele>
        <time>2015-08-03T19:45:58Z</time>
      </trkpt>
      <trkpt lat="48.84675" lon="2.41535">
        <ele>47.599998474121</ele>
        <time>2015-08-03T19:46:02Z</time>
      </trkpt>
      <trkpt lat="48.84679" lon="2.41523">
        <ele>48.400001525879</ele>
        <time>2015-08-03T19:46:05Z</time>
      </trkpt>
      <trkpt lat="48.84693" lon="2.41501">
        <ele>48.20000076294</ele>
        <time>2015-08-03T19:46:12Z</time>
      </trkpt>
      <trkpt lat="48.84703" lon="2.41478">
        <ele>48.400001525879</ele>
        <time>2015-08-03T19:46:18Z</time>
      </trkpt>
      <trkpt lat="48.84709" lon="2.41451">
        <ele>48.400001525879</ele>
        <time>2015-08-03T19:46:25Z</time>
      </trkpt>
      <trkpt lat="48.84708" lon="2.41421">
        <ele>47.599998474121</ele>
        <time>2015-08-03T19:46:32Z</time>
      </trkpt>
      <trkpt lat="48.84701" lon="2.41394">
        <ele>48.79999923706</ele>
        <time>2015-08-03T19:46:40Z</time>
      </trkpt>
      <trkpt lat="48.84687" lon="2.41377">
        <ele>48</ele>
        <time>2015-08-03T19:46:53Z</time>
      </trkpt>
      <trkpt lat="48.84685" lon="2.41377">
        <ele>47.79999923706</ele>
        <time>2015-08-03T19:46:54Z</time>
      </trkpt>
      <trkpt lat="48.84679" lon="2.41376">
        <ele>48</ele>
        <time>2015-08-03T19:46:58Z</time>
      </trkpt>
      <trkpt lat="48.84661" lon="2.41381">
        <ele>48.599998474121</ele>
        <time>2015-08-03T19:47:09Z</time>
      </trkpt>
      <trkpt lat="48.84643" lon="2.41391">
        <ele>48</ele>
        <time>2015-08-03T19:47:19Z</time>
      </trkpt>
      <trkpt lat="48.84633" lon="2.41395">
        <ele>48.20000076294</ele>
        <time>2015-08-03T19:47:25Z</time>
      </trkpt>
      <trkpt lat="48.84622" lon="2.41389">
        <ele>48.599998474121</ele>
        <time>2015-08-03T19:47:46Z</time>
      </trkpt>
      <trkpt lat="48.84603" lon="2.41388">
        <ele>48.20000076294</ele>
        <time>2015-08-03T19:47:55Z</time>
      </trkpt>
      <trkpt lat="48.84582" lon="2.41387">
        <ele>47</ele>
        <time>2015-08-03T19:48:01Z</time>
      </trkpt>
      <trkpt lat="48.84563" lon="2.41386">
        <ele>45.79999923706</ele>
        <time>2015-08-03T19:48:05Z</time>
      </trkpt>
      <trkpt lat="48.84544" lon="2.41385">
        <ele>44.79999923706</ele>
        <time>2015-08-03T19:48:08Z</time>
      </trkpt>
      <trkpt lat="48.84522" lon="2.41384">
        <ele>43.79999923706</ele>
        <time>2015-08-03T19:48:11Z</time>
      </trkpt>
      <trkpt lat="48.84498" lon="2.41383">
        <ele>42.79999923706</ele>
        <time>2015-08-03T19:48:14Z</time>
      </trkpt>
      <trkpt lat="48.84474" lon="2.4138">
        <ele>42.20000076294</ele>
        <time>2015-08-03T19:48:17Z</time>
      </trkpt>
      <trkpt lat="48.84452" lon="2.4138">
        <ele>41.79999923706</ele>
        <time>2015-08-03T19:48:20Z</time>
      </trkpt>
      <trkpt lat="48.84431" lon="2.4138">
        <ele>41.400001525879</ele>
        <time>2015-08-03T19:48:23Z</time>
      </trkpt>
      <trkpt lat="48.84411" lon="2.41379">
        <ele>41.20000076294</ele>
        <time>2015-08-03T19:48:26Z</time>
      </trkpt>
      <trkpt lat="48.84392" lon="2.41379">
        <ele>40.79999923706</ele>
        <time>2015-08-03T19:48:29Z</time>
      </trkpt>
      <trkpt lat="48.84373" lon="2.41379">
        <ele>40.400001525879</ele>
        <time>2015-08-03T19:48:32Z</time>
      </trkpt>
      <trkpt lat="48.84352" lon="2.41379">
        <ele>39.599998474121</ele>
        <time>2015-08-03T19:48:36Z</time>
      </trkpt>
      <trkpt lat="48.84341" lon="2.41376">
        <ele>39.20000076294</ele>
        <time>2015-08-03T19:48:38Z</time>
      </trkpt>
      <trkpt lat="48.84323" lon="2.41371">
        <ele>38.20000076294</ele>
        <time>2015-08-03T19:48:41Z</time>
      </trkpt>
      <trkpt lat="48.84317" lon="2.41369">
        <ele>38.20000076294</ele>
        <time>2015-08-03T19:48:42Z</time>
      </trkpt>
      <trkpt lat="48.84297" lon="2.41364">
        <ele>38</ele>
        <time>2015-08-03T19:48:45Z</time>
      </trkpt>
      <trkpt lat="48.84291" lon="2.41363">
        <ele>37.79999923706</ele>
        <time>2015-08-03T19:48:46Z</time>
      </trkpt>
      <trkpt lat="48.84271" lon="2.41361">
        <ele>37.79999923706</ele>
        <time>2015-08-03T19:48:49Z</time>
      </trkpt>
      <trkpt lat="48.84252" lon="2.4136">
        <ele>38</ele>
        <time>2015-08-03T19:48:52Z</time>
      </trkpt>
      <trkpt lat="48.84229" lon="2.41357">
        <ele>38</ele>
        <time>2015-08-03T19:48:56Z</time>
      </trkpt>
      <trkpt lat="48.84206" lon="2.41355">
        <ele>38.79999923706</ele>
        <time>2015-08-03T19:49:00Z</time>
      </trkpt>
      <trkpt lat="48.84185" lon="2.41351">
        <ele>40.79999923706</ele>
        <time>2015-08-03T19:49:04Z</time>
      </trkpt>
      <trkpt lat="48.84164" lon="2.41348">
        <ele>39.599998474121</ele>
        <time>2015-08-03T19:49:08Z</time>
      </trkpt>
      <trkpt lat="48.84144" lon="2.41347">
        <ele>39.400001525879</ele>
        <time>2015-08-03T19:49:12Z</time>
      </trkpt>
      <trkpt lat="48.84123" lon="2.41344">
        <ele>39.20000076294</ele>
        <time>2015-08-03T19:49:16Z</time>
      </trkpt>
      <trkpt lat="48.84102" lon="2.41342">
        <ele>39.599998474121</ele>
        <time>2015-08-03T19:49:20Z</time>
      </trkpt>
      <trkpt lat="48.84081" lon="2.4134">
        <ele>39.79999923706</ele>
        <time>2015-08-03T19:49:24Z</time>
      </trkpt>
      <trkpt lat="48.84059" lon="2.41337">
        <ele>40</ele>
        <time>2015-08-03T19:49:28Z</time>
      </trkpt>
      <trkpt lat="48.84037" lon="2.41334">
        <ele>40</ele>
        <time>2015-08-03T19:49:32Z</time>
      </trkpt>
      <trkpt lat="48.84015" lon="2.4133">
        <ele>40.79999923706</ele>
        <time>2015-08-03T19:49:36Z</time>
      </trkpt>
      <trkpt lat="48.83993" lon="2.41323">
        <ele>41.20000076294</ele>
        <time>2015-08-03T19:49:40Z</time>
      </trkpt>
      <trkpt lat="48.83969" lon="2.41318">
        <ele>40.400001525879</ele>
        <time>2015-08-03T19:49:44Z</time>
      </trkpt>
      <trkpt lat="48.83964" lon="2.41316">
        <ele>40.400001525879</ele>
        <time>2015-08-03T19:49:45Z</time>
      </trkpt>
      <trkpt lat="48.83941" lon="2.41309">
        <ele>40.79999923706</ele>
        <time>2015-08-03T19:49:49Z</time>
      </trkpt>
      <trkpt lat="48.83923" lon="2.41304">
        <ele>40.79999923706</ele>
        <time>2015-08-03T19:49:52Z</time>
      </trkpt>
      <trkpt lat="48.83899" lon="2.41297">
        <ele>41</ele>
        <time>2015-08-03T19:49:56Z</time>
      </trkpt>
      <trkpt lat="48.83876" lon="2.41291">
        <ele>40.79999923706</ele>
        <time>2015-08-03T19:50:00Z</time>
      </trkpt>
      <trkpt lat="48.83858" lon="2.41287">
        <ele>40</ele>
        <time>2015-08-03T19:50:03Z</time>
      </trkpt>
      <trkpt lat="48.83852" lon="2.41285">
        <ele>39.400001525879</ele>
        <time>2015-08-03T19:50:04Z</time>
      </trkpt>
      <trkpt lat="48.8384" lon="2.4128">
        <ele>39.20000076294</ele>
        <time>2015-08-03T19:50:06Z</time>
      </trkpt>
      <trkpt lat="48.83821" lon="2.41276">
        <ele>38.20000076294</ele>
        <time>2015-08-03T19:50:09Z</time>
      </trkpt>
      <trkpt lat="48.83809" lon="2.41271">
        <ele>38</ele>
        <time>2015-08-03T19:50:11Z</time>
      </trkpt>
      <trkpt lat="48.83791" lon="2.41265">
        <ele>38.400001525879</ele>
        <time>2015-08-03T19:50:14Z</time>
      </trkpt>
      <trkpt lat="48.83773" lon="2.41261">
        <ele>38.599998474121</ele>
        <time>2015-08-03T19:50:17Z</time>
      </trkpt>
      <trkpt lat="48.83754" lon="2.41254">
        <ele>39.20000076294</ele>
        <time>2015-08-03T19:50:20Z</time>
      </trkpt>
      <trkpt lat="48.83735" lon="2.41247">
        <ele>39.599998474121</ele>
        <time>2015-08-03T19:50:23Z</time>
      </trkpt>
      <trkpt lat="48.83715" lon="2.41239">
        <ele>42</ele>
        <time>2015-08-03T19:50:26Z</time>
      </trkpt>
      <trkpt lat="48.83697" lon="2.41233">
        <ele>42.79999923706</ele>
        <time>2015-08-03T19:50:29Z</time>
      </trkpt>
      <trkpt lat="48.83678" lon="2.41226">
        <ele>44</ele>
        <time>2015-08-03T19:50:32Z</time>
      </trkpt>
      <trkpt lat="48.8366" lon="2.4122">
        <ele>44.400001525879</ele>
        <time>2015-08-03T19:50:35Z</time>
      </trkpt>
      <trkpt lat="48.83638" lon="2.41211">
        <ele>43</ele>
        <time>2015-08-03T19:50:39Z</time>
      </trkpt>
      <trkpt lat="48.83615" lon="2.41202">
        <ele>41.599998474121</ele>
        <time>2015-08-03T19:50:43Z</time>
      </trkpt>
      <trkpt lat="48.83599" lon="2.4119">
        <ele>41</ele>
        <time>2015-08-03T19:50:46Z</time>
      </trkpt>
      <trkpt lat="48.8358" lon="2.41177">
        <ele>40</ele>
        <time>2015-08-03T19:50:49Z</time>
      </trkpt>
      <trkpt lat="48.83562" lon="2.41159">
        <ele>37.400001525879</ele>
        <time>2015-08-03T19:50:52Z</time>
      </trkpt>
      <trkpt lat="48.83544" lon="2.41139">
        <ele>36.20000076294</ele>
        <time>2015-08-03T19:50:55Z</time>
      </trkpt>
      <trkpt lat="48.83537" lon="2.41132">
        <ele>35.79999923706</ele>
        <time>2015-08-03T19:50:56Z</time>
      </trkpt>
      <trkpt lat="48.83519" lon="2.4111">
        <ele>34.599998474121</ele>
        <time>2015-08-03T19:50:59Z</time>
      </trkpt>
      <trkpt lat="48.83499" lon="2.41089">
        <ele>33.400001525879</ele>
        <time>2015-08-03T19:51:02Z</time>
      </trkpt>
      <trkpt lat="48.83483" lon="2.41069">
        <ele>32.20000076294</ele>
        <time>2015-08-03T19:51:05Z</time>
      </trkpt>
      <trkpt lat="48.83468" lon="2.41047">
        <ele>31.60000038147</ele>
        <time>2015-08-03T19:51:10Z</time>
      </trkpt>
      <trkpt lat="48.8346" lon="2.41021">
        <ele>31.200000762939</ele>
        <time>2015-08-03T19:51:16Z</time>
      </trkpt>
      <trkpt lat="48.83452" lon="2.41003">
        <ele>31</ele>
        <time>2015-08-03T19:51:21Z</time>
      </trkpt>
      <trkpt lat="48.83445" lon="2.40988">
        <ele>31.39999961853</ele>
        <time>2015-08-03T19:51:28Z</time>
      </trkpt>
      <trkpt lat="48.83447" lon="2.40967">
        <ele>34.20000076294</ele>
        <time>2015-08-03T19:51:47Z</time>
      </trkpt>
      <trkpt lat="48.83456" lon="2.40939">
        <ele>35.20000076294</ele>
        <time>2015-08-03T19:51:52Z</time>
      </trkpt>
      <trkpt lat="48.83465" lon="2.40908">
        <ele>35.599998474121</ele>
        <time>2015-08-03T19:51:57Z</time>
      </trkpt>
      <trkpt lat="48.83475" lon="2.40884">
        <ele>35.599998474121</ele>
        <time>2015-08-03T19:52:01Z</time>
      </trkpt>
      <trkpt lat="48.83485" lon="2.40859">
        <ele>35.400001525879</ele>
        <time>2015-08-03T19:52:05Z</time>
      </trkpt>
      <trkpt lat="48.83498" lon="2.40837">
        <ele>36</ele>
        <time>2015-08-03T19:52:09Z</time>
      </trkpt>
      <trkpt lat="48.83512" lon="2.40833">
        <ele>36</ele>
        <time>2015-08-03T19:52:12Z</time>
      </trkpt>
      <trkpt lat="48.8353" lon="2.40844">
        <ele>34.599998474121</ele>
        <time>2015-08-03T19:52:17Z</time>
      </trkpt>
      <trkpt lat="48.83537" lon="2.40848">
        <ele>33.400001525879</ele>
        <time>2015-08-03T19:52:19Z</time>
      </trkpt>
      <trkpt lat="48.8355" lon="2.40861">
        <ele>31.60000038147</ele>
        <time>2015-08-03T19:52:23Z</time>
      </trkpt>
      <trkpt lat="48.83566" lon="2.40879">
        <ele>29.39999961853</ele>
        <time>2015-08-03T19:52:28Z</time>
      </trkpt>
      <trkpt lat="48.83587" lon="2.40895">
        <ele>26.60000038147</ele>
        <time>2015-08-03T19:52:33Z</time>
      </trkpt>
      <trkpt lat="48.83596" lon="2.40901">
        <ele>25.799999237061</ele>
        <time>2015-08-03T19:52:35Z</time>
      </trkpt>
      <trkpt lat="48.83615" lon="2.40914">
        <ele>25.39999961853</ele>
        <time>2015-08-03T19:52:39Z</time>
      </trkpt>
      <trkpt lat="48.83628" lon="2.40924">
        <ele>23.799999237061</ele>
        <time>2015-08-03T19:52:42Z</time>
      </trkpt>
      <trkpt lat="48.83645" lon="2.40933">
        <ele>23.60000038147</ele>
        <time>2015-08-03T19:52:46Z</time>
      </trkpt>
      <trkpt lat="48.83649" lon="2.40933">
        <ele>23.60000038147</ele>
        <time>2015-08-03T19:52:47Z</time>
      </trkpt>
      <trkpt lat="48.83669" lon="2.40934">
        <ele>24.799999237061</ele>
        <time>2015-08-03T19:52:52Z</time>
      </trkpt>
      <trkpt lat="48.83684" lon="2.40937">
        <ele>23.799999237061</ele>
        <time>2015-08-03T19:52:56Z</time>
      </trkpt>
      <trkpt lat="48.83695" lon="2.40946">
        <ele>23.39999961853</ele>
        <time>2015-08-03T19:53:00Z</time>
      </trkpt>
      <trkpt lat="48.83714" lon="2.40959">
        <ele>23</ele>
        <time>2015-08-03T19:53:06Z</time>
      </trkpt>
      <trkpt lat="48.83731" lon="2.40967">
        <ele>23.39999961853</ele>
        <time>2015-08-03T19:53:10Z</time>
      </trkpt>
      <trkpt lat="48.83752" lon="2.40977">
        <ele>21.200000762939</ele>
        <time>2015-08-03T19:53:15Z</time>
      </trkpt>
      <trkpt lat="48.83769" lon="2.40986">
        <ele>20</ele>
        <time>2015-08-03T19:53:20Z</time>
      </trkpt>
      <trkpt lat="48.83788" lon="2.4098">
        <ele>23.200000762939</ele>
        <time>2015-08-03T19:53:25Z</time>
      </trkpt>
      <trkpt lat="48.83796" lon="2.40954">
        <ele>23.200000762939</ele>
        <time>2015-08-03T19:53:30Z</time>
      </trkpt>
      <trkpt lat="48.83802" lon="2.40925">
        <ele>23</ele>
        <time>2015-08-03T19:53:35Z</time>
      </trkpt>
      <trkpt lat="48.83807" lon="2.40896">
        <ele>22.799999237061</ele>
        <time>2015-08-03T19:53:40Z</time>
      </trkpt>
      <trkpt lat="48.83814" lon="2.40867">
        <ele>23.200000762939</ele>
        <time>2015-08-03T19:53:46Z</time>
      </trkpt>
      <trkpt lat="48.83819" lon="2.40858">
        <ele>24.200000762939</ele>
        <time>2015-08-03T19:53:50Z</time>
      </trkpt>
      <trkpt lat="48.83838" lon="2.40865">
        <ele>25.200000762939</ele>
        <time>2015-08-03T19:53:58Z</time>
      </trkpt>
      <trkpt lat="48.83857" lon="2.4087">
        <ele>27.799999237061</ele>
        <time>2015-08-03T19:54:03Z</time>
      </trkpt>
      <trkpt lat="48.83877" lon="2.40878">
        <ele>28.39999961853</ele>
        <time>2015-08-03T19:54:08Z</time>
      </trkpt>
      <trkpt lat="48.83896" lon="2.40884">
        <ele>29.60000038147</ele>
        <time>2015-08-03T19:54:13Z</time>
      </trkpt>
      <trkpt lat="48.83916" lon="2.40892">
        <ele>32.79999923706</ele>
        <time>2015-08-03T19:54:18Z</time>
      </trkpt>
      <trkpt lat="48.83935" lon="2.40897">
        <ele>35</ele>
        <time>2015-08-03T19:54:23Z</time>
      </trkpt>
      <trkpt lat="48.83955" lon="2.40901">
        <ele>37.400001525879</ele>
        <time>2015-08-03T19:54:28Z</time>
      </trkpt>
      <trkpt lat="48.83974" lon="2.40904">
        <ele>40.79999923706</ele>
        <time>2015-08-03T19:54:33Z</time>
      </trkpt>
      <trkpt lat="48.83995" lon="2.4091">
        <ele>43.79999923706</ele>
        <time>2015-08-03T19:54:39Z</time>
      </trkpt>
      <trkpt lat="48.84014" lon="2.40918">
        <ele>45.79999923706</ele>
        <time>2015-08-03T19:54:44Z</time>
      </trkpt>
      <trkpt lat="48.84032" lon="2.40925">
        <ele>47.20000076294</ele>
        <time>2015-08-03T19:54:49Z</time>
      </trkpt>
      <trkpt lat="48.84045" lon="2.40927">
        <ele>48.20000076294</ele>
        <time>2015-08-03T19:54:57Z</time>
      </trkpt>
      <trkpt lat="48.84053" lon="2.40931">
        <ele>50.599998474121</ele>
        <time>2015-08-03T19:56:40Z</time>
      </trkpt>
      <trkpt lat="48.84055" lon="2.40928">
        <ele>46.599998474121</ele>
        <time>2015-08-03T19:58:38Z</time>
      </trkpt>
      <trkpt lat="48.84059" lon="2.40925">
        <ele>47</ele>
        <time>2015-08-03T19:58:42Z</time>
      </trkpt>
      <trkpt lat="48.84064" lon="2.40898">
        <ele>46</ele>
        <time>2015-08-03T19:58:52Z</time>
      </trkpt>
      <trkpt lat="48.84065" lon="2.40868">
        <ele>44</ele>
        <time>2015-08-03T19:59:00Z</time>
      </trkpt>
      <trkpt lat="48.84064" lon="2.40835">
        <ele>42.400001525879</ele>
        <time>2015-08-03T19:59:06Z</time>
      </trkpt>
      <trkpt lat="48.84063" lon="2.40806">
        <ele>40.79999923706</ele>
        <time>2015-08-03T19:59:11Z</time>
      </trkpt>
      <trkpt lat="48.84061" lon="2.40779">
        <ele>39.400001525879</ele>
        <time>2015-08-03T19:59:15Z</time>
      </trkpt>
      <trkpt lat="48.84063" lon="2.40749">
        <ele>38.400001525879</ele>
        <time>2015-08-03T19:59:22Z</time>
      </trkpt>
      <trkpt lat="48.84065" lon="2.40731">
        <ele>38.79999923706</ele>
        <time>2015-08-03T19:59:25Z</time>
      </trkpt>
      <trkpt lat="48.84067" lon="2.40697">
        <ele>40</ele>
        <time>2015-08-03T19:59:30Z</time>
      </trkpt>
      <trkpt lat="48.8407" lon="2.40667">
        <ele>40.599998474121</ele>
        <time>2015-08-03T19:59:34Z</time>
      </trkpt>
      <trkpt lat="48.84071" lon="2.40638">
        <ele>41</ele>
        <time>2015-08-03T19:59:38Z</time>
      </trkpt>
      <trkpt lat="48.84072" lon="2.40608">
        <ele>41</ele>
        <time>2015-08-03T19:59:42Z</time>
      </trkpt>
      <trkpt lat="48.84073" lon="2.40592">
        <ele>40.599998474121</ele>
        <time>2015-08-03T19:59:44Z</time>
      </trkpt>
      <trkpt lat="48.84077" lon="2.40561">
        <ele>40</ele>
        <time>2015-08-03T19:59:48Z</time>
      </trkpt>
      <trkpt lat="48.84077" lon="2.40552">
        <ele>40</ele>
        <time>2015-08-03T19:59:49Z</time>
      </trkpt>
      <trkpt lat="48.8408" lon="2.40521">
        <ele>39</ele>
        <time>2015-08-03T19:59:53Z</time>
      </trkpt>
      <trkpt lat="48.84081" lon="2.40501">
        <ele>38.400001525879</ele>
        <time>2015-08-03T19:59:57Z</time>
      </trkpt>
      <trkpt lat="48.84081" lon="2.40489">
        <ele>37</ele>
        <time>2015-08-03T19:59:59Z</time>
      </trkpt>
      <trkpt lat="48.84085" lon="2.40465">
        <ele>33.79999923706</ele>
        <time>2015-08-03T20:00:06Z</time>
      </trkpt>
      <trkpt lat="48.84087" lon="2.40437">
        <ele>30.60000038147</ele>
        <time>2015-08-03T20:00:12Z</time>
      </trkpt>
      <trkpt lat="48.84089" lon="2.40403">
        <ele>28.39999961853</ele>
        <time>2015-08-03T20:00:17Z</time>
      </trkpt>
      <trkpt lat="48.84089" lon="2.40387">
        <ele>27.799999237061</ele>
        <time>2015-08-03T20:00:19Z</time>
      </trkpt>
      <trkpt lat="48.84092" lon="2.40353">
        <ele>26.200000762939</ele>
        <time>2015-08-03T20:00:23Z</time>
      </trkpt>
      <trkpt lat="48.84093" lon="2.40324">
        <ele>25.200000762939</ele>
        <time>2015-08-03T20:00:26Z</time>
      </trkpt>
      <trkpt lat="48.84094" lon="2.40295">
        <ele>24.200000762939</ele>
        <time>2015-08-03T20:00:29Z</time>
      </trkpt>
      <trkpt lat="48.84096" lon="2.40266">
        <ele>22.799999237061</ele>
        <time>2015-08-03T20:00:32Z</time>
      </trkpt>
      <trkpt lat="48.84102" lon="2.40231">
        <ele>22</ele>
        <time>2015-08-03T20:00:36Z</time>
      </trkpt>
      <trkpt lat="48.84104" lon="2.40216">
        <ele>21.60000038147</ele>
        <time>2015-08-03T20:00:38Z</time>
      </trkpt>
      <trkpt lat="48.84104" lon="2.40208">
        <ele>21.60000038147</ele>
        <time>2015-08-03T20:00:39Z</time>
      </trkpt>
      <trkpt lat="48.84106" lon="2.40194">
        <ele>21.60000038147</ele>
        <time>2015-08-03T20:00:41Z</time>
      </trkpt>
      <trkpt lat="48.84108" lon="2.40166">
        <ele>22</ele>
        <time>2015-08-03T20:00:45Z</time>
      </trkpt>
      <trkpt lat="48.84108" lon="2.40155">
        <ele>22</ele>
        <time>2015-08-03T20:00:47Z</time>
      </trkpt>
      <trkpt lat="48.84114" lon="2.40134">
        <ele>23.200000762939</ele>
        <time>2015-08-03T20:00:51Z</time>
      </trkpt>
      <trkpt lat="48.84116" lon="2.4013">
        <ele>23.200000762939</ele>
        <time>2015-08-03T20:00:52Z</time>
      </trkpt>
      <trkpt lat="48.84123" lon="2.40115">
        <ele>26.39999961853</ele>
        <time>2015-08-03T20:00:58Z</time>
      </trkpt>
      <trkpt lat="48.84117" lon="2.40099">
        <ele>36.20000076294</ele>
        <time>2015-08-03T20:01:51Z</time>
      </trkpt>
      <trkpt lat="48.84134" lon="2.40101">
        <ele>37.599998474121</ele>
        <time>2015-08-03T20:02:02Z</time>
      </trkpt>
      <trkpt lat="48.84152" lon="2.40106">
        <ele>38</ele>
        <time>2015-08-03T20:02:06Z</time>
      </trkpt>
      <trkpt lat="48.8417" lon="2.4011">
        <ele>38.79999923706</ele>
        <time>2015-08-03T20:02:10Z</time>
      </trkpt>
      <trkpt lat="48.84192" lon="2.4011">
        <ele>40.599998474121</ele>
        <time>2015-08-03T20:02:15Z</time>
      </trkpt>
      <trkpt lat="48.84213" lon="2.40102">
        <ele>46</ele>
        <time>2015-08-03T20:02:21Z</time>
      </trkpt>
      <trkpt lat="48.84235" lon="2.40096">
        <ele>48.400001525879</ele>
        <time>2015-08-03T20:02:26Z</time>
      </trkpt>
      <trkpt lat="48.84253" lon="2.40093">
        <ele>50</ele>
        <time>2015-08-03T20:02:29Z</time>
      </trkpt>
      <trkpt lat="48.84276" lon="2.40096">
        <ele>52.400001525879</ele>
        <time>2015-08-03T20:02:32Z</time>
      </trkpt>
      <trkpt lat="48.84296" lon="2.40102">
        <ele>55</ele>
        <time>2015-08-03T20:02:35Z</time>
      </trkpt>
      <trkpt lat="48.84317" lon="2.40109">
        <ele>60.400001525879</ele>
        <time>2015-08-03T20:02:38Z</time>
      </trkpt>
      <trkpt lat="48.84324" lon="2.40109">
        <ele>63</ele>
        <time>2015-08-03T20:02:39Z</time>
      </trkpt>
      <trkpt lat="48.84346" lon="2.40119">
        <ele>68.400001525879</ele>
        <time>2015-08-03T20:02:42Z</time>
      </trkpt>
      <trkpt lat="48.84364" lon="2.40129">
        <ele>72.400001525879</ele>
        <time>2015-08-03T20:02:45Z</time>
      </trkpt>
      <trkpt lat="48.84383" lon="2.40137">
        <ele>77</ele>
        <time>2015-08-03T20:02:48Z</time>
      </trkpt>
      <trkpt lat="48.84405" lon="2.40147">
        <ele>83.400001525879</ele>
        <time>2015-08-03T20:02:52Z</time>
      </trkpt>
      <trkpt lat="48.84426" lon="2.40161">
        <ele>84.599998474121</ele>
        <time>2015-08-03T20:02:56Z</time>
      </trkpt>
      <trkpt lat="48.84446" lon="2.40178">
        <ele>83.199996948242</ele>
        <time>2015-08-03T20:03:00Z</time>
      </trkpt>
      <trkpt lat="48.84461" lon="2.402">
        <ele>74</ele>
        <time>2015-08-03T20:03:03Z</time>
      </trkpt>
      <trkpt lat="48.84465" lon="2.40207">
        <ele>71.400001525879</ele>
        <time>2015-08-03T20:03:04Z</time>
      </trkpt>
      <trkpt lat="48.84472" lon="2.40223">
        <ele>67.199996948242</ele>
        <time>2015-08-03T20:03:07Z</time>
      </trkpt>
      <trkpt lat="48.84478" lon="2.40233">
        <ele>60.400001525879</ele>
        <time>2015-08-03T20:03:09Z</time>
      </trkpt>
      <trkpt lat="48.84484" lon="2.40238">
        <ele>58.599998474121</ele>
        <time>2015-08-03T20:03:12Z</time>
      </trkpt>
      <trkpt lat="48.845" lon="2.40241">
        <ele>52</ele>
        <time>2015-08-03T20:03:35Z</time>
      </trkpt>
      <trkpt lat="48.84514" lon="2.40219">
        <ele>50.20000076294</ele>
        <time>2015-08-03T20:03:41Z</time>
      </trkpt>
      <trkpt lat="48.84528" lon="2.402">
        <ele>48.599998474121</ele>
        <time>2015-08-03T20:03:46Z</time>
      </trkpt>
      <trkpt lat="48.84542" lon="2.40181">
        <ele>47.79999923706</ele>
        <time>2015-08-03T20:03:50Z</time>
      </trkpt>
      <trkpt lat="48.84558" lon="2.40162">
        <ele>47</ele>
        <time>2015-08-03T20:03:54Z</time>
      </trkpt>
      <trkpt lat="48.84573" lon="2.40141">
        <ele>45.79999923706</ele>
        <time>2015-08-03T20:03:58Z</time>
      </trkpt>
      <trkpt lat="48.84587" lon="2.40121">
        <ele>45</ele>
        <time>2015-08-03T20:04:02Z</time>
      </trkpt>
      <trkpt lat="48.84601" lon="2.40101">
        <ele>44</ele>
        <time>2015-08-03T20:04:06Z</time>
      </trkpt>
      <trkpt lat="48.84604" lon="2.40096">
        <ele>43.79999923706</ele>
        <time>2015-08-03T20:04:07Z</time>
      </trkpt>
      <trkpt lat="48.84616" lon="2.40081">
        <ele>42.79999923706</ele>
        <time>2015-08-03T20:04:10Z</time>
      </trkpt>
      <trkpt lat="48.84632" lon="2.40059">
        <ele>42.20000076294</ele>
        <time>2015-08-03T20:04:14Z</time>
      </trkpt>
      <trkpt lat="48.8465" lon="2.40034">
        <ele>41.400001525879</ele>
        <time>2015-08-03T20:04:18Z</time>
      </trkpt>
      <trkpt lat="48.84665" lon="2.40015">
        <ele>40.20000076294</ele>
        <time>2015-08-03T20:04:21Z</time>
      </trkpt>
      <trkpt lat="48.84679" lon="2.39994">
        <ele>39</ele>
        <time>2015-08-03T20:04:24Z</time>
      </trkpt>
      <trkpt lat="48.84694" lon="2.39975">
        <ele>38.599998474121</ele>
        <time>2015-08-03T20:04:27Z</time>
      </trkpt>
      <trkpt lat="48.84707" lon="2.39956">
        <ele>38</ele>
        <time>2015-08-03T20:04:30Z</time>
      </trkpt>
      <trkpt lat="48.84723" lon="2.39933">
        <ele>36.20000076294</ele>
        <time>2015-08-03T20:04:34Z</time>
      </trkpt>
      <trkpt lat="48.84729" lon="2.39921">
        <ele>37.400001525879</ele>
        <time>2015-08-03T20:04:36Z</time>
      </trkpt>
      <trkpt lat="48.8474" lon="2.39911">
        <ele>38.400001525879</ele>
        <time>2015-08-03T20:04:39Z</time>
      </trkpt>
      <trkpt lat="48.84747" lon="2.39906">
        <ele>38.79999923706</ele>
        <time>2015-08-03T20:04:41Z</time>
      </trkpt>
      <trkpt lat="48.84759" lon="2.39903">
        <ele>39.79999923706</ele>
        <time>2015-08-03T20:04:45Z</time>
      </trkpt>
      <trkpt lat="48.84771" lon="2.39905">
        <ele>40.400001525879</ele>
        <time>2015-08-03T20:04:49Z</time>
      </trkpt>
      <trkpt lat="48.84776" lon="2.39906">
        <ele>39.599998474121</ele>
        <time>2015-08-03T20:04:51Z</time>
      </trkpt>
      <trkpt lat="48.84786" lon="2.39909">
        <ele>39.400001525879</ele>
        <time>2015-08-03T20:04:56Z</time>
      </trkpt>
      <trkpt lat="48.8478" lon="2.39903">
        <ele>43.599998474121</ele>
        <time>2015-08-03T20:05:08Z</time>
      </trkpt>
      <trkpt lat="48.84785" lon="2.39891">
        <ele>43.599998474121</ele>
        <time>2015-08-03T20:05:13Z</time>
      </trkpt>
      <trkpt lat="48.848" lon="2.3988">
        <ele>42.599998474121</ele>
        <time>2015-08-03T20:05:21Z</time>
      </trkpt>
      <trkpt lat="48.84813" lon="2.39859">
        <ele>41</ele>
        <time>2015-08-03T20:05:28Z</time>
      </trkpt>
      <trkpt lat="48.84823" lon="2.39833">
        <ele>40</ele>
        <time>2015-08-03T20:05:34Z</time>
      </trkpt>
      <trkpt lat="48.84827" lon="2.39806">
        <ele>38</ele>
        <time>2015-08-03T20:05:40Z</time>
      </trkpt>
      <trkpt lat="48.8483" lon="2.39777">
        <ele>37.400001525879</ele>
        <time>2015-08-03T20:05:46Z</time>
      </trkpt>
      <trkpt lat="48.84839" lon="2.39749">
        <ele>36.79999923706</ele>
        <time>2015-08-03T20:05:52Z</time>
      </trkpt>
      <trkpt lat="48.84846" lon="2.39719">
        <ele>34</ele>
        <time>2015-08-03T20:05:58Z</time>
      </trkpt>
      <trkpt lat="48.84851" lon="2.39688">
        <ele>33</ele>
        <time>2015-08-03T20:06:04Z</time>
      </trkpt>
      <trkpt lat="48.84866" lon="2.39667">
        <ele>32.599998474121</ele>
        <time>2015-08-03T20:06:10Z</time>
      </trkpt>
      <trkpt lat="48.8488" lon="2.39648">
        <ele>30.799999237061</ele>
        <time>2015-08-03T20:06:15Z</time>
      </trkpt>
      <trkpt lat="48.84891" lon="2.39621">
        <ele>31</ele>
        <time>2015-08-03T20:06:21Z</time>
      </trkpt>
      <trkpt lat="48.84897" lon="2.39593">
        <ele>32</ele>
        <time>2015-08-03T20:06:27Z</time>
      </trkpt>
      <trkpt lat="48.84897" lon="2.39563">
        <ele>32</ele>
        <time>2015-08-03T20:06:34Z</time>
      </trkpt>
      <trkpt lat="48.84901" lon="2.39552">
        <ele>31.39999961853</ele>
        <time>2015-08-03T20:06:38Z</time>
      </trkpt>
      <trkpt lat="48.84887" lon="2.39529">
        <ele>31.200000762939</ele>
        <time>2015-08-03T20:06:47Z</time>
      </trkpt>
      <trkpt lat="48.84891" lon="2.39504">
        <ele>30.39999961853</ele>
        <time>2015-08-03T20:06:52Z</time>
      </trkpt>
      <trkpt lat="48.84896" lon="2.39496">
        <ele>30</ele>
        <time>2015-08-03T20:06:54Z</time>
      </trkpt>
      <trkpt lat="48.84911" lon="2.39474">
        <ele>29.200000762939</ele>
        <time>2015-08-03T20:06:59Z</time>
      </trkpt>
      <trkpt lat="48.84925" lon="2.39452">
        <ele>28.200000762939</ele>
        <time>2015-08-03T20:07:03Z</time>
      </trkpt>
      <trkpt lat="48.84937" lon="2.39429">
        <ele>27.60000038147</ele>
        <time>2015-08-03T20:07:07Z</time>
      </trkpt>
      <trkpt lat="48.8495" lon="2.39407">
        <ele>27</ele>
        <time>2015-08-03T20:07:11Z</time>
      </trkpt>
      <trkpt lat="48.84964" lon="2.39386">
        <ele>25.799999237061</ele>
        <time>2015-08-03T20:07:15Z</time>
      </trkpt>
      <trkpt lat="48.84975" lon="2.39369">
        <ele>24.799999237061</ele>
        <time>2015-08-03T20:07:18Z</time>
      </trkpt>
      <trkpt lat="48.84989" lon="2.39346">
        <ele>25.200000762939</ele>
        <time>2015-08-03T20:07:22Z</time>
      </trkpt>
      <trkpt lat="48.85001" lon="2.39325">
        <ele>25.39999961853</ele>
        <time>2015-08-03T20:07:26Z</time>
      </trkpt>
      <trkpt lat="48.85016" lon="2.39299">
        <ele>25.60000038147</ele>
        <time>2015-08-03T20:07:31Z</time>
      </trkpt>
      <trkpt lat="48.85028" lon="2.39273">
        <ele>27.60000038147</ele>
        <time>2015-08-03T20:07:36Z</time>
      </trkpt>
      <trkpt lat="48.85031" lon="2.39268">
        <ele>27.39999961853</ele>
        <time>2015-08-03T20:07:37Z</time>
      </trkpt>
      <trkpt lat="48.85044" lon="2.39242">
        <ele>28.39999961853</ele>
        <time>2015-08-03T20:07:42Z</time>
      </trkpt>
      <trkpt lat="48.85058" lon="2.39222">
        <ele>28.39999961853</ele>
        <time>2015-08-03T20:07:46Z</time>
      </trkpt>
      <trkpt lat="48.85073" lon="2.392">
        <ele>27.60000038147</ele>
        <time>2015-08-03T20:07:50Z</time>
      </trkpt>
      <trkpt lat="48.85088" lon="2.39176">
        <ele>26</ele>
        <time>2015-08-03T20:07:54Z</time>
      </trkpt>
      <trkpt lat="48.85102" lon="2.39153">
        <ele>25.39999961853</ele>
        <time>2015-08-03T20:07:58Z</time>
      </trkpt>
      <trkpt lat="48.85116" lon="2.39129">
        <ele>25.200000762939</ele>
        <time>2015-08-03T20:08:02Z</time>
      </trkpt>
      <trkpt lat="48.8513" lon="2.39106">
        <ele>24.799999237061</ele>
        <time>2015-08-03T20:08:06Z</time>
      </trkpt>
      <trkpt lat="48.85137" lon="2.39096">
        <ele>24.39999961853</ele>
        <time>2015-08-03T20:08:08Z</time>
      </trkpt>
      <trkpt lat="48.85152" lon="2.39073">
        <ele>23.60000038147</ele>
        <time>2015-08-03T20:08:12Z</time>
      </trkpt>
      <trkpt lat="48.85165" lon="2.3905">
        <ele>23.200000762939</ele>
        <time>2015-08-03T20:08:16Z</time>
      </trkpt>
      <trkpt lat="48.85179" lon="2.39028">
        <ele>21.39999961853</ele>
        <time>2015-08-03T20:08:20Z</time>
      </trkpt>
      <trkpt lat="48.85194" lon="2.39004">
        <ele>19.39999961853</ele>
        <time>2015-08-03T20:08:24Z</time>
      </trkpt>
      <trkpt lat="48.85206" lon="2.38986">
        <ele>18.60000038147</ele>
        <time>2015-08-03T20:08:27Z</time>
      </trkpt>
      <trkpt lat="48.85221" lon="2.3896">
        <ele>17.39999961853</ele>
        <time>2015-08-03T20:08:31Z</time>
      </trkpt>
      <trkpt lat="48.85236" lon="2.38933">
        <ele>17.39999961853</ele>
        <time>2015-08-03T20:08:35Z</time>
      </trkpt>
      <trkpt lat="48.85252" lon="2.38908">
        <ele>17</ele>
        <time>2015-08-03T20:08:39Z</time>
      </trkpt>
      <trkpt lat="48.85266" lon="2.38886">
        <ele>15.800000190735</ele>
        <time>2015-08-03T20:08:43Z</time>
      </trkpt>
      <trkpt lat="48.85271" lon="2.38881">
        <ele>15.39999961853</ele>
        <time>2015-08-03T20:08:44Z</time>
      </trkpt>
      <trkpt lat="48.85287" lon="2.3886">
        <ele>14.199999809265</ele>
        <time>2015-08-03T20:08:48Z</time>
      </trkpt>
      <trkpt lat="48.85294" lon="2.38847">
        <ele>14</ele>
        <time>2015-08-03T20:08:50Z</time>
      </trkpt>
      <trkpt lat="48.8531" lon="2.38821">
        <ele>13</ele>
        <time>2015-08-03T20:08:54Z</time>
      </trkpt>
      <trkpt lat="48.85325" lon="2.38796">
        <ele>12.60000038147</ele>
        <time>2015-08-03T20:08:58Z</time>
      </trkpt>
      <trkpt lat="48.85333" lon="2.38783">
        <ele>12.39999961853</ele>
        <time>2015-08-03T20:09:00Z</time>
      </trkpt>
      <trkpt lat="48.85343" lon="2.38764">
        <ele>12.60000038147</ele>
        <time>2015-08-03T20:09:03Z</time>
      </trkpt>
      <trkpt lat="48.85357" lon="2.38739">
        <ele>11.800000190735</ele>
        <time>2015-08-03T20:09:07Z</time>
      </trkpt>
      <trkpt lat="48.85372" lon="2.38714">
        <ele>10.800000190735</ele>
        <time>2015-08-03T20:09:11Z</time>
      </trkpt>
      <trkpt lat="48.85389" lon="2.38689">
        <ele>10.60000038147</ele>
        <time>2015-08-03T20:09:15Z</time>
      </trkpt>
      <trkpt lat="48.85401" lon="2.38663">
        <ele>13.39999961853</ele>
        <time>2015-08-03T20:09:19Z</time>
      </trkpt>
      <trkpt lat="48.85414" lon="2.38633">
        <ele>14.800000190735</ele>
        <time>2015-08-03T20:09:23Z</time>
      </trkpt>
      <trkpt lat="48.85426" lon="2.3861">
        <ele>15.60000038147</ele>
        <time>2015-08-03T20:09:26Z</time>
      </trkpt>
      <trkpt lat="48.85438" lon="2.38586">
        <ele>15.800000190735</ele>
        <time>2015-08-03T20:09:29Z</time>
      </trkpt>
      <trkpt lat="48.85452" lon="2.38563">
        <ele>18.39999961853</ele>
        <time>2015-08-03T20:09:32Z</time>
      </trkpt>
      <trkpt lat="48.85463" lon="2.3854">
        <ele>21.60000038147</ele>
        <time>2015-08-03T20:09:35Z</time>
      </trkpt>
      <trkpt lat="48.85481" lon="2.38516">
        <ele>24.39999961853</ele>
        <time>2015-08-03T20:09:39Z</time>
      </trkpt>
      <trkpt lat="48.85492" lon="2.38494">
        <ele>24.60000038147</ele>
        <time>2015-08-03T20:09:42Z</time>
      </trkpt>
      <trkpt lat="48.85505" lon="2.3847">
        <ele>24.60000038147</ele>
        <time>2015-08-03T20:09:45Z</time>
      </trkpt>
      <trkpt lat="48.85518" lon="2.38447">
        <ele>24.799999237061</ele>
        <time>2015-08-03T20:09:48Z</time>
      </trkpt>
      <trkpt lat="48.85527" lon="2.38432">
        <ele>24.39999961853</ele>
        <time>2015-08-03T20:09:50Z</time>
      </trkpt>
      <trkpt lat="48.85541" lon="2.38409">
        <ele>24.39999961853</ele>
        <time>2015-08-03T20:09:53Z</time>
      </trkpt>
      <trkpt lat="48.8555" lon="2.38394">
        <ele>23.799999237061</ele>
        <time>2015-08-03T20:09:55Z</time>
      </trkpt>
      <trkpt lat="48.85563" lon="2.3837">
        <ele>23.200000762939</ele>
        <time>2015-08-03T20:09:58Z</time>
      </trkpt>
      <trkpt lat="48.85576" lon="2.38346">
        <ele>23.200000762939</ele>
        <time>2015-08-03T20:10:01Z</time>
      </trkpt>
      <trkpt lat="48.85583" lon="2.38332">
        <ele>24.200000762939</ele>
        <time>2015-08-03T20:10:03Z</time>
      </trkpt>
      <trkpt lat="48.85596" lon="2.3831">
        <ele>24.200000762939</ele>
        <time>2015-08-03T20:10:06Z</time>
      </trkpt>
      <trkpt lat="48.85608" lon="2.38289">
        <ele>24.60000038147</ele>
        <time>2015-08-03T20:10:09Z</time>
      </trkpt>
      <trkpt lat="48.85616" lon="2.38277">
        <ele>25.39999961853</ele>
        <time>2015-08-03T20:10:11Z</time>
      </trkpt>
      <trkpt lat="48.85628" lon="2.38251">
        <ele>25.39999961853</ele>
        <time>2015-08-03T20:10:15Z</time>
      </trkpt>
      <trkpt lat="48.85631" lon="2.38244">
        <ele>25.200000762939</ele>
        <time>2015-08-03T20:10:16Z</time>
      </trkpt>
      <trkpt lat="48.85635" lon="2.38238">
        <ele>25</ele>
        <time>2015-08-03T20:10:17Z</time>
      </trkpt>
      <trkpt lat="48.8565" lon="2.38212">
        <ele>24.39999961853</ele>
        <time>2015-08-03T20:10:21Z</time>
      </trkpt>
      <trkpt lat="48.85667" lon="2.38186">
        <ele>23.60000038147</ele>
        <time>2015-08-03T20:10:25Z</time>
      </trkpt>
      <trkpt lat="48.85682" lon="2.38161">
        <ele>22.200000762939</ele>
        <time>2015-08-03T20:10:29Z</time>
      </trkpt>
      <trkpt lat="48.85697" lon="2.38133">
        <ele>22</ele>
        <time>2015-08-03T20:10:33Z</time>
      </trkpt>
      <trkpt lat="48.85705" lon="2.3812">
        <ele>22</ele>
        <time>2015-08-03T20:10:35Z</time>
      </trkpt>
      <trkpt lat="48.8572" lon="2.38093">
        <ele>24.200000762939</ele>
        <time>2015-08-03T20:10:39Z</time>
      </trkpt>
      <trkpt lat="48.85727" lon="2.3808">
        <ele>25.39999961853</ele>
        <time>2015-08-03T20:10:41Z</time>
      </trkpt>
      <trkpt lat="48.85743" lon="2.38062">
        <ele>25.39999961853</ele>
        <time>2015-08-03T20:10:45Z</time>
      </trkpt>
      <trkpt lat="48.85752" lon="2.38049">
        <ele>26.799999237061</ele>
        <time>2015-08-03T20:10:48Z</time>
      </trkpt>
      <trkpt lat="48.8576" lon="2.38042">
        <ele>30.799999237061</ele>
        <time>2015-08-03T20:10:52Z</time>
      </trkpt>
      <trkpt lat="48.85763" lon="2.38039">
        <ele>31.799999237061</ele>
        <time>2015-08-03T20:10:54Z</time>
      </trkpt>
      <trkpt lat="48.85781" lon="2.38026">
        <ele>34.599998474121</ele>
        <time>2015-08-03T20:11:02Z</time>
      </trkpt>
      <trkpt lat="48.85783" lon="2.38023">
        <ele>33.79999923706</ele>
        <time>2015-08-03T20:11:03Z</time>
      </trkpt>
      <trkpt lat="48.85789" lon="2.38">
        <ele>30.799999237061</ele>
        <time>2015-08-03T20:11:08Z</time>
      </trkpt>
      <trkpt lat="48.85791" lon="2.37987">
        <ele>31</ele>
        <time>2015-08-03T20:11:10Z</time>
      </trkpt>
      <trkpt lat="48.85804" lon="2.37964">
        <ele>29.799999237061</ele>
        <time>2015-08-03T20:11:15Z</time>
      </trkpt>
      <trkpt lat="48.85807" lon="2.3796">
        <ele>29.799999237061</ele>
        <time>2015-08-03T20:11:16Z</time>
      </trkpt>
      <trkpt lat="48.85814" lon="2.37946">
        <ele>29.60000038147</ele>
        <time>2015-08-03T20:11:19Z</time>
      </trkpt>
      <trkpt lat="48.85824" lon="2.37927">
        <ele>28.60000038147</ele>
        <time>2015-08-03T20:11:23Z</time>
      </trkpt>
      <trkpt lat="48.8583" lon="2.37917">
        <ele>27.799999237061</ele>
        <time>2015-08-03T20:11:25Z</time>
      </trkpt>
      <trkpt lat="48.85839" lon="2.37903">
        <ele>27</ele>
        <time>2015-08-03T20:11:28Z</time>
      </trkpt>
      <trkpt lat="48.85855" lon="2.37879">
        <ele>25.799999237061</ele>
        <time>2015-08-03T20:11:33Z</time>
      </trkpt>
      <trkpt lat="48.85869" lon="2.37861">
        <ele>24.60000038147</ele>
        <time>2015-08-03T20:11:37Z</time>
      </trkpt>
      <trkpt lat="48.85884" lon="2.37839">
        <ele>23.60000038147</ele>
        <time>2015-08-03T20:11:42Z</time>
      </trkpt>
      <trkpt lat="48.85892" lon="2.37822">
        <ele>23.799999237061</ele>
        <time>2015-08-03T20:11:45Z</time>
      </trkpt>
      <trkpt lat="48.85897" lon="2.37809">
        <ele>24.39999961853</ele>
        <time>2015-08-03T20:11:47Z</time>
      </trkpt>
      <trkpt lat="48.85907" lon="2.37786">
        <ele>25.39999961853</ele>
        <time>2015-08-03T20:11:51Z</time>
      </trkpt>
      <trkpt lat="48.85915" lon="2.37768">
        <ele>25.60000038147</ele>
        <time>2015-08-03T20:11:54Z</time>
      </trkpt>
      <trkpt lat="48.8593" lon="2.37746">
        <ele>25.799999237061</ele>
        <time>2015-08-03T20:11:58Z</time>
      </trkpt>
      <trkpt lat="48.85945" lon="2.37724">
        <ele>26</ele>
        <time>2015-08-03T20:12:02Z</time>
      </trkpt>
      <trkpt lat="48.85957" lon="2.37703">
        <ele>28.39999961853</ele>
        <time>2015-08-03T20:12:06Z</time>
      </trkpt>
      <trkpt lat="48.85967" lon="2.37689">
        <ele>28.200000762939</ele>
        <time>2015-08-03T20:12:10Z</time>
      </trkpt>
      <trkpt lat="48.85977" lon="2.37671">
        <ele>30.39999961853</ele>
        <time>2015-08-03T20:12:14Z</time>
      </trkpt>
      <trkpt lat="48.8599" lon="2.37648">
        <ele>30.60000038147</ele>
        <time>2015-08-03T20:12:18Z</time>
      </trkpt>
      <trkpt lat="48.86004" lon="2.37624">
        <ele>31.799999237061</ele>
        <time>2015-08-03T20:12:22Z</time>
      </trkpt>
      <trkpt lat="48.8602" lon="2.37598">
        <ele>31.39999961853</ele>
        <time>2015-08-03T20:12:26Z</time>
      </trkpt>
      <trkpt lat="48.86037" lon="2.37573">
        <ele>30.799999237061</ele>
        <time>2015-08-03T20:12:30Z</time>
      </trkpt>
      <trkpt lat="48.86051" lon="2.37551">
        <ele>30.60000038147</ele>
        <time>2015-08-03T20:12:34Z</time>
      </trkpt>
      <trkpt lat="48.86064" lon="2.37527">
        <ele>31.799999237061</ele>
        <time>2015-08-03T20:12:38Z</time>
      </trkpt>
      <trkpt lat="48.86078" lon="2.37505">
        <ele>33.20000076294</ele>
        <time>2015-08-03T20:12:42Z</time>
      </trkpt>
      <trkpt lat="48.86093" lon="2.37481">
        <ele>32.599998474121</ele>
        <time>2015-08-03T20:12:46Z</time>
      </trkpt>
      <trkpt lat="48.86107" lon="2.37455">
        <ele>30.60000038147</ele>
        <time>2015-08-03T20:12:50Z</time>
      </trkpt>
      <trkpt lat="48.86123" lon="2.37429">
        <ele>30.799999237061</ele>
        <time>2015-08-03T20:12:54Z</time>
      </trkpt>
      <trkpt lat="48.86137" lon="2.37403">
        <ele>29.799999237061</ele>
        <time>2015-08-03T20:12:58Z</time>
      </trkpt>
      <trkpt lat="48.86143" lon="2.37389">
        <ele>29.39999961853</ele>
        <time>2015-08-03T20:13:00Z</time>
      </trkpt>
      <trkpt lat="48.86157" lon="2.37369">
        <ele>27.799999237061</ele>
        <time>2015-08-03T20:13:04Z</time>
      </trkpt>
      <trkpt lat="48.86172" lon="2.37349">
        <ele>27.39999961853</ele>
        <time>2015-08-03T20:13:08Z</time>
      </trkpt>
      <trkpt lat="48.86176" lon="2.37343">
        <ele>27.60000038147</ele>
        <time>2015-08-03T20:13:09Z</time>
      </trkpt>
      <trkpt lat="48.8619" lon="2.37321">
        <ele>29</ele>
        <time>2015-08-03T20:13:13Z</time>
      </trkpt>
      <trkpt lat="48.862" lon="2.37305">
        <ele>29.799999237061</ele>
        <time>2015-08-03T20:13:16Z</time>
      </trkpt>
      <trkpt lat="48.86207" lon="2.3729">
        <ele>29.39999961853</ele>
        <time>2015-08-03T20:13:19Z</time>
      </trkpt>
      <trkpt lat="48.86222" lon="2.37266">
        <ele>25.60000038147</ele>
        <time>2015-08-03T20:13:24Z</time>
      </trkpt>
      <trkpt lat="48.86235" lon="2.37245">
        <ele>24.799999237061</ele>
        <time>2015-08-03T20:13:28Z</time>
      </trkpt>
      <trkpt lat="48.86244" lon="2.37229">
        <ele>24.39999961853</ele>
        <time>2015-08-03T20:13:31Z</time>
      </trkpt>
      <trkpt lat="48.86256" lon="2.37208">
        <ele>25.39999961853</ele>
        <time>2015-08-03T20:13:35Z</time>
      </trkpt>
      <trkpt lat="48.86269" lon="2.37182">
        <ele>30</ele>
        <time>2015-08-03T20:13:40Z</time>
      </trkpt>
      <trkpt lat="48.86283" lon="2.37161">
        <ele>33.400001525879</ele>
        <time>2015-08-03T20:13:45Z</time>
      </trkpt>
      <trkpt lat="48.86287" lon="2.37155">
        <ele>35</ele>
        <time>2015-08-03T20:13:47Z</time>
      </trkpt>
      <trkpt lat="48.86292" lon="2.37145">
        <ele>37.79999923706</ele>
        <time>2015-08-03T20:13:51Z</time>
      </trkpt>
      <trkpt lat="48.86297" lon="2.37137">
        <ele>40</ele>
        <time>2015-08-03T20:13:55Z</time>
      </trkpt>
      <trkpt lat="48.86311" lon="2.37115">
        <ele>40.400001525879</ele>
        <time>2015-08-03T20:14:01Z</time>
      </trkpt>
      <trkpt lat="48.86316" lon="2.37106">
        <ele>39.599998474121</ele>
        <time>2015-08-03T20:14:03Z</time>
      </trkpt>
      <trkpt lat="48.86329" lon="2.37081">
        <ele>37.79999923706</ele>
        <time>2015-08-03T20:14:08Z</time>
      </trkpt>
      <trkpt lat="48.86344" lon="2.37057">
        <ele>34.79999923706</ele>
        <time>2015-08-03T20:14:13Z</time>
      </trkpt>
      <trkpt lat="48.86356" lon="2.37036">
        <ele>33.400001525879</ele>
        <time>2015-08-03T20:14:17Z</time>
      </trkpt>
      <trkpt lat="48.86369" lon="2.37016">
        <ele>34</ele>
        <time>2015-08-03T20:14:21Z</time>
      </trkpt>
      <trkpt lat="48.86382" lon="2.36995">
        <ele>34.599998474121</ele>
        <time>2015-08-03T20:14:25Z</time>
      </trkpt>
      <trkpt lat="48.86391" lon="2.36978">
        <ele>34.20000076294</ele>
        <time>2015-08-03T20:14:28Z</time>
      </trkpt>
      <trkpt lat="48.86404" lon="2.36955">
        <ele>33.79999923706</ele>
        <time>2015-08-03T20:14:32Z</time>
      </trkpt>
      <trkpt lat="48.86407" lon="2.36948">
        <ele>33.599998474121</ele>
        <time>2015-08-03T20:14:33Z</time>
      </trkpt>
      <trkpt lat="48.86421" lon="2.36924">
        <ele>33.599998474121</ele>
        <time>2015-08-03T20:14:37Z</time>
      </trkpt>
      <trkpt lat="48.86436" lon="2.369">
        <ele>34.79999923706</ele>
        <time>2015-08-03T20:14:41Z</time>
      </trkpt>
      <trkpt lat="48.86443" lon="2.36888">
        <ele>34.599998474121</ele>
        <time>2015-08-03T20:14:43Z</time>
      </trkpt>
      <trkpt lat="48.86454" lon="2.36866">
        <ele>33.79999923706</ele>
        <time>2015-08-03T20:14:46Z</time>
      </trkpt>
      <trkpt lat="48.86468" lon="2.36841">
        <ele>33.599998474121</ele>
        <time>2015-08-03T20:14:49Z</time>
      </trkpt>
      <trkpt lat="48.86484" lon="2.36815">
        <ele>33.79999923706</ele>
        <time>2015-08-03T20:14:52Z</time>
      </trkpt>
      <trkpt lat="48.86503" lon="2.36791">
        <ele>32.79999923706</ele>
        <time>2015-08-03T20:14:55Z</time>
      </trkpt>
      <trkpt lat="48.86522" lon="2.36764">
        <ele>32</ele>
        <time>2015-08-03T20:14:58Z</time>
      </trkpt>
      <trkpt lat="48.86539" lon="2.36735">
        <ele>32</ele>
        <time>2015-08-03T20:15:01Z</time>
      </trkpt>
      <trkpt lat="48.86556" lon="2.36707">
        <ele>32.20000076294</ele>
        <time>2015-08-03T20:15:04Z</time>
      </trkpt>
      <trkpt lat="48.86573" lon="2.36681">
        <ele>31.799999237061</ele>
        <time>2015-08-03T20:15:07Z</time>
      </trkpt>
      <trkpt lat="48.86589" lon="2.36655">
        <ele>31.200000762939</ele>
        <time>2015-08-03T20:15:10Z</time>
      </trkpt>
      <trkpt lat="48.86605" lon="2.36631">
        <ele>30.799999237061</ele>
        <time>2015-08-03T20:15:13Z</time>
      </trkpt>
      <trkpt lat="48.86621" lon="2.36607">
        <ele>31.39999961853</ele>
        <time>2015-08-03T20:15:16Z</time>
      </trkpt>
      <trkpt lat="48.86635" lon="2.36581">
        <ele>31</ele>
        <time>2015-08-03T20:15:19Z</time>
      </trkpt>
      <trkpt lat="48.86646" lon="2.36558">
        <ele>31.60000038147</ele>
        <time>2015-08-03T20:15:22Z</time>
      </trkpt>
      <trkpt lat="48.86656" lon="2.3654">
        <ele>32.20000076294</ele>
        <time>2015-08-03T20:15:25Z</time>
      </trkpt>
      <trkpt lat="48.86664" lon="2.36526">
        <ele>31.799999237061</ele>
        <time>2015-08-03T20:15:29Z</time>
      </trkpt>
      <trkpt lat="48.8667" lon="2.36516">
        <ele>34</ele>
        <time>2015-08-03T20:16:17Z</time>
      </trkpt>
      <trkpt lat="48.86675" lon="2.36509">
        <ele>34.400001525879</ele>
        <time>2015-08-03T20:16:23Z</time>
      </trkpt>
      <trkpt lat="48.86691" lon="2.36496">
        <ele>34.79999923706</ele>
        <time>2015-08-03T20:16:33Z</time>
      </trkpt>
      <trkpt lat="48.86706" lon="2.36476">
        <ele>35.20000076294</ele>
        <time>2015-08-03T20:16:40Z</time>
      </trkpt>
      <trkpt lat="48.86724" lon="2.36466">
        <ele>35.20000076294</ele>
        <time>2015-08-03T20:16:51Z</time>
      </trkpt>
      <trkpt lat="48.86724" lon="2.36466">
        <ele>34.79999923706</ele>
        <time>2015-08-03T20:16:53Z</time>
      </trkpt>
      <trkpt lat="48.86727" lon="2.3647">
        <ele>34.79999923706</ele>
        <time>2015-08-03T20:18:52Z</time>
      </trkpt>
      <trkpt lat="48.86726" lon="2.36441">
        <ele>35.79999923706</ele>
        <time>2015-08-03T20:19:03Z</time>
      </trkpt>
      <trkpt lat="48.86721" lon="2.36413">
        <ele>36.599998474121</ele>
        <time>2015-08-03T20:19:10Z</time>
      </trkpt>
      <trkpt lat="48.86724" lon="2.3639">
        <ele>36.400001525879</ele>
        <time>2015-08-03T20:19:17Z</time>
      </trkpt>
      <trkpt lat="48.86719" lon="2.36374">
        <ele>31.200000762939</ele>
        <time>2015-08-03T20:20:05Z</time>
      </trkpt>
      <trkpt lat="48.86718" lon="2.36358">
        <ele>30.39999961853</ele>
        <time>2015-08-03T20:20:10Z</time>
      </trkpt>
      <trkpt lat="48.86721" lon="2.36337">
        <ele>29.799999237061</ele>
        <time>2015-08-03T20:20:15Z</time>
      </trkpt>
      <trkpt lat="48.86722" lon="2.36327">
        <ele>29.799999237061</ele>
        <time>2015-08-03T20:20:17Z</time>
      </trkpt>
      <trkpt lat="48.86716" lon="2.36298">
        <ele>28.200000762939</ele>
        <time>2015-08-03T20:20:23Z</time>
      </trkpt>
      <trkpt lat="48.86708" lon="2.36268">
        <ele>27.799999237061</ele>
        <time>2015-08-03T20:20:29Z</time>
      </trkpt>
      <trkpt lat="48.86699" lon="2.36242">
        <ele>27.39999961853</ele>
        <time>2015-08-03T20:20:34Z</time>
      </trkpt>
      <trkpt lat="48.86687" lon="2.36214">
        <ele>26.60000038147</ele>
        <time>2015-08-03T20:20:39Z</time>
      </trkpt>
      <trkpt lat="48.86679" lon="2.36188">
        <ele>26.39999961853</ele>
        <time>2015-08-03T20:20:43Z</time>
      </trkpt>
      <trkpt lat="48.8667" lon="2.3616">
        <ele>27</ele>
        <time>2015-08-03T20:20:47Z</time>
      </trkpt>
      <trkpt lat="48.86661" lon="2.36131">
        <ele>29.200000762939</ele>
        <time>2015-08-03T20:20:51Z</time>
      </trkpt>
      <trkpt lat="48.86654" lon="2.36107">
        <ele>32.79999923706</ele>
        <time>2015-08-03T20:20:55Z</time>
      </trkpt>
      <trkpt lat="48.86648" lon="2.36089">
        <ele>35</ele>
        <time>2015-08-03T20:20:58Z</time>
      </trkpt>
      <trkpt lat="48.86645" lon="2.36077">
        <ele>36.20000076294</ele>
        <time>2015-08-03T20:21:00Z</time>
      </trkpt>
      <trkpt lat="48.86639" lon="2.36052">
        <ele>37</ele>
        <time>2015-08-03T20:21:04Z</time>
      </trkpt>
      <trkpt lat="48.86636" lon="2.3604">
        <ele>37</ele>
        <time>2015-08-03T20:21:06Z</time>
      </trkpt>
      <trkpt lat="48.86633" lon="2.36027">
        <ele>36.400001525879</ele>
        <time>2015-08-03T20:21:08Z</time>
      </trkpt>
      <trkpt lat="48.86628" lon="2.36">
        <ele>35.400001525879</ele>
        <time>2015-08-03T20:21:12Z</time>
      </trkpt>
      <trkpt lat="48.86622" lon="2.35974">
        <ele>35.20000076294</ele>
        <time>2015-08-03T20:21:16Z</time>
      </trkpt>
      <trkpt lat="48.86614" lon="2.35942">
        <ele>35.79999923706</ele>
        <time>2015-08-03T20:21:21Z</time>
      </trkpt>
      <trkpt lat="48.86606" lon="2.35918">
        <ele>37</ele>
        <time>2015-08-03T20:21:25Z</time>
      </trkpt>
      <trkpt lat="48.86597" lon="2.35887">
        <ele>38.20000076294</ele>
        <time>2015-08-03T20:21:30Z</time>
      </trkpt>
      <trkpt lat="48.86588" lon="2.35856">
        <ele>39.400001525879</ele>
        <time>2015-08-03T20:21:35Z</time>
      </trkpt>
      <trkpt lat="48.86586" lon="2.35831">
        <ele>36.599998474121</ele>
        <time>2015-08-03T20:21:38Z</time>
      </trkpt>
      <trkpt lat="48.86586" lon="2.35813">
        <ele>33</ele>
        <time>2015-08-03T20:21:40Z</time>
      </trkpt>
      <trkpt lat="48.86585" lon="2.358">
        <ele>32.400001525879</ele>
        <time>2015-08-03T20:21:42Z</time>
      </trkpt>
      <trkpt lat="48.8658" lon="2.35773">
        <ele>31</ele>
        <time>2015-08-03T20:21:46Z</time>
      </trkpt>
      <trkpt lat="48.86573" lon="2.35746">
        <ele>30.799999237061</ele>
        <time>2015-08-03T20:21:50Z</time>
      </trkpt>
      <trkpt lat="48.86571" lon="2.35741">
        <ele>31.200000762939</ele>
        <time>2015-08-03T20:21:51Z</time>
      </trkpt>
      <trkpt lat="48.86564" lon="2.3571">
        <ele>33.400001525879</ele>
        <time>2015-08-03T20:21:56Z</time>
      </trkpt>
      <trkpt lat="48.86559" lon="2.3568">
        <ele>35</ele>
        <time>2015-08-03T20:22:01Z</time>
      </trkpt>
      <trkpt lat="48.86556" lon="2.35675">
        <ele>34.20000076294</ele>
        <time>2015-08-03T20:22:02Z</time>
      </trkpt>
      <trkpt lat="48.86549" lon="2.35654">
        <ele>33.20000076294</ele>
        <time>2015-08-03T20:22:06Z</time>
      </trkpt>
      <trkpt lat="48.86545" lon="2.35627">
        <ele>33.79999923706</ele>
        <time>2015-08-03T20:22:11Z</time>
      </trkpt>
      <trkpt lat="48.8654" lon="2.35597">
        <ele>32.599998474121</ele>
        <time>2015-08-03T20:22:17Z</time>
      </trkpt>
      <trkpt lat="48.86538" lon="2.35585">
        <ele>32.20000076294</ele>
        <time>2015-08-03T20:22:20Z</time>
      </trkpt>
      <trkpt lat="48.86538" lon="2.35579">
        <ele>31.799999237061</ele>
        <time>2015-08-03T20:22:22Z</time>
      </trkpt>
      <trkpt lat="48.86536" lon="2.35569">
        <ele>32</ele>
        <time>2015-08-03T20:22:28Z</time>
      </trkpt>
      <trkpt lat="48.86525" lon="2.35566">
        <ele>30.60000038147</ele>
        <time>2015-08-03T20:22:33Z</time>
      </trkpt>
      <trkpt lat="48.86506" lon="2.35561">
        <ele>32.599998474121</ele>
        <time>2015-08-03T20:22:38Z</time>
      </trkpt>
      <trkpt lat="48.86485" lon="2.3555">
        <ele>34.79999923706</ele>
        <time>2015-08-03T20:22:43Z</time>
      </trkpt>
      <trkpt lat="48.86468" lon="2.35544">
        <ele>37.20000076294</ele>
        <time>2015-08-03T20:22:47Z</time>
      </trkpt>
      <trkpt lat="48.86449" lon="2.35534">
        <ele>38.599998474121</ele>
        <time>2015-08-03T20:22:51Z</time>
      </trkpt>
      <trkpt lat="48.86429" lon="2.35524">
        <ele>39.400001525879</ele>
        <time>2015-08-03T20:22:55Z</time>
      </trkpt>
      <trkpt lat="48.8641" lon="2.35513">
        <ele>40</ele>
        <time>2015-08-03T20:22:59Z</time>
      </trkpt>
      <trkpt lat="48.8639" lon="2.35501">
        <ele>41.20000076294</ele>
        <time>2015-08-03T20:23:03Z</time>
      </trkpt>
      <trkpt lat="48.86372" lon="2.35492">
        <ele>41.599998474121</ele>
        <time>2015-08-03T20:23:06Z</time>
      </trkpt>
      <trkpt lat="48.86354" lon="2.35483">
        <ele>41.79999923706</ele>
        <time>2015-08-03T20:23:09Z</time>
      </trkpt>
      <trkpt lat="48.86337" lon="2.35472">
        <ele>42.20000076294</ele>
        <time>2015-08-03T20:23:12Z</time>
      </trkpt>
      <trkpt lat="48.86319" lon="2.35462">
        <ele>41.79999923706</ele>
        <time>2015-08-03T20:23:15Z</time>
      </trkpt>
      <trkpt lat="48.86314" lon="2.35461">
        <ele>41.400001525879</ele>
        <time>2015-08-03T20:23:16Z</time>
      </trkpt>
      <trkpt lat="48.86292" lon="2.3545">
        <ele>41.599998474121</ele>
        <time>2015-08-03T20:23:20Z</time>
      </trkpt>
      <trkpt lat="48.86274" lon="2.35441">
        <ele>41.400001525879</ele>
        <time>2015-08-03T20:23:24Z</time>
      </trkpt>
      <trkpt lat="48.86268" lon="2.35437">
        <ele>41.400001525879</ele>
        <time>2015-08-03T20:23:26Z</time>
      </trkpt>
      <trkpt lat="48.86251" lon="2.35426">
        <ele>40.400001525879</ele>
        <time>2015-08-03T20:23:31Z</time>
      </trkpt>
      <trkpt lat="48.86231" lon="2.35416">
        <ele>40.400001525879</ele>
        <time>2015-08-03T20:23:35Z</time>
      </trkpt>
      <trkpt lat="48.86209" lon="2.35403">
        <ele>39.599998474121</ele>
        <time>2015-08-03T20:23:39Z</time>
      </trkpt>
      <trkpt lat="48.86188" lon="2.35393">
        <ele>38.79999923706</ele>
        <time>2015-08-03T20:23:43Z</time>
      </trkpt>
      <trkpt lat="48.86168" lon="2.35383">
        <ele>38.79999923706</ele>
        <time>2015-08-03T20:23:47Z</time>
      </trkpt>
      <trkpt lat="48.86161" lon="2.35382">
        <ele>38.79999923706</ele>
        <time>2015-08-03T20:23:48Z</time>
      </trkpt>
      <trkpt lat="48.86142" lon="2.35372">
        <ele>39.79999923706</ele>
        <time>2015-08-03T20:23:51Z</time>
      </trkpt>
      <trkpt lat="48.86136" lon="2.35368">
        <ele>40</ele>
        <time>2015-08-03T20:23:52Z</time>
      </trkpt>
      <trkpt lat="48.86129" lon="2.35363">
        <ele>40.599998474121</ele>
        <time>2015-08-03T20:23:53Z</time>
      </trkpt>
      <trkpt lat="48.86114" lon="2.35352">
        <ele>41.400001525879</ele>
        <time>2015-08-03T20:23:56Z</time>
      </trkpt>
      <trkpt lat="48.86099" lon="2.35344">
        <ele>42.599998474121</ele>
        <time>2015-08-03T20:23:59Z</time>
      </trkpt>
      <trkpt lat="48.86081" lon="2.35336">
        <ele>44</ele>
        <time>2015-08-03T20:24:02Z</time>
      </trkpt>
      <trkpt lat="48.86062" lon="2.35328">
        <ele>46.400001525879</ele>
        <time>2015-08-03T20:24:05Z</time>
      </trkpt>
      <trkpt lat="48.86054" lon="2.35323">
        <ele>48.599998474121</ele>
        <time>2015-08-03T20:24:06Z</time>
      </trkpt>
      <trkpt lat="48.86036" lon="2.3531">
        <ele>49.599998474121</ele>
        <time>2015-08-03T20:24:09Z</time>
      </trkpt>
      <trkpt lat="48.86029" lon="2.35306">
        <ele>49.599998474121</ele>
        <time>2015-08-03T20:24:10Z</time>
      </trkpt>
      <trkpt lat="48.86013" lon="2.35294">
        <ele>49.20000076294</ele>
        <time>2015-08-03T20:24:13Z</time>
      </trkpt>
      <trkpt lat="48.86003" lon="2.35288">
        <ele>49</ele>
        <time>2015-08-03T20:24:15Z</time>
      </trkpt>
      <trkpt lat="48.8599" lon="2.3528">
        <ele>47.599998474121</ele>
        <time>2015-08-03T20:24:18Z</time>
      </trkpt>
      <trkpt lat="48.85969" lon="2.35268">
        <ele>47.599998474121</ele>
        <time>2015-08-03T20:24:23Z</time>
      </trkpt>
      <trkpt lat="48.85963" lon="2.35266">
        <ele>47.20000076294</ele>
        <time>2015-08-03T20:24:24Z</time>
      </trkpt>
      <trkpt lat="48.85944" lon="2.35256">
        <ele>47.20000076294</ele>
        <time>2015-08-03T20:24:28Z</time>
      </trkpt>
      <trkpt lat="48.85939" lon="2.35253">
        <ele>47.400001525879</ele>
        <time>2015-08-03T20:24:29Z</time>
      </trkpt>
      <trkpt lat="48.85922" lon="2.35244">
        <ele>48.20000076294</ele>
        <time>2015-08-03T20:24:32Z</time>
      </trkpt>
      <trkpt lat="48.85901" lon="2.35231">
        <ele>44.79999923706</ele>
        <time>2015-08-03T20:24:36Z</time>
      </trkpt>
      <trkpt lat="48.85881" lon="2.35219">
        <ele>42.79999923706</ele>
        <time>2015-08-03T20:24:40Z</time>
      </trkpt>
      <trkpt lat="48.85872" lon="2.35215">
        <ele>43.599998474121</ele>
        <time>2015-08-03T20:24:42Z</time>
      </trkpt>
      <trkpt lat="48.85864" lon="2.35209">
        <ele>44</ele>
        <time>2015-08-03T20:24:44Z</time>
      </trkpt>
      <trkpt lat="48.85844" lon="2.35197">
        <ele>44.79999923706</ele>
        <time>2015-08-03T20:24:49Z</time>
      </trkpt>
      <trkpt lat="48.85836" lon="2.35194">
        <ele>44.599998474121</ele>
        <time>2015-08-03T20:24:51Z</time>
      </trkpt>
      <trkpt lat="48.85828" lon="2.35195">
        <ele>43.79999923706</ele>
        <time>2015-08-03T20:24:55Z</time>
      </trkpt>
      <trkpt lat="48.85828" lon="2.35195">
        <ele>43.599998474121</ele>
        <time>2015-08-03T20:24:56Z</time>
      </trkpt>
      <trkpt lat="48.85811" lon="2.35181">
        <ele>44</ele>
        <time>2015-08-03T20:25:12Z</time>
      </trkpt>
      <trkpt lat="48.8579" lon="2.35174">
        <ele>43.599998474121</ele>
        <time>2015-08-03T20:25:16Z</time>
      </trkpt>
      <trkpt lat="48.85769" lon="2.3516">
        <ele>43.599998474121</ele>
        <time>2015-08-03T20:25:20Z</time>
      </trkpt>
      <trkpt lat="48.85754" lon="2.35145">
        <ele>45.20000076294</ele>
        <time>2015-08-03T20:25:25Z</time>
      </trkpt>
      <trkpt lat="48.85757" lon="2.35124">
        <ele>45.599998474121</ele>
        <time>2015-08-03T20:25:29Z</time>
      </trkpt>
      <trkpt lat="48.85762" lon="2.35105">
        <ele>45.20000076294</ele>
        <time>2015-08-03T20:25:32Z</time>
      </trkpt>
      <trkpt lat="48.8577" lon="2.35077">
        <ele>45.400001525879</ele>
        <time>2015-08-03T20:25:37Z</time>
      </trkpt>
      <trkpt lat="48.85771" lon="2.35071">
        <ele>45.599998474121</ele>
        <time>2015-08-03T20:25:38Z</time>
      </trkpt>
      <trkpt lat="48.85778" lon="2.35044">
        <ele>44.79999923706</ele>
        <time>2015-08-03T20:25:42Z</time>
      </trkpt>
      <trkpt lat="48.85787" lon="2.35017">
        <ele>44.599998474121</ele>
        <time>2015-08-03T20:25:46Z</time>
      </trkpt>
      <trkpt lat="48.85796" lon="2.34988">
        <ele>43.79999923706</ele>
        <time>2015-08-03T20:25:50Z</time>
      </trkpt>
      <trkpt lat="48.85805" lon="2.34959">
        <ele>42.20000076294</ele>
        <time>2015-08-03T20:25:54Z</time>
      </trkpt>
      <trkpt lat="48.85814" lon="2.34931">
        <ele>40.79999923706</ele>
        <time>2015-08-03T20:25:58Z</time>
      </trkpt>
      <trkpt lat="48.85824" lon="2.34899">
        <ele>40</ele>
        <time>2015-08-03T20:26:02Z</time>
      </trkpt>
      <trkpt lat="48.8583" lon="2.34882">
        <ele>38.20000076294</ele>
        <time>2015-08-03T20:26:04Z</time>
      </trkpt>
      <trkpt lat="48.85838" lon="2.34855">
        <ele>40</ele>
        <time>2015-08-03T20:26:07Z</time>
      </trkpt>
      <trkpt lat="48.85849" lon="2.34824">
        <ele>38</ele>
        <time>2015-08-03T20:26:11Z</time>
      </trkpt>
      <trkpt lat="48.85858" lon="2.34793">
        <ele>38</ele>
        <time>2015-08-03T20:26:15Z</time>
      </trkpt>
      <trkpt lat="48.85864" lon="2.34777">
        <ele>37.79999923706</ele>
        <time>2015-08-03T20:26:17Z</time>
      </trkpt>
      <trkpt lat="48.85868" lon="2.34761">
        <ele>38.400001525879</ele>
        <time>2015-08-03T20:26:19Z</time>
      </trkpt>
      <trkpt lat="48.85879" lon="2.34736">
        <ele>39.20000076294</ele>
        <time>2015-08-03T20:26:23Z</time>
      </trkpt>
      <trkpt lat="48.85896" lon="2.34726">
        <ele>40.599998474121</ele>
        <time>2015-08-03T20:26:27Z</time>
      </trkpt>
      <trkpt lat="48.859" lon="2.34723">
        <ele>40.79999923706</ele>
        <time>2015-08-03T20:26:28Z</time>
      </trkpt>
      <trkpt lat="48.85918" lon="2.34706">
        <ele>43.79999923706</ele>
        <time>2015-08-03T20:26:33Z</time>
      </trkpt>
      <trkpt lat="48.85924" lon="2.34699">
        <ele>44.79999923706</ele>
        <time>2015-08-03T20:26:35Z</time>
      </trkpt>
      <trkpt lat="48.8593" lon="2.34694">
        <ele>47.20000076294</ele>
        <time>2015-08-03T20:26:39Z</time>
      </trkpt>
      <trkpt lat="48.85932" lon="2.34695">
        <ele>47.599998474121</ele>
        <time>2015-08-03T20:26:40Z</time>
      </trkpt>
      <trkpt lat="48.85938" lon="2.347">
        <ele>51.79999923706</ele>
        <time>2015-08-03T20:26:45Z</time>
      </trkpt>
      <trkpt lat="48.85939" lon="2.34702">
        <ele>53</ele>
        <time>2015-08-03T20:26:47Z</time>
      </trkpt>
      <trkpt lat="48.85943" lon="2.34706">
        <ele>62</ele>
        <time>2015-08-03T20:27:03Z</time>
      </trkpt>
      <trkpt lat="48.85949" lon="2.34708">
        <ele>62.79999923706</ele>
        <time>2015-08-03T20:27:09Z</time>
      </trkpt>
      <trkpt lat="48.85961" lon="2.34722">
        <ele>65.400001525879</ele>
        <time>2015-08-03T20:27:58Z</time>
      </trkpt>
      <trkpt lat="48.85965" lon="2.34726">
        <ele>66.199996948242</ele>
        <time>2015-08-03T20:28:40Z</time>
      </trkpt>
      <trkpt lat="48.85973" lon="2.34732">
        <ele>63.79999923706</ele>
        <time>2015-08-03T20:29:05Z</time>
      </trkpt>
      <trkpt lat="48.8597" lon="2.34723">
        <ele>64.800003051758</ele>
        <time>2015-08-03T20:29:38Z</time>
      </trkpt>
      <trkpt lat="48.85961" lon="2.34712">
        <ele>65.800003051758</ele>
        <time>2015-08-03T20:29:50Z</time>
      </trkpt>
      <trkpt lat="48.85948" lon="2.34698">
        <ele>65.800003051758</ele>
        <time>2015-08-03T20:29:59Z</time>
      </trkpt>
      <trkpt lat="48.85928" lon="2.34701">
        <ele>65.400001525879</ele>
        <time>2015-08-03T20:30:05Z</time>
      </trkpt>
      <trkpt lat="48.85909" lon="2.34714">
        <ele>66.199996948242</ele>
        <time>2015-08-03T20:30:10Z</time>
      </trkpt>
      <trkpt lat="48.85891" lon="2.34725">
        <ele>65.800003051758</ele>
        <time>2015-08-03T20:30:15Z</time>
      </trkpt>
      <trkpt lat="48.85872" lon="2.34734">
        <ele>61.79999923706</ele>
        <time>2015-08-03T20:30:23Z</time>
      </trkpt>
      <trkpt lat="48.85863" lon="2.34753">
        <ele>62</ele>
        <time>2015-08-03T20:30:36Z</time>
      </trkpt>
      <trkpt lat="48.85856" lon="2.34741">
        <ele>57.20000076294</ele>
        <time>2015-08-03T20:31:08Z</time>
      </trkpt>
      <trkpt lat="48.85836" lon="2.34732">
        <ele>56.599998474121</ele>
        <time>2015-08-03T20:31:16Z</time>
      </trkpt>
      <trkpt lat="48.85816" lon="2.34724">
        <ele>56.79999923706</ele>
        <time>2015-08-03T20:31:22Z</time>
      </trkpt>
      <trkpt lat="48.85797" lon="2.34722">
        <ele>54.79999923706</ele>
        <time>2015-08-03T20:31:28Z</time>
      </trkpt>
      <trkpt lat="48.85792" lon="2.3472">
        <ele>54.20000076294</ele>
        <time>2015-08-03T20:31:30Z</time>
      </trkpt>
      <trkpt lat="48.85775" lon="2.34708">
        <ele>52.20000076294</ele>
        <time>2015-08-03T20:31:36Z</time>
      </trkpt>
      <trkpt lat="48.85755" lon="2.34697">
        <ele>47</ele>
        <time>2015-08-03T20:31:42Z</time>
      </trkpt>
      <trkpt lat="48.85737" lon="2.3469">
        <ele>43.79999923706</ele>
        <time>2015-08-03T20:31:49Z</time>
      </trkpt>
      <trkpt lat="48.85736" lon="2.34688">
        <ele>43.20000076294</ele>
        <time>2015-08-03T20:31:51Z</time>
      </trkpt>
      <trkpt lat="48.85722" lon="2.34688">
        <ele>41.20000076294</ele>
        <time>2015-08-03T20:32:24Z</time>
      </trkpt>
      <trkpt lat="48.85703" lon="2.34685">
        <ele>39.400001525879</ele>
        <time>2015-08-03T20:32:30Z</time>
      </trkpt>
      <trkpt lat="48.85686" lon="2.34673">
        <ele>38.79999923706</ele>
        <time>2015-08-03T20:32:35Z</time>
      </trkpt>
      <trkpt lat="48.85668" lon="2.34662">
        <ele>38.20000076294</ele>
        <time>2015-08-03T20:32:40Z</time>
      </trkpt>
      <trkpt lat="48.85648" lon="2.34653">
        <ele>36.400001525879</ele>
        <time>2015-08-03T20:32:45Z</time>
      </trkpt>
      <trkpt lat="48.8563" lon="2.34641">
        <ele>35.599998474121</ele>
        <time>2015-08-03T20:32:50Z</time>
      </trkpt>
      <trkpt lat="48.85611" lon="2.34632">
        <ele>34.599998474121</ele>
        <time>2015-08-03T20:32:55Z</time>
      </trkpt>
      <trkpt lat="48.85592" lon="2.34617">
        <ele>33.599998474121</ele>
        <time>2015-08-03T20:33:00Z</time>
      </trkpt>
      <trkpt lat="48.85573" lon="2.34603">
        <ele>32.400001525879</ele>
        <time>2015-08-03T20:33:05Z</time>
      </trkpt>
      <trkpt lat="48.85552" lon="2.34597">
        <ele>32.400001525879</ele>
        <time>2015-08-03T20:33:10Z</time>
      </trkpt>
      <trkpt lat="48.85539" lon="2.34586">
        <ele>33.599998474121</ele>
        <time>2015-08-03T20:33:14Z</time>
      </trkpt>
      <trkpt lat="48.85529" lon="2.34573">
        <ele>34.20000076294</ele>
        <time>2015-08-03T20:33:18Z</time>
      </trkpt>
      <trkpt lat="48.85514" lon="2.34556">
        <ele>35.20000076294</ele>
        <time>2015-08-03T20:33:23Z</time>
      </trkpt>
      <trkpt lat="48.85496" lon="2.3454">
        <ele>36</ele>
        <time>2015-08-03T20:33:28Z</time>
      </trkpt>
      <trkpt lat="48.85479" lon="2.34522">
        <ele>37.20000076294</ele>
        <time>2015-08-03T20:33:33Z</time>
      </trkpt>
      <trkpt lat="48.85463" lon="2.34506">
        <ele>37</ele>
        <time>2015-08-03T20:33:38Z</time>
      </trkpt>
      <trkpt lat="48.85446" lon="2.3449">
        <ele>37</ele>
        <time>2015-08-03T20:33:43Z</time>
      </trkpt>
      <trkpt lat="48.85442" lon="2.34484">
        <ele>39.79999923706</ele>
        <time>2015-08-03T20:33:47Z</time>
      </trkpt>
      <trkpt lat="48.85426" lon="2.34466">
        <ele>38.400001525879</ele>
        <time>2015-08-03T20:33:57Z</time>
      </trkpt>
      <trkpt lat="48.8541" lon="2.34448">
        <ele>38</ele>
        <time>2015-08-03T20:34:03Z</time>
      </trkpt>
      <trkpt lat="48.85395" lon="2.34432">
        <ele>35.400001525879</ele>
        <time>2015-08-03T20:34:09Z</time>
      </trkpt>
      <trkpt lat="48.85387" lon="2.34424">
        <ele>34.400001525879</ele>
        <time>2015-08-03T20:34:14Z</time>
      </trkpt>
      <trkpt lat="48.85374" lon="2.34402">
        <ele>34</ele>
        <time>2015-08-03T20:34:20Z</time>
      </trkpt>
      <trkpt lat="48.85355" lon="2.34397">
        <ele>33.599998474121</ele>
        <time>2015-08-03T20:34:25Z</time>
      </trkpt>
      <trkpt lat="48.85336" lon="2.34395">
        <ele>33.20000076294</ele>
        <time>2015-08-03T20:34:30Z</time>
      </trkpt>
      <trkpt lat="48.85318" lon="2.34384">
        <ele>32.400001525879</ele>
        <time>2015-08-03T20:34:35Z</time>
      </trkpt>
      <trkpt lat="48.85299" lon="2.34373">
        <ele>31.799999237061</ele>
        <time>2015-08-03T20:34:40Z</time>
      </trkpt>
      <trkpt lat="48.85279" lon="2.3437">
        <ele>31.39999961853</ele>
        <time>2015-08-03T20:34:45Z</time>
      </trkpt>
      <trkpt lat="48.85263" lon="2.34357">
        <ele>31.60000038147</ele>
        <time>2015-08-03T20:34:52Z</time>
      </trkpt>
      <trkpt lat="48.85245" lon="2.34349">
        <ele>31.799999237061</ele>
        <time>2015-08-03T20:34:58Z</time>
      </trkpt>
      <trkpt lat="48.85225" lon="2.34342">
        <ele>33.400001525879</ele>
        <time>2015-08-03T20:35:03Z</time>
      </trkpt>
      <trkpt lat="48.85207" lon="2.34336">
        <ele>35</ele>
        <time>2015-08-03T20:35:08Z</time>
      </trkpt>
      <trkpt lat="48.85203" lon="2.34336">
        <ele>35.400001525879</ele>
        <time>2015-08-03T20:35:09Z</time>
      </trkpt>
      <trkpt lat="48.85183" lon="2.34336">
        <ele>40.400001525879</ele>
        <time>2015-08-03T20:35:15Z</time>
      </trkpt>
      <trkpt lat="48.85164" lon="2.34329">
        <ele>41.599998474121</ele>
        <time>2015-08-03T20:35:22Z</time>
      </trkpt>
      <trkpt lat="48.85147" lon="2.34322">
        <ele>45</ele>
        <time>2015-08-03T20:35:29Z</time>
      </trkpt>
      <trkpt lat="48.85143" lon="2.34296">
        <ele>45.599998474121</ele>
        <time>2015-08-03T20:36:00Z</time>
      </trkpt>
      <trkpt lat="48.85126" lon="2.3429">
        <ele>45.599998474121</ele>
        <time>2015-08-03T20:36:07Z</time>
      </trkpt>
      <trkpt lat="48.85108" lon="2.34283">
        <ele>43.599998474121</ele>
        <time>2015-08-03T20:36:13Z</time>
      </trkpt>
      <trkpt lat="48.85088" lon="2.34278">
        <ele>42.400001525879</ele>
        <time>2015-08-03T20:36:19Z</time>
      </trkpt>
      <trkpt lat="48.85068" lon="2.34272">
        <ele>42.599998474121</ele>
        <time>2015-08-03T20:36:27Z</time>
      </trkpt>
      <trkpt lat="48.8505" lon="2.34261">
        <ele>41</ele>
        <time>2015-08-03T20:36:34Z</time>
      </trkpt>
      <trkpt lat="48.85032" lon="2.34254">
        <ele>41.20000076294</ele>
        <time>2015-08-03T20:36:41Z</time>
      </trkpt>
      <trkpt lat="48.85016" lon="2.34241">
        <ele>41.79999923706</ele>
        <time>2015-08-03T20:36:47Z</time>
      </trkpt>
      <trkpt lat="48.84999" lon="2.34227">
        <ele>41.79999923706</ele>
        <time>2015-08-03T20:36:53Z</time>
      </trkpt>
      <trkpt lat="48.84979" lon="2.34216">
        <ele>41.20000076294</ele>
        <time>2015-08-03T20:36:59Z</time>
      </trkpt>
      <trkpt lat="48.8496" lon="2.34207">
        <ele>42.20000076294</ele>
        <time>2015-08-03T20:37:05Z</time>
      </trkpt>
      <trkpt lat="48.84942" lon="2.34199">
        <ele>42.20000076294</ele>
        <time>2015-08-03T20:37:10Z</time>
      </trkpt>
      <trkpt lat="48.84925" lon="2.34188">
        <ele>43.79999923706</ele>
        <time>2015-08-03T20:37:15Z</time>
      </trkpt>
      <trkpt lat="48.84908" lon="2.34178">
        <ele>45</ele>
        <time>2015-08-03T20:37:20Z</time>
      </trkpt>
      <trkpt lat="48.84886" lon="2.3417">
        <ele>44.599998474121</ele>
        <time>2015-08-03T20:37:26Z</time>
      </trkpt>
      <trkpt lat="48.84868" lon="2.34157">
        <ele>45.599998474121</ele>
        <time>2015-08-03T20:37:33Z</time>
      </trkpt>
      <trkpt lat="48.84849" lon="2.34144">
        <ele>45.79999923706</ele>
        <time>2015-08-03T20:37:39Z</time>
      </trkpt>
      <trkpt lat="48.84829" lon="2.34135">
        <ele>47</ele>
        <time>2015-08-03T20:37:45Z</time>
      </trkpt>
      <trkpt lat="48.84812" lon="2.34125">
        <ele>47.599998474121</ele>
        <time>2015-08-03T20:37:50Z</time>
      </trkpt>
      <trkpt lat="48.84793" lon="2.34112">
        <ele>48.20000076294</ele>
        <time>2015-08-03T20:37:56Z</time>
      </trkpt>
      <trkpt lat="48.84774" lon="2.34103">
        <ele>48.79999923706</ele>
        <time>2015-08-03T20:38:03Z</time>
      </trkpt>
      <trkpt lat="48.84757" lon="2.34096">
        <ele>49.79999923706</ele>
        <time>2015-08-03T20:38:09Z</time>
      </trkpt>
      <trkpt lat="48.84738" lon="2.34087">
        <ele>53</ele>
        <time>2015-08-03T20:38:15Z</time>
      </trkpt>
      <trkpt lat="48.84721" lon="2.34074">
        <ele>55</ele>
        <time>2015-08-03T20:38:21Z</time>
      </trkpt>
      <trkpt lat="48.84704" lon="2.34064">
        <ele>56</ele>
        <time>2015-08-03T20:38:29Z</time>
      </trkpt>
      <trkpt lat="48.84686" lon="2.34049">
        <ele>58</ele>
        <time>2015-08-03T20:38:39Z</time>
      </trkpt>
      <trkpt lat="48.84667" lon="2.34036">
        <ele>59</ele>
        <time>2015-08-03T20:38:45Z</time>
      </trkpt>
      <trkpt lat="48.8465" lon="2.34022">
        <ele>59.400001525879</ele>
        <time>2015-08-03T20:38:50Z</time>
      </trkpt>
      <trkpt lat="48.8463" lon="2.34011">
        <ele>59</ele>
        <time>2015-08-03T20:38:55Z</time>
      </trkpt>
      <trkpt lat="48.8461" lon="2.33998">
        <ele>58.599998474121</ele>
        <time>2015-08-03T20:39:00Z</time>
      </trkpt>
      <trkpt lat="48.84589" lon="2.33988">
        <ele>57.400001525879</ele>
        <time>2015-08-03T20:39:05Z</time>
      </trkpt>
      <trkpt lat="48.84572" lon="2.33978">
        <ele>57</ele>
        <time>2015-08-03T20:39:09Z</time>
      </trkpt>
      <trkpt lat="48.84551" lon="2.33968">
        <ele>57</ele>
        <time>2015-08-03T20:39:14Z</time>
      </trkpt>
      <trkpt lat="48.84547" lon="2.33967">
        <ele>56.79999923706</ele>
        <time>2015-08-03T20:39:15Z</time>
      </trkpt>
      <trkpt lat="48.84531" lon="2.3396">
        <ele>56</ele>
        <time>2015-08-03T20:39:19Z</time>
      </trkpt>
      <trkpt lat="48.84511" lon="2.33952">
        <ele>56.20000076294</ele>
        <time>2015-08-03T20:39:24Z</time>
      </trkpt>
      <trkpt lat="48.84499" lon="2.33947">
        <ele>57</ele>
        <time>2015-08-03T20:39:27Z</time>
      </trkpt>
      <trkpt lat="48.84478" lon="2.33938">
        <ele>57.79999923706</ele>
        <time>2015-08-03T20:39:32Z</time>
      </trkpt>
      <trkpt lat="48.84474" lon="2.33936">
        <ele>57.79999923706</ele>
        <time>2015-08-03T20:39:33Z</time>
      </trkpt>
      <trkpt lat="48.84454" lon="2.33925">
        <ele>55.79999923706</ele>
        <time>2015-08-03T20:39:38Z</time>
      </trkpt>
      <trkpt lat="48.84447" lon="2.33919">
        <ele>55.599998474121</ele>
        <time>2015-08-03T20:39:40Z</time>
      </trkpt>
      <trkpt lat="48.84428" lon="2.33906">
        <ele>56.20000076294</ele>
        <time>2015-08-03T20:39:45Z</time>
      </trkpt>
      <trkpt lat="48.84425" lon="2.33904">
        <ele>55.79999923706</ele>
        <time>2015-08-03T20:39:46Z</time>
      </trkpt>
      <trkpt lat="48.84411" lon="2.33894">
        <ele>54.599998474121</ele>
        <time>2015-08-03T20:39:50Z</time>
      </trkpt>
      <trkpt lat="48.84406" lon="2.3389">
        <ele>54</ele>
        <time>2015-08-03T20:39:52Z</time>
      </trkpt>
      <trkpt lat="48.84399" lon="2.33885">
        <ele>53.599998474121</ele>
        <time>2015-08-03T20:39:55Z</time>
      </trkpt>
      <trkpt lat="48.8438" lon="2.33873">
        <ele>54.20000076294</ele>
        <time>2015-08-03T20:40:02Z</time>
      </trkpt>
      <trkpt lat="48.8436" lon="2.33863">
        <ele>56.20000076294</ele>
        <time>2015-08-03T20:40:08Z</time>
      </trkpt>
      <trkpt lat="48.84341" lon="2.33853">
        <ele>55.79999923706</ele>
        <time>2015-08-03T20:40:14Z</time>
      </trkpt>
      <trkpt lat="48.84322" lon="2.33843">
        <ele>54.599998474121</ele>
        <time>2015-08-03T20:40:20Z</time>
      </trkpt>
      <trkpt lat="48.84304" lon="2.33833">
        <ele>52</ele>
        <time>2015-08-03T20:40:25Z</time>
      </trkpt>
      <trkpt lat="48.84284" lon="2.33824">
        <ele>51.599998474121</ele>
        <time>2015-08-03T20:40:30Z</time>
      </trkpt>
      <trkpt lat="48.84264" lon="2.33815">
        <ele>51.79999923706</ele>
        <time>2015-08-03T20:40:35Z</time>
      </trkpt>
      <trkpt lat="48.84248" lon="2.33801">
        <ele>52.20000076294</ele>
        <time>2015-08-03T20:40:40Z</time>
      </trkpt>
      <trkpt lat="48.84228" lon="2.33789">
        <ele>52</ele>
        <time>2015-08-03T20:40:46Z</time>
      </trkpt>
      <trkpt lat="48.84211" lon="2.33777">
        <ele>52.20000076294</ele>
        <time>2015-08-03T20:40:51Z</time>
      </trkpt>
      <trkpt lat="48.84192" lon="2.33768">
        <ele>52.79999923706</ele>
        <time>2015-08-03T20:40:56Z</time>
      </trkpt>
      <trkpt lat="48.84173" lon="2.33757">
        <ele>53.599998474121</ele>
        <time>2015-08-03T20:41:02Z</time>
      </trkpt>
      <trkpt lat="48.84155" lon="2.33746">
        <ele>53.400001525879</ele>
        <time>2015-08-03T20:41:08Z</time>
      </trkpt>
      <trkpt lat="48.84136" lon="2.33737">
        <ele>53.20000076294</ele>
        <time>2015-08-03T20:41:14Z</time>
      </trkpt>
      <trkpt lat="48.84116" lon="2.3373">
        <ele>53.599998474121</ele>
        <time>2015-08-03T20:41:19Z</time>
      </trkpt>
      <trkpt lat="48.84097" lon="2.3372">
        <ele>52.79999923706</ele>
        <time>2015-08-03T20:41:24Z</time>
      </trkpt>
      <trkpt lat="48.84077" lon="2.33706">
        <ele>52.599998474121</ele>
        <time>2015-08-03T20:41:29Z</time>
      </trkpt>
      <trkpt lat="48.84058" lon="2.3369">
        <ele>53</ele>
        <time>2015-08-03T20:41:34Z</time>
      </trkpt>
      <trkpt lat="48.84043" lon="2.33671">
        <ele>53.599998474121</ele>
        <time>2015-08-03T20:41:39Z</time>
      </trkpt>
      <trkpt lat="48.84024" lon="2.33658">
        <ele>53.79999923706</ele>
        <time>2015-08-03T20:41:44Z</time>
      </trkpt>
      <trkpt lat="48.84005" lon="2.33654">
        <ele>52.599998474121</ele>
        <time>2015-08-03T20:41:49Z</time>
      </trkpt>
      <trkpt lat="48.83986" lon="2.3365">
        <ele>50.599998474121</ele>
        <time>2015-08-03T20:41:54Z</time>
      </trkpt>
      <trkpt lat="48.83965" lon="2.3365">
        <ele>47.79999923706</ele>
        <time>2015-08-03T20:42:00Z</time>
      </trkpt>
      <trkpt lat="48.83945" lon="2.33648">
        <ele>44.400001525879</ele>
        <time>2015-08-03T20:42:06Z</time>
      </trkpt>
      <trkpt lat="48.83924" lon="2.33648">
        <ele>45.599998474121</ele>
        <time>2015-08-03T20:42:11Z</time>
      </trkpt>
      <trkpt lat="48.83905" lon="2.3365">
        <ele>47.400001525879</ele>
        <time>2015-08-03T20:42:16Z</time>
      </trkpt>
      <trkpt lat="48.83884" lon="2.33655">
        <ele>51</ele>
        <time>2015-08-03T20:42:21Z</time>
      </trkpt>
      <trkpt lat="48.83864" lon="2.3365">
        <ele>52.400001525879</ele>
        <time>2015-08-03T20:42:26Z</time>
      </trkpt>
      <trkpt lat="48.83848" lon="2.33636">
        <ele>53.79999923706</ele>
        <time>2015-08-03T20:42:31Z</time>
      </trkpt>
      <trkpt lat="48.83832" lon="2.33621">
        <ele>54</ele>
        <time>2015-08-03T20:42:36Z</time>
      </trkpt>
      <trkpt lat="48.83815" lon="2.33603">
        <ele>52.79999923706</ele>
        <time>2015-08-03T20:42:41Z</time>
      </trkpt>
      <trkpt lat="48.83797" lon="2.33587">
        <ele>53.400001525879</ele>
        <time>2015-08-03T20:42:46Z</time>
      </trkpt>
      <trkpt lat="48.83778" lon="2.33571">
        <ele>54.79999923706</ele>
        <time>2015-08-03T20:42:51Z</time>
      </trkpt>
      <trkpt lat="48.8376" lon="2.33555">
        <ele>57.400001525879</ele>
        <time>2015-08-03T20:42:56Z</time>
      </trkpt>
      <trkpt lat="48.83743" lon="2.33534">
        <ele>56.20000076294</ele>
        <time>2015-08-03T20:43:01Z</time>
      </trkpt>
      <trkpt lat="48.83726" lon="2.33515">
        <ele>56.400001525879</ele>
        <time>2015-08-03T20:43:06Z</time>
      </trkpt>
      <trkpt lat="48.83723" lon="2.33512">
        <ele>56.599998474121</ele>
        <time>2015-08-03T20:43:07Z</time>
      </trkpt>
      <trkpt lat="48.83706" lon="2.33493">
        <ele>57.400001525879</ele>
        <time>2015-08-03T20:43:12Z</time>
      </trkpt>
      <trkpt lat="48.83696" lon="2.33482">
        <ele>58</ele>
        <time>2015-08-03T20:43:15Z</time>
      </trkpt>
      <trkpt lat="48.83683" lon="2.33468">
        <ele>58.20000076294</ele>
        <time>2015-08-03T20:43:19Z</time>
      </trkpt>
      <trkpt lat="48.83677" lon="2.33462">
        <ele>57.20000076294</ele>
        <time>2015-08-03T20:43:21Z</time>
      </trkpt>
      <trkpt lat="48.83668" lon="2.33452">
        <ele>57.599998474121</ele>
        <time>2015-08-03T20:43:24Z</time>
      </trkpt>
      <trkpt lat="48.83652" lon="2.33435">
        <ele>57</ele>
        <time>2015-08-03T20:43:29Z</time>
      </trkpt>
      <trkpt lat="48.83635" lon="2.33419">
        <ele>57.599998474121</ele>
        <time>2015-08-03T20:43:34Z</time>
      </trkpt>
      <trkpt lat="48.83619" lon="2.33405">
        <ele>60</ele>
        <time>2015-08-03T20:43:39Z</time>
      </trkpt>
      <trkpt lat="48.83609" lon="2.33396">
        <ele>60.599998474121</ele>
        <time>2015-08-03T20:43:42Z</time>
      </trkpt>
      <trkpt lat="48.83593" lon="2.33381">
        <ele>60.20000076294</ele>
        <time>2015-08-03T20:43:47Z</time>
      </trkpt>
      <trkpt lat="48.83574" lon="2.33365">
        <ele>59.79999923706</ele>
        <time>2015-08-03T20:43:52Z</time>
      </trkpt>
      <trkpt lat="48.83557" lon="2.33348">
        <ele>60.400001525879</ele>
        <time>2015-08-03T20:43:57Z</time>
      </trkpt>
      <trkpt lat="48.8354" lon="2.33334">
        <ele>60.400001525879</ele>
        <time>2015-08-03T20:44:02Z</time>
      </trkpt>
      <trkpt lat="48.83522" lon="2.33322">
        <ele>62.79999923706</ele>
        <time>2015-08-03T20:44:07Z</time>
      </trkpt>
      <trkpt lat="48.83505" lon="2.33308">
        <ele>64</ele>
        <time>2015-08-03T20:44:12Z</time>
      </trkpt>
      <trkpt lat="48.83485" lon="2.33295">
        <ele>67</ele>
        <time>2015-08-03T20:44:18Z</time>
      </trkpt>
      <trkpt lat="48.83473" lon="2.33286">
        <ele>67.400001525879</ele>
        <time>2015-08-03T20:44:24Z</time>
      </trkpt>
      <trkpt lat="48.83469" lon="2.33294">
        <ele>69.800003051758</ele>
        <time>2015-08-03T20:44:28Z</time>
      </trkpt>
      <trkpt lat="48.83464" lon="2.33295">
        <ele>69.800003051758</ele>
        <time>2015-08-03T20:44:32Z</time>
      </trkpt>
      <trkpt lat="48.83448" lon="2.33302">
        <ele>69</ele>
        <time>2015-08-03T20:44:48Z</time>
      </trkpt>
      <trkpt lat="48.8344" lon="2.33307">
        <ele>69.800003051758</ele>
        <time>2015-08-03T20:44:58Z</time>
      </trkpt>
      <trkpt lat="48.83427" lon="2.33298">
        <ele>70.400001525879</ele>
        <time>2015-08-03T20:45:05Z</time>
      </trkpt>
      <trkpt lat="48.83418" lon="2.33273">
        <ele>69.599998474121</ele>
        <time>2015-08-03T20:45:13Z</time>
      </trkpt>
      <trkpt lat="48.83406" lon="2.33267">
        <ele>66.199996948242</ele>
        <time>2015-08-03T20:45:20Z</time>
      </trkpt>
      <trkpt lat="48.83386" lon="2.33268">
        <ele>63.400001525879</ele>
        <time>2015-08-03T20:45:27Z</time>
      </trkpt>
      <trkpt lat="48.83365" lon="2.33266">
        <ele>61</ele>
        <time>2015-08-03T20:45:34Z</time>
      </trkpt>
      <trkpt lat="48.83352" lon="2.33268">
        <ele>59.20000076294</ele>
        <time>2015-08-03T20:45:42Z</time>
      </trkpt>
      <trkpt lat="48.83335" lon="2.33252">
        <ele>59</ele>
        <time>2015-08-03T20:46:17Z</time>
      </trkpt>
      <trkpt lat="48.8333" lon="2.33251">
        <ele>58.400001525879</ele>
        <time>2015-08-03T20:46:21Z</time>
      </trkpt>
      <trkpt lat="48.83326" lon="2.33231">
        <ele>56.400001525879</ele>
        <time>2015-08-03T20:47:00Z</time>
      </trkpt>
      <trkpt lat="48.83329" lon="2.33227">
        <ele>87</ele>
        <time>2015-08-03T20:49:10Z</time>
      </trkpt>
      <trkpt lat="48.83326" lon="2.33208">
        <ele>77.400001525879</ele>
        <time>2015-08-03T20:49:48Z</time>
      </trkpt>
      <trkpt lat="48.83323" lon="2.33242">
        <ele>76</ele>
        <time>2015-08-03T20:49:55Z</time>
      </trkpt>
      <trkpt lat="48.83322" lon="2.3326">
        <ele>69</ele>
        <time>2015-08-03T20:50:11Z</time>
      </trkpt>
      <trkpt lat="48.83323" lon="2.3328">
        <ele>73</ele>
        <time>2015-08-03T20:50:30Z</time>
      </trkpt>
      <trkpt lat="48.83322" lon="2.3329">
        <ele>77</ele>
        <time>2015-08-03T20:50:35Z</time>
      </trkpt>
      <trkpt lat="48.83322" lon="2.33292">
        <ele>78.400001525879</ele>
        <time>2015-08-03T20:50:37Z</time>
      </trkpt>
      <trkpt lat="48.83321" lon="2.33296">
        <ele>81.400001525879</ele>
        <time>2015-08-03T20:50:42Z</time>
      </trkpt>
      <trkpt lat="48.83324" lon="2.33277">
        <ele>82.800003051758</ele>
        <time>2015-08-03T20:51:07Z</time>
      </trkpt>
      <trkpt lat="48.83323" lon="2.33295">
        <ele>86</ele>
        <time>2015-08-03T20:51:21Z</time>
      </trkpt>
      <trkpt lat="48.83322" lon="2.33312">
        <ele>90</ele>
        <time>2015-08-03T20:51:49Z</time>
      </trkpt>
      <trkpt lat="48.83319" lon="2.33323">
        <ele>91.400001525879</ele>
        <time>2015-08-03T20:52:09Z</time>
      </trkpt>
      <trkpt lat="48.83319" lon="2.33323">
        <ele>91.800003051758</ele>
        <time>2015-08-03T20:52:12Z</time>
      </trkpt>
    </trkseg>
  </trk>
</gpx>